[[{"header":{"parameterUnit":"m.s-1","parameterCategory":1,"la1":30.6,"la2":29.2853,"lo1":-89.7004,"lo2":-87.6739,"dy":0.0162,"dx":0.0183,"nx":112,"ny":82,"refTime":"2024-06-10T18:00:00:Z","depth":0,"parameterNumber":2,"parameterNumberName":"U-component_of_WINDS"},"data":[0.0,0.0,0.0,0.0,0.0,0.0,0.0,0.0,0.0,0.0,0.0,0.0,0.0,0.0,0.0,0.0,0.0,0.0,0.0,0.0,0.0,0.0,0.0,0.0,0.0,0.0,0.0,0.0,0.0,0.0,0.0,0.0,0.0,0.0,0.0,0.0,0.0,0.0,0.0,0.0,0.0,0.0,0.0,0.0,0.0,0.0,0.0,0.0,0.0,0.0,0.0,0.0,0.0,0.0,0.0,0.0,0.0,0.0,0.0,0.0,0.0,0.0,0.0,0.0,0.0,0.0,0.0,0.0,0.0,0.0,0.0,0.0,0.0,0.0,0.0,0.0,0.0,0.0,0.0,0.0,0.0,0.0,0.0,0.0,0.0,0.0,0.0,0.0,0.0,0.0,1.6111,1.8918,2.0582,2.1625,2.1898,2.1366,1.9807,1.6965,0.0,0.0,0.0,0.0,0.0,0.0,0.0,0.0,0.0,0.0,0.0,0.0,0.0,0.0,0.0,0.0,0.0,0.0,0.0,0.0,0.0,0.0,0.0,0.0,0.0,0.0,0.0,0.0,0.0,0.0,0.0,0.0,0.0,0.0,0.0,0.0,0.0,0.0,0.0,0.0,0.0,0.0,0.0,0.0,0.0,0.0,0.0,0.0,0.0,0.0,0.0,0.0,0.0,0.0,0.0,0.0,0.0,0.0,0.0,0.0,0.0,0.0,0.0,0.0,0.0,0.0,0.0,0.0,0.0,0.0,0.0,0.0,0.0,0.0,0.0,0.0,0.0,0.0,0.0,0.0,0.0,0.0,0.0,0.0,0.0,0.0,0.0,0.0,0.0,0.0,0.0,0.0,0.0,0.0,0.0,0.0,0.0,0.0,0.0,0.0,0.0,0.0,0.0,0.0,1.6273,2.0247,2.0925,2.1118,2.1165,2.1055,1.9807,1.6965,0.0,0.0,0.0,0.0,0.0,0.0,0.0,0.0,0.0,0.0,0.0,0.0,0.0,0.0,0.0,0.0,0.0,0.0,0.0,0.0,0.0,0.0,0.0,0.0,0.0,0.0,0.0,0.0,0.0,0.0,0.0,0.0,0.0,0.0,0.0,0.0,0.0,0.0,0.0,0.0,0.0,0.0,0.0,0.0,0.0,0.0,0.0,0.0,0.0,0.0,0.0,0.0,0.0,0.0,0.0,0.0,0.0,0.0,0.0,0.0,0.0,0.0,0.0,0.0,0.0,0.0,0.0,0.0,0.0,0.0,0.0,0.0,0.0,0.0,0.0,0.0,0.0,0.0,0.0,0.0,0.0,0.0,0.0,0.0,0.0,0.0,0.0,0.0,0.0,0.0,0.0,0.0,0.0,0.0,0.0,0.0,0.0,0.0,0.0,0.0,0.0,0.0,0.0,1.5685,1.7529,2.0334,2.0616,2.0616,2.0616,2.0147,1.8746,1.6161,1.4611,0.0,0.0,0.0,0.0,0.0,0.0,0.0,0.0,0.0,0.0,0.0,0.0,0.0,0.0,0.0,0.0,0.0,0.0,0.0,0.0,0.0,0.0,0.0,0.0,0.0,0.0,0.0,0.0,0.0,0.0,0.0,0.0,0.0,0.0,0.0,0.0,0.0,0.0,0.0,0.0,0.0,0.0,0.0,0.0,0.0,0.0,0.0,0.0,0.0,0.0,0.0,0.0,0.0,0.0,0.0,0.0,0.0,0.0,0.0,0.0,0.0,0.0,0.0,0.0,0.0,0.0,0.0,0.0,0.0,0.0,0.0,0.0,0.0,0.0,0.0,0.0,0.0,0.0,0.0,0.0,0.0,0.0,0.0,0.0,0.0,0.0,0.0,0.0,0.0,0.0,0.0,0.0,0.0,0.0,0.0,0.0,0.0,0.0,0.0,0.0,0.0,0.0,1.7273,1.8268,1.9791,1.9869,1.9798,1.9798,1.8885,1.7426,1.5248,1.35,0.0,0.0,0.0,0.0,0.0,0.0,0.0,0.0,0.0,0.0,0.0,0.0,0.0,0.0,0.0,0.0,0.0,0.0,0.0,0.0,0.0,0.0,0.0,0.0,0.0,0.0,0.0,0.0,0.0,0.0,0.0,0.0,0.0,0.0,0.0,0.0,0.0,0.0,0.0,0.0,0.0,0.0,0.0,0.0,0.0,0.0,0.0,0.0,0.0,0.0,0.0,0.0,0.0,0.0,0.0,0.0,0.0,0.0,0.0,0.0,0.0,0.0,0.0,0.0,0.0,0.0,0.0,0.0,0.0,0.0,0.0,0.0,0.0,0.0,0.0,0.0,0.0,0.0,0.0,0.0,0.0,0.0,0.0,0.0,0.0,0.0,0.0,0.0,0.0,0.0,0.0,0.0,0.0,0.0,0.0,0.0,0.0,0.0,0.0,0.0,0.0,0.0,1.6136,1.7508,1.8861,1.8559,1.8249,1.8249,1.7292,1.6055,1.4648,1.2425,0.0,0.0,0.0,0.0,0.0,0.0,0.0,0.0,0.0,0.0,0.0,0.0,0.0,0.0,0.0,0.0,0.0,0.0,0.0,0.0,0.0,0.0,0.0,0.0,0.0,0.0,0.0,0.0,0.0,0.0,0.0,0.0,0.0,0.0,0.0,0.0,0.0,0.0,0.0,0.0,0.0,0.0,0.0,0.0,0.0,0.0,0.0,0.0,0.0,0.0,0.0,0.0,0.0,0.0,0.0,0.0,0.0,0.0,0.0,0.0,0.0,0.0,0.0,0.0,0.0,0.0,0.0,0.0,0.0,0.0,0.0,0.0,0.0,0.0,0.0,0.0,0.0,0.0,0.0,0.0,0.0,0.0,0.0,0.0,0.0,0.0,0.0,0.0,0.0,0.0,0.0,0.0,0.0,0.0,0.0,0.0,0.0,0.0,0.0,0.0,0.0,0.0,1.5374,1.6529,0.0,1.8224,1.8106,1.8106,1.7118,1.5716,1.3825,0.0,0.0,0.0,0.0,0.0,0.0,0.0,0.0,0.0,0.0,0.0,0.0,0.0,0.0,0.0,0.0,0.0,0.0,0.0,0.0,0.0,0.0,0.0,0.0,0.0,0.0,0.0,0.0,0.0,0.0,0.0,0.0,0.0,0.0,0.0,0.0,0.0,0.0,0.0,0.0,0.0,0.0,0.0,0.0,0.0,0.0,0.0,0.0,0.0,0.0,0.0,0.0,0.0,0.0,0.0,0.0,0.0,0.0,0.0,0.0,0.0,0.0,0.0,0.0,0.0,0.0,0.0,0.0,0.0,0.0,0.0,0.0,0.0,0.0,0.0,0.0,0.0,0.0,0.0,0.0,0.0,0.0,0.0,0.0,0.0,0.0,0.0,0.0,0.0,0.0,0.0,0.0,0.0,0.0,0.0,0.0,0.0,0.0,0.0,0.0,0.0,0.0,1.4097,1.4992,1.5951,0.0,1.7436,1.73,1.73,1.6007,1.4534,1.2914,0.0,0.0,0.0,0.0,0.0,0.0,0.0,0.0,0.0,0.0,0.0,0.0,0.0,0.0,0.0,0.0,0.0,0.0,0.0,0.0,0.0,0.0,0.0,0.0,0.0,0.0,0.0,0.0,0.0,0.0,0.0,0.0,0.0,0.0,0.0,0.0,0.0,0.0,0.0,0.0,0.0,0.0,0.0,0.0,0.0,0.0,0.0,0.0,0.0,0.0,0.0,0.0,0.0,0.0,0.0,0.0,0.0,0.0,0.0,0.0,0.0,0.0,0.0,0.0,0.0,0.0,0.0,0.0,0.0,0.0,0.0,0.0,0.0,0.0,0.0,0.0,0.0,0.0,0.0,0.0,0.0,0.0,0.0,0.0,0.0,0.0,0.0,0.0,0.0,0.0,0.0,0.0,0.0,0.0,0.0,0.0,0.0,0.0,0.0,0.0,0.0,0.0,1.409,1.5069,1.5711,1.6321,1.5928,1.5588,1.5588,1.3632,1.229,0.0,0.0,0.0,0.0,0.0,0.0,0.0,0.0,0.0,0.0,0.0,0.0,0.0,0.0,0.0,0.0,0.0,0.0,0.0,0.0,0.0,0.0,0.0,0.0,0.0,0.0,0.0,0.0,0.0,0.0,0.0,0.0,0.0,0.0,0.0,0.0,0.0,0.0,0.0,0.0,0.0,0.0,0.0,0.0,0.0,0.0,0.0,0.0,0.0,0.0,0.0,0.0,0.0,0.0,0.0,0.0,0.0,0.0,0.0,0.0,0.0,0.0,0.0,0.0,0.0,0.0,0.0,0.0,0.0,0.0,0.0,0.0,0.0,0.0,0.0,0.0,0.0,0.0,0.0,0.0,0.0,0.0,0.0,0.0,0.0,0.0,0.0,0.0,0.0,0.0,0.0,0.0,0.0,0.0,0.0,0.0,0.0,0.0,0.0,0.0,0.0,0.0,0.0,1.2291,1.3338,1.4216,1.5115,1.505,1.4971,1.4971,1.3741,1.2366,1.0904,0.0,0.0,0.0,0.0,0.0,0.0,0.0,0.0,0.0,0.0,0.0,0.0,0.0,0.0,0.0,0.0,0.0,0.0,0.0,0.0,0.0,0.0,0.0,0.0,0.0,0.0,0.0,0.0,0.0,0.0,0.0,0.0,0.0,0.0,0.0,0.0,0.0,0.0,0.0,0.0,0.0,0.0,0.0,0.0,0.0,0.0,0.0,0.0,0.0,0.0,0.0,0.0,0.0,0.0,0.0,0.0,0.0,0.0,0.0,0.0,0.0,0.0,0.0,0.0,0.0,0.0,0.0,0.0,0.0,0.0,0.0,0.0,0.0,0.0,0.0,0.0,0.0,0.0,0.0,0.0,0.0,0.0,0.0,0.0,0.0,0.0,0.0,0.0,0.0,0.0,0.0,0.0,0.0,0.0,0.0,0.0,0.0,0.0,0.0,0.0,0.0,0.0,1.1528,1.2625,1.3473,1.4277,1.4329,1.4329,1.4329,1.3226,1.1959,1.0509,0.0,0.0,0.0,0.0,0.0,0.0,0.0,0.0,0.0,0.0,0.0,0.0,0.0,0.0,0.0,0.0,0.0,0.0,0.0,0.0,0.0,0.0,0.0,0.0,0.0,0.0,0.0,0.0,0.0,0.0,0.0,0.0,0.0,0.0,0.0,0.0,0.0,0.0,0.0,0.0,0.0,0.0,0.0,0.0,0.0,0.0,0.0,0.0,0.0,0.0,0.0,0.0,0.0,0.0,0.0,0.0,0.0,0.0,0.0,0.0,0.0,0.0,0.0,0.0,0.0,0.0,0.0,0.0,0.0,0.0,0.0,0.0,0.0,0.0,0.0,0.0,0.0,0.0,0.0,0.0,0.0,0.0,0.0,0.0,0.0,0.0,0.0,0.0,0.0,0.0,0.0,0.0,0.0,0.0,0.0,0.0,0.0,0.0,0.0,0.0,0.0,0.0,1.1383,1.2501,1.327,1.3684,1.3732,1.3732,1.3732,1.2358,1.1233,1.053,0.0,0.0,0.0,0.0,0.0,0.0,0.0,0.0,0.0,0.0,0.0,0.0,0.0,0.0,0.0,0.0,0.0,0.0,0.0,0.0,0.0,0.0,0.0,0.0,0.0,0.0,0.0,0.0,0.0,0.0,0.0,0.0,0.0,0.0,0.0,0.0,0.0,0.0,0.0,0.0,0.0,0.0,0.0,0.0,0.0,0.0,0.0,0.0,0.0,0.0,0.0,0.0,0.0,0.0,0.0,0.0,0.0,0.0,0.0,0.0,0.9408,0.0,0.0,0.0,0.0,0.0,0.0,0.0,0.0,0.0,0.0,0.0,0.0,0.0,0.0,0.0,0.0,0.0,0.0,0.0,0.0,0.0,0.0,0.0,0.0,0.0,0.0,0.0,0.0,0.0,0.0,0.0,0.0,0.0,0.0,0.0,0.0,0.0,0.0,0.0,0.0,0.0,1.0439,1.1669,1.2599,1.3054,1.3104,1.3104,1.3104,1.1777,1.0624,0.9798,0.8337,0.0,0.0,0.0,0.0,0.0,0.0,0.0,0.0,0.0,0.0,0.0,0.0,0.0,0.0,0.0,0.0,0.0,0.0,0.0,0.0,0.0,0.0,0.0,0.0,0.0,0.0,0.0,0.0,0.0,0.0,0.0,0.0,0.0,0.0,0.0,0.0,0.0,0.0,0.0,0.0,0.0,0.0,0.0,0.0,0.0,0.0,0.0,0.0,0.0,0.0,0.0,0.0,0.0,0.0,0.0,0.0,0.0,0.0,0.0,0.0,0.9436,0.0,0.0,0.0,0.0,0.0,0.0,0.0,0.0,0.0,0.0,0.0,0.0,0.0,0.0,0.0,0.0,0.0,0.0,0.0,0.0,0.0,0.0,0.0,0.0,0.0,0.0,0.0,0.0,0.0,0.0,0.0,0.0,0.0,0.0,0.0,0.0,0.0,0.0,0.0,0.0,1.0026,1.1368,1.2242,1.2355,1.2344,1.2246,1.19,1.0924,0.9995,0.934,0.7987,0.0,0.0,0.0,0.0,0.0,0.0,0.0,0.0,0.0,0.0,0.0,0.0,0.0,0.0,0.0,0.0,0.0,0.0,0.0,0.0,0.0,0.0,0.0,0.0,0.0,0.0,0.0,0.0,0.0,0.0,0.0,0.0,0.0,0.0,0.0,0.0,0.0,0.0,0.0,0.0,0.0,0.0,0.0,0.0,0.0,0.0,0.0,0.0,0.0,0.0,0.0,0.0,0.0,0.8051,0.8158,0.7874,0.7426,0.7619,0.8259,0.8901,0.9158,0.9108,0.0,0.0,0.0,0.0,0.0,0.0,0.0,0.0,0.0,0.0,0.0,0.0,0.0,0.0,0.0,0.0,0.0,0.0,0.0,0.0,0.0,0.0,0.0,0.0,0.0,0.8933,0.9103,0.0,0.0,0.0,0.0,0.0,0.0,0.0,0.0,0.0,0.0,0.0,0.0,0.976,1.1103,1.1873,1.163,1.1616,1.1416,1.0864,1.0058,0.9436,0.91,0.772,0.6751,0.0,0.0,0.0,0.0,0.0,0.0,0.0,0.0,0.0,0.0,0.0,0.0,0.0,0.0,0.0,0.0,0.0,0.0,0.0,0.0,0.0,0.0,0.0,0.0,0.0,0.0,0.0,0.0,0.0,0.0,0.0,0.0,0.1071,0.08,0.0,0.0,0.0,0.0,0.0,0.0,0.0,0.0,0.0,0.0,0.0,0.0,0.0,-0.5446,-0.592,-0.3409,-0.1552,-0.0326,0.3294,0.4448,0.3469,0.4835,0.5494,0.5726,0.8316,0.0,1.0067,0.9353,0.0,0.0,0.0,0.0,0.0,0.0,0.0,0.0,0.0,0.0,0.0,0.0,0.0,0.0,0.0,0.0,0.0,0.0,0.0,0.0,0.0,0.0,0.9433,0.929,0.9486,0.9642,0.0,0.9073,0.883,0.8305,0.7603,0.0,0.0,0.0,0.0,0.0,0.0,0.0,0.9146,1.0253,1.0965,1.0965,1.0914,1.0914,1.0813,0.9683,0.8997,0.8913,0.7829,0.6891,0.6226,0.5909,0.0,0.0,0.0,0.0,0.0,0.0,0.0,0.0,0.0,0.0,0.0,0.0,0.0,0.0,0.0,0.0,0.0,0.0,0.0,0.0,0.0,0.0,0.0,0.0,0.0,0.0,0.0,0.0,0.0,-0.3716,-0.3349,-0.2913,-0.3813,-0.3887,0.0,0.0,0.0,0.0,0.0,0.0,0.0,0.0,0.0,-1.2013,-1.2033,-1.1877,-1.1427,-0.9631,-0.811,-0.6905,-0.5018,-0.3139,-0.1265,0.0308,0.145,0.2332,0.4499,0.6017,0.7074,0.8072,0.8157,0.7591,0.0,0.0,0.0,0.0,0.8311,0.8735,1.0283,1.0547,0.0,0.0,0.0,0.0,0.0,0.0,0.0,0.0,0.0,0.0,0.0,0.0,0.0,0.9052,0.946,0.9681,0.919,0.9573,0.9628,0.0,0.8064,0.7866,0.7135,0.0,0.0,0.0,0.0,0.8668,0.9198,1.0156,1.0661,1.0261,1.0269,1.0064,0.9718,0.8833,0.8341,0.8341,0.7412,0.6722,0.6445,0.5875,0.5451,0.0,0.0,0.0,0.0,0.0,0.0,0.0,0.0,0.0,0.0,0.0,0.0,0.0,0.0,0.0,0.0,0.0,0.0,0.0,0.0,0.0,0.0,0.0,0.0,0.0,0.0,0.0,0.0,-0.7576,-0.7579,-0.6951,-0.8629,-0.9058,0.0,0.0,0.0,0.0,0.0,0.0,-1.5086,-1.634,-1.6478,-1.5146,-1.5556,-1.5539,-1.4961,-1.3559,-1.2435,-1.154,-1.1165,-0.9309,-0.6153,-0.4977,-0.3599,-0.2106,0.0109,0.1474,0.2429,0.6093,0.7133,0.6464,0.6041,0.587,0.5991,0.763,0.8372,0.8768,1.0513,1.1033,1.0784,0.9896,0.0,0.8142,0.7105,0.0,0.0,0.0,0.0,0.7769,0.8076,0.8317,0.8537,0.8758,0.9159,0.9413,0.891,0.9562,0.9834,0.0,0.8616,0.8648,0.7507,0.0,0.0,0.0,0.0,0.8643,0.908,0.9814,1.0115,0.9614,0.9562,0.9361,0.8857,0.827,0.7882,0.7882,0.7161,0.67,0.67,0.5932,0.553,0.552,0.0,0.0,0.0,0.0,0.0,0.0,0.0,0.0,0.0,0.0,0.0,0.0,0.0,0.0,0.0,0.0,0.0,0.0,0.0,0.0,0.0,0.0,0.0,0.0,0.0,0.0,0.0,0.0,0.0,-1.1509,-1.2931,0.0,0.0,0.0,0.0,-1.4693,-1.4944,-1.5242,-1.5471,-1.5216,-1.5234,-1.5646,-1.458,-1.4522,-1.5564,-1.3779,-1.3132,-1.3606,-1.2184,-1.1361,-1.1133,-1.0589,-0.9597,-0.805,-0.3785,-0.2713,-0.3299,0.3779,0.6375,0.5921,0.5501,0.5818,0.6532,0.6687,0.6933,0.738,0.7983,0.818,0.8277,0.8635,0.8387,0.7854,0.7399,0.7342,0.0,0.0,0.8353,0.8397,0.8691,0.8778,0.8791,0.8804,0.8804,0.8857,0.8811,0.8857,0.9047,0.0,0.9507,0.9332,0.9272,0.0,0.7862,0.7862,0.8178,0.8437,0.847,0.8727,0.891,0.8857,0.8857,0.8857,0.8804,0.827,0.7882,0.7882,0.7304,0.7001,0.7001,0.6433,0.6115,0.6058,0.5218,0.0,0.0,0.0,0.0,0.0,0.0,0.0,0.0,0.0,0.0,0.0,0.0,0.0,0.0,0.0,0.0,0.0,0.0,0.0,0.0,0.0,0.0,0.0,0.0,0.0,0.0,0.0,0.0,-1.6477,-1.765,0.0,-1.7587,-1.8428,-1.8659,-1.7825,-1.8573,-1.9085,-1.9163,-1.9036,-1.8967,-1.8982,-1.7978,-1.7327,-1.7152,-1.5484,-1.4527,-1.4299,-1.3338,-1.2444,-1.1616,-1.1032,-1.0632,-1.0394,-0.8233,-0.7236,-0.6786,-0.2346,0.0909,0.3079,0.289,0.385,0.5259,0.5245,0.5314,0.5681,0.7058,0.7556,0.7524,0.7388,0.7214,0.705,0.6871,0.6878,0.7087,0.7744,0.7588,0.7395,0.7966,0.7723,0.7503,0.799,0.8103,0.8209,0.8699,0.8804,0.8857,0.9106,0.9075,0.8936,0.8791,0.8588,0.843,0.8243,0.8464,0.8651,0.8651,0.8744,0.8804,0.8804,0.8804,0.8804,0.8804,0.827,0.7882,0.7882,0.7181,0.6747,0.6747,0.6179,0.5853,0.5848,0.515,0.4719,0.0,0.0,0.0,0.0,0.0,0.0,0.0,0.0,0.0,0.0,0.0,0.0,0.0,0.0,0.0,0.0,0.0,0.0,0.0,0.0,0.0,0.0,0.0,0.0,0.0,0.0,-1.8196,-1.9478,-2.0603,-2.1054,-2.0469,-2.135,-2.1635,-2.0825,-2.1497,-2.1789,-2.1375,-2.115,-2.0782,-2.0162,-1.9304,-1.8602,-1.8037,-1.6384,-1.5452,-1.5227,-1.4391,-1.3564,-1.2676,-1.2242,-1.2239,-1.2535,-1.1436,-1.0586,-0.9832,-0.7274,-0.4151,-0.0923,0.011,0.1498,0.3005,0.2968,0.3177,0.3784,0.5672,0.6348,0.6279,0.5991,0.6218,0.6539,0.6032,0.6136,0.6519,0.7128,0.6966,0.6696,0.7182,0.6966,0.6696,0.7235,0.7343,0.7509,0.8262,0.8209,0.8209,0.8699,0.8804,0.8744,0.8557,0.8684,0.8744,0.855,0.8684,0.8804,0.8804,0.8804,0.8804,0.8804,0.8804,0.8804,0.8804,0.827,0.7834,0.7637,0.7088,0.6659,0.6491,0.6061,0.5858,0.5858,0.5159,0.4714,0.4549,0.0,0.0,0.0,0.0,0.0,0.0,0.0,0.0,0.0,0.0,0.0,0.0,0.0,0.0,0.0,0.0,0.0,0.0,0.0,0.0,0.0,0.0,0.0,-1.7888,-1.8313,-1.9124,-2.0467,-2.174,-2.2332,-2.193,-2.3146,-2.3792,-2.3434,-2.349,-2.298,-2.1715,-2.1163,-2.0262,-1.895,-1.8242,-1.7963,-1.8131,-1.6443,-1.5867,-1.6391,-1.5309,-1.4744,-1.4744,-1.4744,-1.4709,-1.4595,-1.3273,-1.2645,-1.2493,-1.0507,-0.8222,-0.5765,-0.2785,-0.1051,-0.0221,-0.0166,0.0498,0.1666,0.3635,0.4359,0.4395,0.4369,0.5305,0.6218,0.4816,0.5082,0.5959,0.6426,0.6539,0.6534,0.6544,0.6539,0.6534,0.6588,0.6588,0.675,0.7503,0.7128,0.702,0.848,0.8752,0.8752,0.8804,0.8758,0.8752,0.8752,0.8752,0.0,0.8752,0.8752,0.8752,0.8804,0.8804,0.8804,0.8804,0.827,0.7685,0.7146,0.7033,0.6755,0.6209,0.6188,0.6189,0.6176,0.5304,0.4827,0.4821,0.0,0.0,0.0,0.0,0.0,0.0,0.0,0.0,0.0,0.0,0.0,0.0,0.0,0.0,0.0,0.0,0.0,0.0,0.0,0.0,0.0,0.0,-1.9685,-1.9682,-2.0891,-2.2142,-2.3198,-2.416,-2.4608,-2.428,-2.4563,-2.4507,-2.3866,-2.386,-2.3554,-2.2797,-2.2607,-2.2268,-2.1649,-2.0795,-1.9906,-1.9053,-1.8303,-1.741,-1.6497,-1.6544,-1.6133,-1.5365,-1.5365,-1.5096,-1.4698,-1.4275,-1.3882,-1.3365,-1.1759,-1.0474,-0.9119,-0.5942,-0.471,-0.4641,-0.3649,-0.2158,-0.061,-0.0055,0.1108,0.2218,0.1495,0.2218,0.3279,0.255,0.3498,0.4927,0.5197,0.5202,0.5199,0.5832,0.5545,0.5226,0.571,0.5819,0.5977,0.6745,0.675,0.6696,0.7128,0.7182,0.7557,0.8593,0.8374,0.7996,0.7996,0.7563,0.0,0.7943,0.7996,0.8209,0.8752,0.8804,0.8804,0.8804,0.827,0.7685,0.7146,0.6847,0.6465,0.5856,0.6085,0.6095,0.5838,0.5598,0.5364,0.0,0.0,0.0,0.0,0.0,0.0,0.0,0.0,0.0,0.0,0.0,0.0,0.0,0.0,0.0,0.0,0.0,0.0,0.0,0.0,0.0,0.0,-2.0855,-2.2136,-2.2531,-2.3166,-2.3896,-2.4758,-2.5263,-2.5488,-2.5304,-2.5213,-2.5004,-2.458,-2.4275,-2.3989,-2.3694,-2.3383,-2.2954,-2.2451,-2.1911,-2.1126,-2.0073,-1.9439,-1.8693,-1.7786,-1.7693,-1.7286,-1.6634,-1.6391,-1.6145,0.0,-1.5555,-1.5242,-1.4858,-1.3782,-1.2942,0.0,0.0,0.0,0.0,0.0,-0.4297,-0.2891,-0.2932,-0.2139,-0.1158,-0.1157,-0.0984,-0.058,0.0405,0.1507,0.2739,0.4274,0.4666,0.4728,0.515,0.4858,0.4601,0.4971,0.5062,0.5273,0.5982,0.5932,0.5882,0.648,0.6367,0.0,0.767,0.7509,0.7343,0.767,0.7074,0.675,0.7182,0.7235,0.7396,0.783,0.8156,0.8209,0.7883,0.8018,0.0,0.0,0.0,0.6222,0.5394,0.5761,0.0,0.0,0.0,0.0,0.0,0.0,0.0,0.0,0.5992,0.5977,0.0,0.0,0.0,0.0,0.0,0.0,0.0,0.0,0.0,0.0,0.0,0.0,0.0,0.0,0.0,0.0,-2.3198,-2.4635,-2.5476,-2.4983,-2.4797,-2.543,-2.5492,-2.5463,-2.5413,-2.5339,-2.5312,-2.5378,-2.4832,-2.451,-2.4571,0.0,0.0,0.0,0.0,-2.1824,-2.0975,-2.02,-1.9733,-1.9555,-1.8745,-1.8313,-1.8221,-1.776,-1.7518,-1.7463,-1.6909,-1.6582,-1.6466,-1.5864,-1.5264,-1.431,-1.0523,-0.8521,-0.7741,-0.7139,-0.6203,-0.5197,-0.5303,0.0,0.0,-0.3625,-0.4,-0.4442,-0.1777,-0.0733,0.0061,0.3011,0.4177,0.4442,0.4268,0.4226,0.4295,0.4455,0.4525,0.468,0.5273,0.4893,0.4846,0.6095,0.5819,0.5597,0.6367,0.6475,0.6691,0.7343,0.6858,0.6372,0.648,0.6475,0.6534,0.6588,0.0,0.0,0.6642,0.754,0.7286,0.5233,0.594,0.5996,0.5022,0.5441,0.5562,0.5274,0.5832,0.6259,0.656,0.6835,0.7168,0.7547,0.676,0.6532,0.0,0.0,0.0,0.0,0.0,0.0,0.0,0.0,0.0,0.0,0.0,0.0,0.0,0.0,0.0,-2.2488,-2.4119,-2.5327,-2.5576,-2.5502,-2.5488,-2.5574,-2.5531,-2.5463,-2.542,-2.5348,-2.5458,-2.5835,-2.5737,-2.5811,-2.6145,-2.5395,-2.4653,-2.3978,-2.3337,-2.2302,-2.0847,-2.1085,-2.062,-1.945,0.0,0.0,-1.9148,-1.9038,-1.8809,-1.8489,-1.7944,-1.7233,-1.6403,-1.584,-1.5509,-1.5071,-1.2236,-1.0378,-0.9304,-0.9556,-0.8741,-0.7515,-0.7866,-0.7318,-0.6464,-0.6515,-0.5984,-0.5147,-0.4391,-0.2936,0.0,-0.0546,0.0884,0.2164,0.2267,0.2468,0.2983,0.4203,0.4477,0.4529,0.468,0.457,0.457,0.4846,0.4787,0.4893,0.5597,0.5706,0.576,0.5923,0.5328,0.5113,0.5651,0.5706,0.5928,0.6534,0.675,0.675,0.6588,0.6639,0.6227,0.5328,0.5246,0.5346,0.5637,0.556,0.5414,0.5149,0.5451,0.5864,0.6277,0.6651,0.7195,0.7836,0.7669,0.7622,0.0,0.0,0.0,0.0,0.0,0.0,0.0,0.0,0.0,0.0,0.0,-1.9918,0.0,0.0,-2.3198,-2.4055,-2.4957,-2.5567,-2.5636,-2.5683,-2.5682,-2.5605,-2.5547,-2.5463,-2.5413,-2.5339,-2.5568,-2.6257,-2.6203,-2.6435,-2.7056,-2.6488,-2.5939,-2.5479,-2.4536,-2.358,-2.2621,-2.2106,-2.1467,-2.0767,-2.0637,-2.0471,-2.0206,-2.0292,-2.0218,-2.0047,-1.9883,-1.9495,-1.8933,-1.8097,-1.7537,-1.7054,-1.52,-1.3671,-1.2483,-1.2169,-1.1288,-1.0243,-1.0182,-0.9513,-0.8554,-0.8393,-0.7901,-0.7154,-0.6349,-0.5167,-0.3964,-0.3228,-0.2292,-0.1279,-0.0408,0.0058,0.068,0.1955,0.2615,0.3287,0.4301,0.4525,0.4525,0.4525,0.4522,0.4629,0.4956,0.5007,0.5113,0.5433,0.4948,0.4625,0.4948,0.5003,0.5167,0.55,0.5878,0.5928,0.555,0.5328,0.5224,0.5276,0.4754,0.461,0.4894,0.5101,0.5151,0.5005,0.5424,0.5748,0.6008,0.6353,0.6679,0.7037,0.7578,0.7935,0.0,0.0,0.0,0.0,0.0,0.0,0.0,0.0,-1.8992,-2.0034,-2.1325,-2.2488,-2.3187,-2.3939,-2.4696,-2.5401,-2.5561,-2.5611,-2.5683,-2.5683,-2.566,-2.5605,-2.5547,-2.5477,-2.5383,-2.5484,-2.5889,-2.6713,-2.6771,-2.714,-2.7951,-2.7495,-2.7065,-2.6733,-2.56,-2.4869,-2.4637,-2.3084,-2.2395,-2.2549,-2.1718,-2.1417,-2.158,-2.1679,-2.1729,-2.1783,-2.1763,-2.1698,-2.1529,-2.059,-2.002,-1.9571,-1.8655,-1.7654,-1.6519,-1.4938,-1.3802,-1.3002,-1.2728,-1.2065,-1.1185,-1.0408,-1.0039,-0.9649,-0.8297,-0.7443,-0.6648,-0.5501,-0.4961,-0.4473,-0.3031,-0.2371,-0.1778,-0.0559,0.05,0.1721,0.3514,0.4252,0.4484,0.448,0.4245,0.4128,0.4421,0.4473,0.468,0.5218,0.4842,0.4519,0.4519,0.4519,0.4519,0.4519,0.5003,0.5109,0.4574,0.4358,0.4495,0.5121,0.4477,0.4107,0.4107,0.453,0.4761,0.4761,0.5246,0.5538,0.5686,0.5942,0.6147,0.6312,0.7089,0.7769,-1.5599,-1.5318,-1.5589,-1.862,-1.8421,-1.8633,0.0,0.0,-2.2692,-2.4339,-2.483,-2.5006,-2.5166,-2.5284,-2.5405,-2.5551,-2.5598,-2.5611,-2.5683,-2.5658,-2.5605,-2.5601,-2.5547,-2.5453,-2.5312,-2.6005,-2.671,-2.7351,-2.8107,-2.8802,-2.9427,-2.8749,-2.809,-2.7582,-2.6066,-2.5314,-2.5443,-2.3866,-2.3428,-2.4141,-2.3016,-2.2873,-2.3567,-2.3308,-2.3331,-2.3538,-2.2679,-2.2046,-2.1568,-2.1452,-2.1695,-2.2111,-2.1987,-2.1816,-2.1287,-1.7903,-1.6138,-1.5481,-1.5787,-1.533,-1.4541,-1.3773,-1.3015,-1.2198,-1.1017,-0.9551,-0.8183,-0.7665,-0.6662,-0.5521,-0.4512,-0.4184,-0.368,-0.1777,-0.0555,0.05,0.161,0.3239,0.449,0.448,0.3405,0.2901,0.4252,0.4477,0.4529,0.4629,0.4574,0.4519,0.4519,0.4519,0.4519,0.4519,0.457,0.457,0.4519,0.4501,0.4494,0.4601,0.4477,0.4467,0.4467,0.4343,0.4275,0.4275,0.4323,0.4684,0.5349,0.553,0.5892,0.6548,0.6681,0.7111,-1.8892,-1.9041,-1.9241,-2.112,-2.1483,-2.1931,-2.3995,-2.4032,-2.3949,-2.5147,-2.5428,-2.5471,-2.5484,-2.5539,-2.5564,0.0,-2.5634,-2.5662,-2.5703,-2.5682,-2.5637,-2.5603,-2.5587,-2.5513,-2.5371,-2.5659,-2.6378,-2.7647,-2.8056,-2.8817,-3.0037,-2.9631,-2.9279,-2.9039,-2.7662,-2.6982,-2.7065,-2.5141,-2.4359,-2.4682,-2.3554,-2.3418,-2.4208,-2.4487,-2.5086,-2.5839,-2.5178,-2.4783,-2.4522,-2.3872,-2.3725,-2.3912,-2.3223,-2.2986,-2.2688,-2.0407,-1.9133,-1.8524,-1.7894,-1.7476,-1.7005,-1.5816,-1.4897,-1.4083,-1.3118,-1.1913,-1.0726,-0.9805,-0.8786,-0.7678,-0.6612,-0.5684,-0.4769,-0.3542,-0.2943,-0.2169,-0.061,0.0889,0.2119,0.3014,0.3355,0.3755,0.4383,0.3752,0.3463,0.4369,0.4525,0.4519,0.4519,0.4519,0.4519,0.4519,0.4519,0.4519,0.4519,0.4519,0.4519,0.4519,0.4519,0.4519,0.4519,0.4406,0.4372,0.4372,0.4372,0.4534,0.485,0.4918,0.5062,0.5391,0.5764,0.614,-2.0864,-2.1331,-2.1773,-2.287,-2.3629,-2.4168,-2.4379,-2.4485,-2.4703,-2.5298,-2.5488,-2.5539,-2.5554,-2.5598,-2.5633,-2.5633,-2.5662,-2.5703,-2.5703,-2.5683,-2.5659,-2.5603,-2.5573,-2.5539,-2.5434,-2.5584,-2.6304,-2.7807,-2.8123,-2.8871,-3.0321,-3.0209,-3.0047,-2.9924,-2.8796,-2.8259,-2.8344,-2.6362,-2.5488,-2.5687,-2.4544,-2.4421,-2.518,-2.5861,-2.6644,-2.7439,-2.7019,-2.6939,-2.6937,-2.5884,-2.5509,-2.553,-2.4618,-2.4182,-2.3923,-2.2992,-2.2124,-2.1172,-2.0051,-1.9572,-1.9175,-1.777,-1.6804,-1.6007,-1.4917,-1.3962,-1.2972,-1.1615,-1.0489,-0.9432,-0.8209,-0.7036,-0.5864,-0.498,-0.4615,-0.4125,-0.2668,-0.1779,-0.0779,0.089,0.2287,0.3363,0.3822,0.2968,0.274,0.4271,0.4141,0.4015,0.4467,0.4519,0.4519,0.4519,0.4519,0.4519,0.4519,0.4519,0.4519,0.4519,0.4519,0.4519,0.4519,0.4519,0.4519,0.4519,0.4519,0.4519,0.4519,0.4519,0.4519,0.4519,0.5003,0.5218,-2.0534,-2.0908,-2.1908,-2.3629,-2.4072,-2.4302,-2.5101,-2.5327,-2.5388,-2.5473,-2.5551,-2.5629,-2.5683,-2.5703,-2.5703,-2.5703,-2.5703,-2.5703,-2.5703,-2.5637,-2.5603,-2.5601,-2.5547,-2.5493,0.0,-2.6204,-2.7036,-2.7926,-2.8656,-2.9448,-3.034,-3.0398,-3.0188,-2.9731,-2.8919,-2.8652,-2.8962,-2.7343,-2.694,-2.7714,-2.6545,-2.6399,-2.715,-2.762,-2.7844,-2.7869,-2.7457,-2.75,-2.7811,-2.6987,-2.6889,-2.7192,-2.6757,-2.6315,-2.5924,-2.5872,-2.4736,-2.3152,-2.2598,-2.1992,-2.1315,-2.0029,-1.9153,-1.8235,-1.6407,-1.5369,-1.4512,-1.2883,-1.1489,-1.0171,-0.8969,-0.8171,-0.7283,-0.5814,-0.4984,-0.4491,-0.4415,-0.4373,-0.3752,-0.1778,-0.0556,0.0614,0.2007,0.2237,0.2747,0.4284,0.3249,0.279,0.4311,0.4525,0.4519,0.4519,0.4519,0.4519,0.4519,0.4519,0.4519,0.4519,0.4519,0.4519,0.4519,0.4519,0.4519,0.4519,0.4519,0.4519,0.4519,0.4519,0.4519,0.4519,0.4515,0.4515,-2.2581,-2.3032,-2.3485,-2.462,-2.4909,-2.4966,-2.5245,-2.5383,-2.5463,-2.5508,-2.5127,-2.4998,-2.5586,-2.5234,-2.5039,-2.5605,-2.5703,-2.5703,-2.5703,-2.6171,-2.6306,-2.5739,-2.6166,0.0,0.0,0.0,0.0,-2.7951,-2.8272,-2.8975,-3.0395,-3.0417,-3.033,-3.0174,-2.9736,-2.9496,-2.9456,-2.839,-2.7847,-2.7787,-2.7405,-2.736,-2.7611,-2.8034,-2.8237,-2.821,-2.7851,-2.7765,-2.7869,-2.7589,-2.7577,-2.7678,-2.753,-2.7391,-2.7251,-2.7251,-2.6879,-2.6084,-2.4271,-2.3483,-2.3125,-2.1917,-2.0815,-1.9712,-1.873,-1.7276,-1.571,-1.4588,-1.3277,-1.1913,-1.0438,-0.9207,-0.8112,-0.7171,-0.6027,-0.5156,-0.5167,-0.4802,-0.4311,-0.3627,-0.3239,-0.2178,0.0335,0.0726,0.123,0.2753,0.2519,0.2736,0.432,0.448,0.4473,0.4473,0.4522,0.4519,0.4519,0.4519,0.4519,0.4519,0.4519,0.4519,0.4519,0.4519,0.4519,0.4519,0.4519,0.4519,0.4519,0.4519,0.4519,0.4519,0.4519,0.4519,-2.3802,-2.411,-2.4302,-2.5101,-2.5303,-2.5322,-2.5321,-2.5415,-2.542,-2.5126,-2.4711,-2.4473,-2.4766,-2.4355,-2.4258,-2.5098,-2.5234,-2.5449,-2.6074,-2.6641,-2.6914,-2.666,-2.7129,-2.7246,0.0,0.0,0.0,-2.8052,-2.8353,-2.9086,-3.0421,-3.0462,-3.0375,-3.0267,-3.0089,-2.9908,-2.9713,-2.9202,-2.8745,-2.8363,-2.8363,-2.8319,-2.8246,-2.8512,-2.8615,-2.859,-2.8237,-2.8174,-2.8255,-2.801,-2.7982,-2.8075,-2.7954,-2.7897,-2.7897,-2.7897,-2.7897,-2.7625,-2.5697,-2.4707,-2.4123,-2.3065,-2.1987,-2.0899,-1.9842,-1.8794,-1.7588,-1.6,-1.4705,-1.3499,-1.1903,-1.0671,-0.9489,-0.833,-0.7315,-0.6445,-0.5647,-0.5171,-0.4798,-0.4529,-0.4484,-0.3866,-0.1952,-0.0726,0.0335,0.1288,0.1398,0.1788,0.274,0.3355,0.3916,0.4428,0.4477,0.4525,0.4525,0.4519,0.4519,0.4519,0.4519,0.4519,0.4519,0.4519,0.4519,0.4519,0.4519,0.4519,0.4519,0.4519,0.4519,0.4519,0.4519,0.4519,-2.411,-2.4129,-2.4341,-2.512,-2.5293,-2.5331,-2.5395,-2.542,-2.5219,-2.4403,-2.4213,-2.3965,0.0,0.0,-2.3398,-2.4219,-2.4414,-2.5059,-2.6758,-2.7031,-2.7363,0.0,0.0,0.0,0.0,0.0,0.0,-2.8276,0.0,-2.9726,-3.0466,-3.0507,-3.0344,-3.0042,-3.0028,-2.9924,-2.9731,-2.9713,-2.9607,-2.9434,-2.9414,-2.9289,-2.904,-2.904,-2.904,-2.9021,-2.8621,-2.8688,-2.8975,-2.829,-2.8166,-2.8402,-2.8112,-2.7992,-2.7982,-2.7982,-2.7992,-2.7844,-2.6928,-2.5748,-2.4443,-2.3563,-2.2827,-2.1963,-2.0097,-1.9982,-1.9902,-1.7123,-1.5807,-1.4889,-1.3223,-1.226,-1.1247,-0.929,-0.8731,-0.8146,-0.6126,-0.5592,-0.5328,-0.468,-0.4525,-0.448,-0.448,-0.212,-0.0223,-0.0112,-0.0056,-0.0,-0.0,0.1228,0.2625,0.4098,0.4317,0.4421,0.448,0.4525,0.4519,0.4519,0.4519,0.4519,0.4519,0.4519,0.4519,0.4519,0.4519,0.4519,0.4519,0.4519,0.4519,0.4519,0.4519,0.4519,-2.411,-2.4543,-2.5043,-2.5245,-2.5339,-2.5376,-2.5406,-2.4992,-2.4378,-2.3567,-2.2436,-2.1504,0.0,0.0,0.0,-2.3379,-2.4551,0.0,-2.6855,-2.7559,0.0,-2.8262,0.0,-2.9004,-2.8359,-2.8887,0.0,0.0,-2.9391,-2.9815,-3.0598,-3.0547,-3.0452,-3.0384,-3.0333,-3.0182,-2.9924,-2.9763,-2.9765,-2.9845,-2.9696,-2.9607,-2.9514,-2.9514,-2.9514,-2.9514,-2.9419,-2.9438,-2.9514,-2.9322,-2.9198,-2.9148,-2.9221,-2.9138,-2.9038,-2.9038,-2.9114,-2.9103,-2.8216,-2.7137,-2.6078,-2.5749,-2.4811,-2.374,-2.3137,-2.1742,-2.0138,-1.8682,-1.7129,-1.5418,-1.3326,-1.2667,-1.2122,-1.0637,-0.9459,-0.8574,-0.7988,-0.6607,-0.5433,-0.5273,-0.4849,-0.448,-0.448,-0.3863,-0.2965,-0.1785,-0.0726,-0.0,-0.0,0.0335,0.0726,0.1116,0.212,0.3241,0.4376,0.448,0.4473,0.4473,0.4522,0.4519,0.4519,0.4519,0.4519,0.4519,0.4519,0.4519,0.4519,0.4519,0.4519,0.4519,0.4519,0.4519,-2.462,-2.4966,-2.5303,-2.5303,-2.5321,-2.5263,-2.4943,-2.4277,-2.3397,-2.2234,-2.0955,-1.9902,-1.9531,-2.0488,-2.1602,0.0,0.0,0.0,-2.6816,-2.7754,-2.8437,0.0,-2.9648,0.0,-2.9492,-2.9883,-3.0176,0.0,-3.0133,-3.0298,-3.0677,-3.0638,-3.0554,-3.0507,-3.0472,-3.0356,-3.0182,-3.0066,-3.0003,-2.9999,-2.9893,-2.978,-2.9696,-2.9696,-2.9696,-2.9696,0.0,-2.9696,-2.9696,-2.9696,-2.9625,-2.9533,-2.9643,-2.9625,-2.9532,-2.9532,-2.9607,-2.9586,-2.8693,-2.775,-2.6908,-2.6685,-2.585,-2.4818,-2.4442,-2.3328,-2.1883,-2.0399,-1.8672,-1.6898,-1.5128,-1.4163,-1.329,-1.1984,-1.083,-0.9908,-0.9283,-0.7976,-0.6607,-0.5701,-0.4952,-0.4473,-0.4473,-0.448,-0.4203,-0.3352,-0.2516,-0.151,-0.0168,-0.0,-0.0,-0.0,0.0726,0.1562,0.246,0.3352,0.4024,0.4477,0.4525,0.4519,0.4519,0.4519,0.4519,0.4519,0.4519,0.4519,0.4519,0.4519,0.4519,0.4519,0.4519,0.4519,-2.5303,-2.5303,-2.5303,-2.5303,-2.5322,-2.5117,-2.4363,-2.3499,-2.238,-2.076,-1.9648,-1.8691,-1.7812,-1.918,-2.0703,-2.1582,0.0,-2.5019,-2.6758,-2.7754,-2.8613,-2.9492,-3.0371,-3.0898,-3.0898,-3.0898,-3.0898,-3.0898,-3.0898,-3.0857,-3.0723,-3.0718,-3.0633,-3.0532,-3.0507,-3.0463,-3.0414,-3.039,-3.0279,-3.0042,-3.0042,-2.9954,-2.9799,-2.9799,-2.9799,-2.9799,0.0,0.0,-2.9799,-2.9799,-2.9782,-2.9729,-2.9782,-2.9782,-2.9729,-2.9616,-2.9595,-2.9479,-2.8563,-2.7733,-2.705,-2.6808,-2.6152,-2.5359,-2.4934,-2.4564,-2.3947,-2.2121,-2.0333,-1.8698,-1.7491,-1.6126,-1.4687,-1.346,-1.2522,-1.1589,-1.0394,-0.9386,-0.8094,-0.6023,-0.5113,-0.4625,-0.4625,-0.4581,-0.4477,-0.4477,-0.4494,-0.3482,-0.067,-0.0112,-0.0,-0.0,-0.0,-0.0,-0.0,0.1615,0.3123,0.4428,0.4473,0.4519,0.4519,0.4519,0.4519,0.4519,0.4519,0.4519,0.4519,0.4519,0.4519,0.4519,0.4519,0.4519,-2.5303,-2.5303,-2.5303,-2.5303,-2.5339,-2.5166,-2.4374,-2.3061,0.0,-1.9862,-1.8262,-1.6875,-1.6016,-1.7852,-1.9805,-2.0684,-2.2832,-2.5019,-2.6758,-2.7754,-2.8613,0.0,-3.0371,-3.0898,-3.0898,-3.0898,0.0,0.0,0.0,-3.0898,-3.0878,-3.0767,-3.065,-3.0587,-3.0529,-3.049,-3.0491,-3.0428,-3.0386,-3.0323,-3.0323,-3.0311,-3.0286,-3.0286,-3.0286,-3.0286,-3.0286,0.0,-3.0286,-3.0286,-3.0155,-2.9969,-3.0182,-3.0136,-2.9878,-2.9193,-2.9063,-2.904,-2.7827,-2.698,-2.6451,-2.6401,-2.583,-2.5316,-2.609,-2.4964,-2.3385,-2.326,-2.1618,-1.9621,-1.8089,-1.7169,-1.6397,-1.5292,-1.3814,-1.257,-1.2308,-1.0394,-0.8265,-0.6686,-0.5819,-0.5324,-0.5324,-0.4842,-0.4522,-0.4522,-0.4477,-0.386,-0.2063,-0.0727,-0.0,-0.0,-0.0,-0.0,-0.0,0.0335,0.1676,0.4337,0.4487,0.4477,0.4477,0.4522,0.4519,0.4519,0.4519,0.4519,0.4519,0.4519,0.4519,0.4519,0.4519,0.4519,-2.5303,-2.5303,-2.5303,-2.5303,-2.5312,-2.4927,-2.327,0.0,0.0,-1.8377,-1.6914,-1.5898,-1.5488,-1.7168,-1.8906,-1.9785,-2.1719,-2.3691,-2.541,-2.6797,-2.7949,-2.8828,-3.0098,-3.0898,0.0,-3.0898,0.0,0.0,0.0,-3.0898,-3.0898,-3.0771,-3.0687,-3.0642,-3.0587,-3.054,-3.054,-3.0532,-3.0498,-3.0498,-3.0498,-3.0498,-3.0498,-3.0498,-3.0498,-3.0498,-3.0498,0.0,-3.0442,-3.0442,-3.0356,-3.0209,-3.0355,-3.0035,-2.9481,-2.9098,-2.8756,-2.831,-2.7262,-2.6708,-2.6369,-2.5797,-2.5539,-2.5554,-2.6271,-2.5358,-2.4025,-2.3813,-2.2314,-2.0527,-1.9596,-1.8224,-1.6952,-1.6439,-1.4789,-1.3215,-1.287,-1.0898,-0.8926,-0.7894,-0.6509,-0.5487,-0.5487,-0.4948,-0.4519,-0.4519,-0.4473,-0.4252,-0.3519,-0.1396,-0.0,-0.0,-0.0,-0.0,-0.0,-0.0,0.0614,0.2071,0.2905,0.3688,0.4477,0.4473,0.4525,0.4519,0.4519,0.4519,0.4519,0.4519,0.4519,0.4519,0.4519,0.4519,-2.5303,-2.5303,-2.5303,-2.5303,-2.5168,-2.4454,-2.2219,-2.0881,-1.9473,-1.7165,-1.6016,-1.5391,-1.5391,-1.668,-1.8066,0.0,-2.0605,-2.2266,-2.4141,-2.5742,-2.7109,0.0,-2.9668,0.0,-3.0879,-3.0898,0.0,0.0,0.0,0.0,-3.0898,-3.0793,-3.0745,-3.0745,-3.0661,-3.0628,-3.0628,-3.0611,-3.0606,-3.0606,-3.0606,-3.0606,-3.0586,-3.0405,-3.0327,-3.0308,-3.0133,0.0,0.0,-3.0242,-3.0326,-3.0422,-3.0248,-2.9746,-2.909,-2.8743,-2.8203,-2.7527,-2.6641,-2.6333,-2.6177,-2.534,-2.5267,-2.5626,-2.6055,-2.5476,-2.4608,-2.4232,-2.2884,-2.1512,-2.1189,-1.9476,-1.7752,-1.7223,-1.5533,-1.3758,-1.2966,-1.1405,-0.9893,-0.9096,-0.7458,-0.6072,-0.5814,-0.5167,-0.468,-0.4515,-0.4525,-0.4477,-0.448,-0.2454,-0.0726,-0.0056,-0.0,-0.0,-0.0,-0.0,-0.0,-0.0,0.106,0.2287,0.3463,0.4141,0.4477,0.4522,0.4519,0.4519,0.4519,0.4519,0.4519,0.4519,0.4519,0.4519,-2.5303,-2.5303,-2.5303,-2.5303,-2.4755,-2.3769,-2.2084,0.0,-1.8737,-1.7049,-1.6016,-1.5391,-1.5391,-1.6172,-1.7363,-1.9023,-2.0098,-2.1582,-2.4043,-2.5215,-2.6445,-2.8105,0.0,0.0,-3.082,-3.0898,0.0,0.0,0.0,0.0,-3.0898,-3.0898,-3.0879,-3.0879,-3.0767,-3.069,-3.069,-3.0638,-3.0606,-3.0606,-3.0606,-3.0606,-3.0567,-2.9783,-2.9427,-2.9388,-2.8643,0.0,0.0,-2.9415,-2.9862,-3.0503,-2.9719,-2.9344,-2.9091,-2.7575,-2.6928,-2.6699,-2.5817,-2.5462,-2.5399,-2.5293,-2.5187,-2.5151,-2.5607,-2.4968,-2.4165,-2.4667,-2.3742,-2.2478,-2.2062,-2.1203,-1.9882,-1.7634,-1.5806,-1.4272,-1.3062,-1.2181,-1.1258,-0.9953,-0.9006,-0.7994,-0.674,-0.5873,-0.5218,-0.457,-0.4519,-0.4522,-0.4477,-0.4252,-0.3014,-0.0279,-0.0,-0.0,-0.0,-0.0,-0.0,-0.0,0.0112,0.0279,0.0391,0.307,0.448,0.4477,0.4522,0.4519,0.4519,0.4519,0.4519,0.4519,0.4519,0.4519,-2.5168,-2.5303,-2.5303,-2.5303,-2.4696,-2.3535,-2.1404,-2.0017,-1.8537,-1.6366,-1.5644,-1.5391,-1.5391,-1.5684,-1.6328,-1.7539,-1.8027,-1.916,-2.1758,-2.3281,-2.498,-2.7246,-2.875,0.0,0.0,0.0,0.0,0.0,0.0,0.0,-3.0156,-3.0605,-3.0898,-3.0898,-3.0857,-3.0816,-3.0816,-3.0261,-3.0001,-2.9982,-2.9472,-2.9218,-2.9199,-2.8867,-2.868,-2.8629,-2.8346,0.0,0.0,-2.8557,-2.8723,-2.8931,-2.863,-2.8193,-2.7667,-2.7026,-2.6454,-2.5931,-2.5582,-2.5447,-2.5408,-2.5368,-2.5309,-2.5245,-2.5264,-2.481,-2.4321,-2.435,-2.3851,-2.3165,-2.2626,-2.1624,-2.028,-1.8145,-1.6881,-1.575,-1.4275,-1.311,-1.1994,-1.0661,-0.9467,-0.837,-0.7444,-0.6303,-0.5433,-0.5164,-0.4732,-0.4519,-0.4525,-0.4477,-0.403,-0.2852,-0.1062,-0.0,-0.0,0.1682,0.1908,0.0112,-0.0,-0.0,-0.0,0.1171,0.2623,0.4477,0.4473,0.4525,0.4519,0.4519,0.4519,0.4519,0.4519,0.4519,-2.4716,-2.512,-2.5303,-2.5303,-2.4519,-2.3153,-2.09,-1.9584,-1.8164,-1.5878,-1.5391,-1.5391,-1.5391,-1.5391,-1.5684,-1.6562,-1.6914,-1.8008,-2.0625,-2.2207,-2.4062,0.0,0.0,0.0,0.0,0.0,0.0,0.0,0.0,0.0,0.0,-2.9739,-3.0094,-3.0137,-3.0371,-3.0391,-3.0137,-2.9512,-2.9219,-2.9219,-2.8594,-2.8301,-2.8281,-2.8007,-2.7864,-2.7791,0.0,0.0,0.0,-2.7711,-2.7831,-2.7947,-2.7733,-2.7262,-2.6697,-2.6488,-2.6022,-2.5499,-2.5499,-2.55,-2.5498,-2.5421,-2.5406,-2.5348,-2.5146,-2.4872,-2.4586,-2.4227,-2.3866,-2.3414,-2.2848,-2.174,-2.0443,-1.898,-1.786,-1.676,-1.5496,-1.41,-1.2773,-1.1598,-1.0426,-0.9245,-0.8178,-0.7154,-0.6234,-0.5592,-0.5109,-0.4732,-0.4515,-0.4525,-0.448,-0.449,-0.2178,-0.0447,-0.0056,0.1964,0.2639,0.1401,0.1343,0.095,0.0056,0.0837,0.2122,0.3799,0.4252,0.4473,0.4519,0.4519,0.4519,0.4519,0.4519,0.4519,-2.3879,-2.4697,-2.5303,-2.5303,-2.4094,-2.2462,-2.0789,-1.9117,-1.7446,-1.5742,-1.5391,-1.5391,-1.5391,-1.5391,-1.5684,-1.6562,-1.7422,-1.8906,-2.1523,-2.2598,-2.4062,0.0,0.0,0.0,0.0,0.0,0.0,0.0,0.0,0.0,0.0,-2.8121,-2.8184,-2.832,-2.916,-2.9199,-2.834,-2.832,-2.8301,-2.8301,-2.8301,-2.8301,-2.8262,-2.7333,-2.691,0.0,0.0,0.0,0.0,-2.6877,-2.7381,-2.8004,-2.7143,-2.6807,-2.669,-2.5829,-2.5517,-2.5508,-2.5508,-2.5508,-2.5498,-2.5415,-2.5406,-2.5391,-2.5331,-2.5152,-2.4917,-2.4588,-2.3866,-2.3117,-2.2797,-2.174,-2.0687,-2.0291,-1.8596,-1.6978,-1.6481,-1.5016,-1.3569,-1.2918,-1.2239,-1.109,-0.9037,-0.8678,-0.7935,-0.5806,-0.5487,-0.5273,-0.457,-0.4519,-0.4522,-0.4477,-0.3125,-0.1563,-0.0112,0.0056,0.1289,0.4284,0.4455,0.3086,0.0112,0.2854,0.3755,0.2232,0.3744,0.4473,0.4519,0.4519,0.4519,0.4519,0.4519,0.4519,-2.15,-2.2165,-2.2646,-2.2082,-2.1117,-2.0031,-1.8939,-1.7857,-1.6766,-1.5625,-1.5408,-1.5406,-1.539,-1.5391,-1.5879,-1.7344,-1.7788,-1.8833,-2.1452,0.0,0.0,-2.5736,-2.7539,0.0,0.0,0.0,0.0,0.0,0.0,0.0,0.0,-2.7785,-2.8115,-2.8161,-2.8437,-2.8437,-2.8164,-2.7576,-2.7264,-2.7264,-2.6676,-2.6383,-2.6383,-2.6073,0.0,0.0,0.0,0.0,0.0,-2.5842,-2.6003,-2.616,-2.5919,-2.5842,-2.5829,-2.5571,-2.5496,-2.5503,-2.5503,-2.5531,-2.5566,-2.5494,-2.5509,-2.5522,-2.5406,-2.5197,-2.4937,-2.4588,-2.4137,-2.3648,-2.3171,-2.2574,-2.1786,-2.0508,-1.9682,-1.87,-1.6806,-1.599,-1.5038,-1.3137,-1.2628,-1.1984,-1.0391,-0.9356,-0.8462,-0.7776,-0.6886,-0.615,-0.5987,-0.5496,-0.4995,-0.4556,-0.407,-0.2736,-0.0224,-0.0,0.1286,0.4284,0.4507,0.4045,0.3135,0.2963,0.3186,0.3744,0.4252,0.4473,0.4519,0.4519,0.4519,0.4519,0.4519,0.4519,-1.9535,-2.0499,-2.1008,-2.0496,-1.973,-1.8885,-1.805,-1.7248,-1.6403,-1.5537,-1.5353,-1.5368,-1.5362,-1.5363,-1.5715,-1.681,-1.7493,-1.8685,0.0,0.0,0.0,-2.5277,0.0,0.0,0.0,0.0,0.0,0.0,0.0,0.0,0.0,-2.676,-2.7032,-2.7032,-2.7404,-2.7449,-2.7118,-2.6588,-2.6315,-2.6296,-2.5766,-2.5493,-2.5489,-2.5463,0.0,0.0,0.0,0.0,0.0,-2.5262,-2.5226,-2.5126,-2.5216,-2.5244,-2.5253,-2.5386,-2.5441,-2.5451,-2.5471,-2.5513,-2.5548,-2.5479,-2.5487,-2.5515,-2.543,-2.5202,-2.4962,-2.4752,-2.4366,-2.393,-2.3584,-2.3106,-2.2407,-2.1205,-2.0556,-1.9677,-1.7705,-1.6818,-1.5891,-1.4207,-1.3669,-1.31,-1.1796,-1.0814,-0.9893,-0.8829,-0.7947,-0.7219,-0.6691,-0.5982,-0.532,-0.4929,-0.4625,-0.3747,-0.1843,-0.067,0.1061,0.3479,0.4157,0.4494,0.449,0.3577,0.3519,0.448,0.448,0.4473,0.4519,0.4519,0.4519,0.4519,0.4519,0.4519,0.0,-1.9225,-1.991,-1.9804,-1.9202,-1.845,-1.7707,-1.6905,0.0,-1.5432,-1.5254,-1.5254,-1.5429,-1.5432,-1.5471,-1.5724,-1.7119,0.0,0.0,-2.2109,0.0,0.0,0.0,0.0,0.0,0.0,0.0,0.0,0.0,0.0,0.0,-2.5264,-2.5274,-2.5264,-2.6164,-2.6271,-2.5498,-2.5498,-2.5498,-2.5498,-2.5498,-2.5498,-2.5473,-2.5415,0.0,0.0,0.0,0.0,0.0,-2.5079,-2.4989,-2.4818,-2.4943,-2.4986,-2.501,-2.5192,-2.5311,-2.5372,-2.5364,-2.5428,-2.5474,-2.5428,-2.541,-2.541,-2.541,-2.5227,-2.5034,-2.5003,-2.455,-2.4044,-2.4007,-2.3392,-2.2652,-2.2207,-2.1191,-2.0039,-1.9075,-1.7652,-1.6378,-1.5796,-1.5186,-1.4365,-1.311,-1.2812,-1.1908,-0.9238,-0.8783,-0.8265,-0.6907,-0.6091,-0.5597,-0.5597,-0.4904,-0.4484,-0.4494,-0.1732,0.0558,0.1952,0.3583,0.449,0.448,0.448,0.4477,0.4477,0.4477,0.4473,0.4519,0.4519,0.4519,0.4519,0.4519,0.4519,-1.3807,0.0,-1.5357,-1.4717,-1.4374,-1.4328,0.0,-1.4228,-1.3943,-1.5079,-1.4766,-1.4904,-1.6848,-1.67,-1.7151,-1.976,0.0,0.0,-2.3056,0.0,0.0,0.0,0.0,0.0,0.0,0.0,0.0,0.0,0.0,0.0,0.0,-2.5018,-2.5018,-2.491,-2.5152,-2.5286,-2.5357,-2.5357,-2.5357,-2.5357,-2.5357,-2.5357,-2.5357,-2.5321,0.0,0.0,0.0,0.0,-2.4991,-2.5027,-2.4949,-2.4804,-2.4828,-2.4842,-2.4855,-2.4896,-2.4993,-2.5094,-2.5094,-2.5244,-2.5428,-2.5454,-2.5471,-2.5487,-2.5487,-2.5394,-2.5271,-2.513,-2.4848,-2.4516,-2.4118,-2.3728,-2.3218,-2.2327,-2.1864,-2.1252,-1.9738,-1.8792,-1.7838,-1.6494,-1.5752,-1.4994,-1.3805,-1.312,-1.222,-1.0543,-0.9843,-0.9235,-0.8368,-0.7128,-0.6367,-0.6367,-0.5226,-0.4473,-0.4494,-0.1732,0.0167,0.0502,0.3021,0.449,0.448,0.4525,0.4522,0.4522,0.4522,0.4522,0.4519,0.4519,0.4519,0.4519,0.4519,0.4519,-1.138,-1.3028,-1.4497,-1.4069,-1.4201,-1.4574,-1.5047,-1.4469,-1.4106,-1.507,-1.4873,-1.5091,-1.6876,-1.6842,-1.7408,0.0,-2.0779,0.0,0.0,0.0,0.0,0.0,0.0,0.0,0.0,0.0,0.0,0.0,0.0,0.0,0.0,-2.4883,-2.4864,-2.4804,-2.4804,-2.4902,-2.508,-2.508,-2.508,-2.508,-2.508,-2.508,-2.508,-2.508,-2.508,0.0,0.0,0.0,-2.4762,-2.4762,-2.4663,-2.4526,-2.4623,-2.4654,-2.467,-2.476,-2.4842,-2.4917,-2.4917,-2.5038,-2.5235,-2.5364,-2.5429,-2.5444,-2.5444,-2.5449,-2.542,-2.5287,-2.509,-2.4867,-2.455,-2.4155,-2.3687,-2.3111,-2.265,-2.1967,-2.0655,-1.984,-1.8899,-1.7437,-1.6705,-1.6003,-1.4812,-1.4111,-1.3253,-1.1886,-1.0906,-1.0012,-0.9361,-0.7711,-0.6588,-0.6588,-0.5336,-0.4525,-0.4487,-0.2345,-0.0446,0.095,0.2516,0.3749,0.4477,0.4525,0.4519,0.4519,0.4519,0.4519,0.4519,0.4519,0.468,0.4948,0.4948,0.5113,-1.0421,-1.2838,-1.519,-1.4798,-1.54,-1.6092,-1.6092,-1.5433,-1.4887,-1.5151,-1.5189,-1.5541,-1.6676,-1.6984,0.0,0.0,0.0,0.0,-2.3956,0.0,0.0,0.0,0.0,0.0,0.0,0.0,0.0,0.0,0.0,0.0,0.0,-2.4746,-2.4746,-2.4716,-2.4716,-2.4716,-2.4716,-2.4775,-2.4804,-2.4804,-2.4804,-2.4804,-2.4804,-2.4804,-2.4804,0.0,0.0,0.0,-2.4495,-2.4495,-2.4375,-2.4209,-2.4393,-2.4444,-2.4478,-2.4639,-2.4731,-2.476,-2.479,-2.4891,-2.5022,-2.5203,-2.532,-2.5413,-2.5413,-2.5453,-2.5488,-2.543,-2.5267,-2.5101,-2.5023,-2.4576,-2.41,-2.4026,-2.3386,-2.2573,-2.168,-2.0765,-1.9764,-1.8541,-1.7839,-1.7037,-1.5928,-1.532,-1.4492,-1.3014,-1.1747,-1.0661,-0.9917,-0.7913,-0.6588,-0.6588,-0.5336,-0.4522,-0.448,-0.3297,-0.1171,0.2015,0.2178,0.2901,0.4421,0.4522,0.4519,0.4519,0.4519,0.4519,0.4519,0.4519,0.4842,0.5487,0.5487,0.5873,-1.1891,-1.3735,-1.4709,-1.2545,-1.3152,-1.4302,-1.4302,-1.3667,-1.3489,-1.4907,-1.5189,-1.5907,-1.8184,-1.9215,-2.0273,0.0,0.0,-2.3889,0.0,0.0,0.0,0.0,0.0,0.0,0.0,0.0,0.0,0.0,0.0,0.0,0.0,-2.4444,-2.4461,-2.4303,-2.4284,-2.4284,-2.4284,-2.4623,-2.4804,-2.4804,-2.4804,-2.4804,-2.4804,-2.4804,-2.4804,0.0,0.0,-2.4685,-2.4495,-2.4495,-2.4375,-2.419,-2.4228,-2.4247,-2.4266,-2.4284,-2.441,-2.4559,-2.4746,-2.4891,-2.501,-2.5034,-2.5216,-2.5398,-2.5398,-2.5446,-2.5503,-2.5488,-2.5336,-2.5166,-2.5111,-2.4874,-2.4554,-2.4118,-2.3892,-2.3533,-2.2598,-2.145,-2.0398,-1.9832,-1.8757,-1.7612,-1.6464,-1.6219,-1.5384,-1.3137,-1.2113,-1.1132,-0.9961,-0.7913,-0.6588,-0.6588,-0.5336,-0.4525,-0.449,-0.4265,-0.2348,0.1909,0.2181,0.2899,0.4408,0.4519,0.4519,0.4519,0.4519,0.4519,0.4519,0.4519,0.4842,0.5487,0.5487,0.5873,-1.1079,-1.2868,-1.4198,-1.2946,-1.4673,-1.6753,-1.7114,-1.6544,-1.6296,-1.7538,-1.7786,-1.8291,-1.9887,0.0,-2.1301,-2.2917,0.0,0.0,0.0,0.0,0.0,0.0,0.0,0.0,0.0,0.0,0.0,0.0,0.0,0.0,0.0,0.0,-2.4303,-2.419,-2.419,-2.419,-2.419,-2.4192,-2.4301,-2.4478,-2.4478,-2.4478,-2.4478,-2.4478,-2.4478,-2.4478,0.0,-2.4409,-2.4339,-2.4339,-2.4191,-2.3917,-2.3917,-2.3816,-2.3692,-2.3858,-2.4096,-2.4357,-2.4578,-2.4682,-2.4752,-2.4864,-2.5015,-2.5178,-2.5178,-2.5232,-2.5311,-2.542,-2.5409,-2.5368,-2.5318,-2.5146,-2.4897,-2.4655,-2.4516,-2.4226,-2.3494,-2.2705,-2.1827,-2.0888,-1.9848,-1.8728,-1.7478,-1.6777,-1.5804,-1.41,-1.2946,-1.1975,-1.1015,-0.8665,-0.7149,-0.7149,-0.5542,-0.4525,-0.4487,-0.3752,-0.1673,0.1958,0.2965,0.3747,0.4463,0.4519,0.4519,0.4519,0.4519,0.4519,0.4519,0.4842,0.5382,0.6091,0.6524,0.7069,-1.0598,-1.2267,-1.3969,-1.4249,-1.6357,-1.8597,-1.9457,-1.898,-1.8658,-1.972,-2.0099,-2.0421,0.0,-2.1468,0.0,-2.3582,-2.4356,0.0,0.0,0.0,0.0,0.0,0.0,0.0,0.0,0.0,0.0,0.0,0.0,0.0,0.0,0.0,-2.419,-2.419,-2.419,-2.419,-2.419,-2.3955,-2.3917,-2.4074,-2.3996,-2.3976,-2.3976,-2.3976,-2.3976,-2.3976,-2.3976,-2.3976,-2.3976,-2.3976,-2.3816,-2.3588,-2.3588,-2.3414,-2.3212,-2.35,-2.3795,-2.4095,-2.4174,-2.4283,-2.4424,-2.4551,-2.4695,-2.4841,-2.4937,-2.4996,-2.506,-2.5215,-2.529,-2.5357,-2.5461,-2.5346,-2.519,-2.5127,-2.4985,-2.4738,-2.429,-2.3749,-2.303,-2.1902,-2.101,-1.9955,-1.847,-1.7531,-1.6481,-1.5129,-1.382,-1.2764,-1.2101,-0.9724,-0.7964,-0.7659,-0.6013,-0.4728,-0.4024,-0.3188,-0.1338,0.2007,0.3641,0.4487,0.4519,0.4625,0.468,0.4519,0.468,0.468,0.4519,0.5164,0.5869,0.6642,0.7343,0.8103,-1.2065,-1.3195,-1.4263,-1.5735,-1.6311,-1.687,-1.8278,-1.7971,-1.785,-1.9406,-2.0364,-2.0941,0.0,-2.2297,-2.3639,-2.4544,0.0,0.0,0.0,0.0,0.0,0.0,0.0,0.0,0.0,0.0,0.0,0.0,0.0,0.0,0.0,0.0,0.0,-2.419,-2.419,-2.419,-2.419,-2.417,-2.4016,-2.3735,-2.3414,-2.3259,-2.3259,-2.3259,-2.3259,-2.3259,-2.3259,-2.3259,-2.3259,-2.3259,-2.3259,-2.3253,-2.3253,-2.3212,-2.3189,-2.323,-2.3437,-2.3692,-2.3414,-2.3623,-2.4044,-2.4044,-2.4189,-2.4407,-2.4718,-2.4814,-2.4818,-2.4834,-2.4847,-2.4947,-2.5398,-2.5487,-2.5416,-2.5247,-2.5136,-2.5022,-2.4796,-2.4126,-2.3428,-2.2893,-2.2177,-2.1051,-1.909,-1.8664,-1.7903,-1.5872,-1.4448,-1.3423,-1.2812,-1.0889,-0.9054,-0.7759,-0.6913,-0.5345,-0.2617,-0.3599,-0.2467,0.1896,0.3641,0.4487,0.4519,0.5109,0.5109,0.4519,0.5109,0.5109,0.4519,0.5164,0.5869,0.6642,0.7343,0.8103,-1.0787,-1.2337,-1.4014,-1.499,-1.6025,-1.7356,-1.9456,-2.0084,-2.07,-2.2339,-2.2955,-2.3195,0.0,0.0,-2.4039,-2.4372,0.0,0.0,0.0,0.0,0.0,0.0,0.0,0.0,0.0,0.0,0.0,0.0,0.0,0.0,0.0,0.0,0.0,-2.3566,-2.3566,-2.3566,-2.3566,-2.3369,-2.3189,-2.3069,-2.3369,-2.3392,-2.3189,-2.3189,-2.3189,-2.3189,-2.3189,-2.3189,-2.3189,-2.3189,-2.3069,-2.2873,-2.2695,-2.273,-2.2898,-2.2898,-2.3093,-2.3369,-2.3236,-2.3333,-2.3494,-2.3494,-2.3653,-2.3858,-2.4208,-2.4296,-2.4364,-2.4705,-2.4705,-2.4726,-2.5189,-2.5274,-2.5276,-2.5357,-2.5344,-2.5234,-2.5034,-2.4743,-2.4374,-2.3879,-2.3057,-2.2064,-2.0773,-2.0053,-1.8965,-1.684,-1.5776,-1.4777,-1.3585,-1.0864,-0.8885,-0.8312,-0.6499,-0.4453,-0.2397,-0.1903,-0.0559,0.2007,0.3641,0.4487,0.4519,0.5164,0.5378,0.5109,0.5819,0.5819,0.5109,0.6308,0.6799,0.6642,0.783,0.8533,-1.0301,-1.1937,-1.3802,-1.4336,-1.5907,-1.7868,-1.9966,-2.0937,-2.1909,-2.3713,-2.408,-2.408,-2.408,0.0,0.0,0.0,0.0,0.0,0.0,0.0,0.0,0.0,0.0,0.0,0.0,0.0,0.0,0.0,0.0,0.0,0.0,0.0,0.0,0.0,-2.3189,-2.3189,-2.3189,-2.2972,-2.2797,-2.2721,-2.3165,-2.323,-2.2908,-2.2908,-2.2908,-2.2908,-2.2908,-2.2908,-2.2908,-2.2908,-2.2686,-2.2351,-2.2315,-2.2326,-2.2334,-2.2334,-2.2574,-2.2838,-2.2737,-2.2762,-2.2838,-2.2838,-2.3047,-2.3294,-2.3491,-2.3653,-2.3832,-2.4191,-2.421,-2.4208,-2.4695,-2.4962,-2.5141,-2.5356,-2.5409,-2.5375,-2.5251,-2.5207,-2.5041,-2.4535,-2.3913,-2.3109,-2.1971,-2.1151,-1.9924,-1.7827,-1.6887,-1.5923,-1.4516,-1.1795,-0.9585,-0.8469,-0.6018,-0.3858,-0.2343,-0.0838,0.0615,0.212,0.3641,0.4487,0.4519,0.5164,0.5487,0.5487,0.6204,0.6367,0.5873,0.7069,0.745,0.6966,0.8209,0.8804,-1.1098,-1.2339,-1.3709,-1.4125,-1.6032,-1.8149,-1.944,-1.9929,-2.0707,-2.2757,-2.3189,-2.3189,-2.3189,-2.3189,0.0,0.0,0.0,0.0,0.0,0.0,0.0,0.0,0.0,0.0,0.0,0.0,0.0,0.0,0.0,0.0,0.0,0.0,0.0,0.0,-2.3189,-2.3189,-2.3189,-2.3189,-2.3021,-2.2695,-2.2695,-2.2563,-2.231,-2.231,-2.231,-2.231,-2.231,-2.231,-2.231,-2.2282,-2.2032,-2.1658,-2.2106,-2.2003,-2.1582,-2.1582,-2.1816,-2.204,-2.1715,-2.1816,-2.2096,-2.2096,-2.2344,-2.2678,-2.2591,-2.2877,-2.3189,-2.3189,-2.3189,-2.331,-2.3852,-2.4544,-2.511,-2.519,-2.5294,-2.5412,-2.5488,-2.5443,-2.5258,-2.479,-2.4698,-2.4147,-2.2418,-2.185,-2.0882,-1.8745,-1.7658,-1.6744,-1.5696,-1.3939,-1.1487,-0.7964,-0.5734,-0.3889,-0.2341,-0.0838,0.0615,0.212,0.3641,0.4487,0.4519,0.5164,0.5487,0.5487,0.6253,0.6642,0.6588,0.7348,0.7723,0.7723,0.848,0.8804,-1.0965,-1.2464,-1.4313,-1.5454,-1.7466,-1.9456,-2.0702,-2.1211,-2.1763,-2.2964,-2.3189,-2.3189,-2.3189,-2.3189,0.0,0.0,0.0,0.0,0.0,0.0,0.0,0.0,0.0,0.0,0.0,0.0,0.0,0.0,0.0,0.0,0.0,0.0,0.0,0.0,-2.2588,-2.2588,-2.2588,-2.2588,-2.2535,-2.2426,-2.2079,-2.2056,-2.231,-2.231,-2.231,-2.231,-2.231,-2.231,-2.2265,-2.1928,-2.1735,-2.1582,-2.1446,-2.1291,-2.1181,-2.1181,-2.1228,-2.1305,-2.1197,-2.1228,-2.1336,-2.1336,-2.1428,-2.1546,-2.1761,-2.2101,-2.2487,-2.271,-2.2968,-2.3236,-2.3401,-2.3876,-2.4471,-2.5004,-2.515,-2.5221,-2.5383,-2.5449,-2.5419,-2.5226,-2.4954,-2.4545,-2.3845,-2.3321,-2.2192,-1.9803,-1.8859,-1.7087,-1.3341,-1.2368,-1.0889,-0.7911,-0.5752,-0.3851,-0.2321,-0.0836,0.0615,0.212,0.3641,0.4487,0.4519,0.566,0.6258,0.6258,0.7503,0.7883,0.7396,0.8103,0.8209,0.7723,0.848,0.8804,-1.192,-1.3256,-1.4927,-1.6658,-1.829,-1.9913,-2.1455,-2.197,-2.2243,-2.2745,-2.2832,-2.2832,-2.2832,-2.2832,0.0,0.0,0.0,0.0,0.0,0.0,0.0,0.0,0.0,0.0,0.0,0.0,0.0,0.0,0.0,0.0,0.0,0.0,0.0,0.0,-2.231,-2.231,-2.231,-2.231,-2.2209,-2.2032,-2.1735,-2.1658,-2.1781,-2.1781,-2.1781,-2.1781,-2.1781,-2.1781,-2.1751,-2.1477,-2.1228,-2.107,-2.1023,-2.0894,-2.0715,-2.0715,-2.0715,-2.0715,-2.0715,-2.0715,-2.0715,-2.0715,-2.0862,-2.1023,-2.1006,-2.1318,-2.1724,-2.1905,-2.2129,-2.2363,-2.2496,-2.274,-2.33,-2.4396,-2.4721,-2.4881,-2.5208,-2.5231,-2.5192,-2.527,-2.5161,-2.4962,-2.461,-2.4284,-2.3327,-2.1155,-1.9858,-1.7664,-1.3584,-1.3036,-1.1851,-0.8775,-0.711,-0.5101,-0.2409,-0.0833,0.0894,0.295,0.4477,0.5207,0.4897,0.571,0.6312,0.6588,0.7777,0.8262,0.8156,0.8844,0.8995,0.856,0.8995,0.9211,-1.3372,-1.4388,-1.5572,-1.7679,-1.8857,-1.9983,-2.1864,-2.231,-2.231,-2.231,0.0,-2.231,-2.231,-2.231,0.0,0.0,0.0,0.0,0.0,0.0,0.0,0.0,0.0,0.0,0.0,0.0,0.0,0.0,0.0,0.0,0.0,0.0,0.0,-2.218,-2.218,-2.218,-2.218,-2.218,-2.1974,0.0,-2.1491,-2.1306,-2.0926,-2.0959,-2.0991,-2.0991,-2.0991,-2.0991,-2.0991,-2.0959,-2.0682,-2.0348,-2.0731,-2.0632,-2.0246,-2.0177,-2.0212,-2.0246,-2.0177,-2.0162,-2.0162,-2.0162,-2.0483,-2.0715,-2.0299,-2.0516,-2.0894,-2.0926,-2.0926,-2.1007,-2.1362,-2.1483,-2.1866,-2.3412,-2.3934,-2.4262,-2.4805,-2.4729,-2.4659,-2.4975,-2.5233,-2.5273,-2.4889,-2.4805,-2.4228,-2.2535,-2.0655,-1.844,-1.5732,-1.521,-1.3777,-1.0343,-0.9523,-0.7439,-0.3157,-0.0332,0.2119,0.4278,0.5922,0.643,0.5655,0.5701,0.6081,0.6691,0.7503,0.8203,0.891,0.951,0.9814,0.9814,0.9865,0.9917,-1.2852,-1.4329,-1.6159,-1.8414,-2.0311,-2.1756,-2.2192,-2.231,-2.231,-2.231,-2.231,-2.231,-2.231,0.0,0.0,0.0,0.0,0.0,0.0,0.0,0.0,0.0,0.0,0.0,0.0,0.0,0.0,0.0,0.0,0.0,-2.1764,0.0,0.0,-2.1291,-2.1291,-2.1291,-2.1291,-2.1291,-2.1229,0.0,-2.0748,-2.0534,-2.0449,-2.0829,-2.0991,-2.0991,-2.0991,-2.0991,-2.0959,-2.0583,-2.0382,-2.028,-2.007,-1.9909,-1.9767,-1.9376,-1.9449,-1.9767,-1.9339,-1.9214,-1.9214,-1.9214,-1.9288,-1.931,-1.9251,-1.9513,-1.9974,-2.0333,-2.0403,-2.0471,-2.0991,-2.1303,-2.1599,-2.195,-2.2366,-2.2825,-2.3471,-2.3601,-2.3782,-2.4423,-2.4645,-2.474,-2.4862,-2.4876,-2.4402,-2.3033,-2.0963,-1.9107,-1.7858,-1.5977,-1.4118,-1.2411,-1.2126,-1.0769,-0.7669,0.3364,0.8465,0.4666,0.682,0.7657,0.6426,0.7416,0.7829,0.7405,0.8692,0.9451,0.9562,0.9718,0.9814,0.9814,1.0364,1.0568,-1.2842,-1.4191,-1.5882,-1.8853,-2.0951,-2.231,-2.231,-2.231,-2.231,-2.231,-2.231,-2.231,0.0,0.0,0.0,0.0,0.0,0.0,0.0,0.0,0.0,0.0,0.0,0.0,0.0,0.0,0.0,0.0,0.0,-2.2106,-2.1628,-2.1582,-2.1399,-2.0991,-2.0991,-2.0991,-2.0991,-2.0991,-2.0894,-2.0649,-2.0416,-2.0177,-2.0035,-2.0277,-2.0379,-2.0379,-2.0379,-2.0379,-2.0345,-1.9829,-1.9636,-1.9564,-1.9103,-1.9095,-1.9244,-1.8688,-1.8855,-1.9244,-1.8688,-1.8535,-1.8535,-1.8535,-1.8535,-1.8535,-1.8535,-1.8712,-1.891,-1.917,-1.9214,-1.9273,-1.954,-1.9743,-1.9955,-2.019,-2.1091,-2.2036,-2.2611,-2.2812,-2.3034,-2.3583,-2.381,-2.3987,-2.4245,-2.4386,-2.4184,-2.3318,-2.2167,-2.0797,-1.9104,-1.7763,-1.6132,-1.401,-1.3219,-1.2332,-1.0893,0.3806,1.1622,0.8685,0.9077,0.9003,0.8146,0.9141,0.9193,0.814,0.9518,1.0115,0.9814,1.0415,1.061,1.0312,1.0965,1.1266,-1.2719,-1.4042,-1.5694,-1.914,-2.1005,-2.2012,-2.2147,-2.2123,-2.2077,-2.2077,-2.218,-2.2282,0.0,0.0,0.0,0.0,0.0,0.0,0.0,0.0,0.0,0.0,0.0,0.0,0.0,0.0,0.0,0.0,0.0,-2.1869,-2.1399,-2.1399,-2.1197,-2.0797,-2.0764,-2.0764,-2.0764,-2.0764,-2.0599,-2.0193,-2.0193,-1.9949,-1.9566,-1.9566,-1.9603,-1.969,-1.9479,-1.9479,-1.953,-1.8968,-1.8765,-1.8727,-1.8263,-1.838,-1.8688,-1.8185,-1.8302,-1.8688,-1.8145,-1.7947,-1.7947,-1.7947,-1.7947,-1.7947,-1.7947,-1.7947,-1.7947,-1.7973,-1.7894,-1.7854,-1.792,-1.792,-1.8039,-1.8507,-1.9712,-2.0969,-2.1725,-2.1912,-2.2,-2.2296,-2.2616,-2.2989,-2.3416,-2.3756,-2.387,-2.364,-2.3708,-2.2995,-2.0782,-2.0486,-1.8361,-1.2755,-1.1294,-1.0682,-1.0682,0.2424,1.1305,1.281,1.1746,1.0777,1.021,1.1081,1.0931,0.9563,1.0477,1.0712,1.0167,1.1358,1.1607,1.1015,1.1756,1.2159,-1.1526,-1.404,-1.6965,-1.9393,-2.0354,-2.0912,-2.154,0.0,-2.1166,0.0,-2.1781,0.0,0.0,0.0,0.0,0.0,0.0,0.0,0.0,0.0,0.0,0.0,0.0,0.0,0.0,0.0,0.0,0.0,-2.1166,-2.0959,-2.0516,-2.0467,-2.0296,-1.9889,-1.9889,-1.9889,-1.9889,-1.9889,-1.9854,-1.9782,-1.9782,-1.9515,-1.9006,-1.9006,-1.9244,-1.9639,-1.8727,-1.8574,-1.8968,-1.8419,-1.8224,-1.8224,-1.8145,-1.8145,-1.8145,-1.7585,-1.7747,-1.8145,-1.7585,-1.7435,-1.7435,-1.7435,-1.7435,-1.7435,-1.7435,-1.7435,-1.7368,-1.7315,-1.6998,-1.6705,-1.7192,-1.7301,-1.7342,-1.7424,-1.7585,-1.8275,-2.0141,-2.0239,-2.003,-2.0194,-2.0633,-2.1409,-2.2836,-2.3439,-2.389,-2.4373,-2.4983,-2.5255,-2.4895,-2.4866,-1.8985,-0.3607,-0.1825,-0.1725,-0.1725,0.039,0.4907,1.2428,1.3894,1.3729,1.2196,1.3785,1.4136,1.2949,1.2094,1.1616,1.1516,1.2288,1.2337,1.1715,1.2938,1.3521,-1.155,-1.3667,-1.5944,-1.799,-1.8899,-1.9564,-2.0492,-2.0569,-2.0558,-2.0911,0.0,0.0,0.0,0.0,0.0,0.0,0.0,0.0,0.0,0.0,0.0,0.0,0.0,0.0,0.0,0.0,0.0,0.0,-2.0991,-2.0797,-2.0314,-2.0314,-2.0124,-1.9711,-1.969,-1.969,-1.969,-1.969,-1.969,-1.969,-1.9406,-1.9132,-1.8893,-1.8302,-1.8302,-1.8779,-1.8302,-1.8224,-1.8419,-1.7867,-1.745,-1.7136,-1.6802,-1.6693,-1.6625,-1.6421,-1.6451,-1.6583,-1.6434,-1.6361,-1.6275,-1.5959,-1.6058,-1.6275,-1.5971,-1.6102,-1.6262,-1.5891,-1.586,-1.5915,-1.5847,-1.5792,-1.5966,-1.6596,-1.6255,-1.5948,-1.6522,-1.7697,-1.8619,-1.8681,-1.9305,-1.997,-2.0295,-2.1867,-2.3143,-2.3283,-2.4673,-2.5703,-2.5703,-0.8848,0.5999,1.3597,1.4397,1.0498,0.0815,0.6783,1.2658,1.6489,1.6028,1.529,1.4642,1.5293,1.5581,1.5471,1.4087,1.3182,1.2791,1.3185,1.3328,1.334,1.3996,1.4682,-1.1267,-1.2669,-1.4086,-1.6011,-1.7076,-1.7971,0.0,0.0,-1.961,0.0,0.0,0.0,0.0,0.0,0.0,0.0,0.0,0.0,0.0,0.0,0.0,0.0,0.0,0.0,0.0,0.0,0.0,0.0,-2.0665,-2.0532,-2.0158,-2.0158,-2.0,-1.9726,-1.969,-1.969,-1.969,-1.9566,-1.9442,-1.9281,-1.8893,-1.8612,-1.8458,-1.7666,-1.7422,-1.7706,-1.7706,-1.7787,-1.7854,-1.7162,-1.6617,-1.6133,-1.5576,-1.5342,-1.5306,-1.5353,-1.5342,-1.5306,-1.5353,-1.5365,-1.5276,-1.4835,-1.5005,-1.5276,-1.4835,-1.5017,-1.5231,-1.4652,-1.4778,-1.4994,-1.4354,-1.4318,-1.463,-1.5316,-1.4846,-1.4228,-1.4213,-1.5538,-1.6875,-1.733,-1.7876,-1.8266,-1.828,-2.0299,-2.1971,-2.2254,-2.3377,-2.4168,-2.4168,0.1194,2.0847,2.523,2.5703,2.0501,0.763,1.5557,2.1009,2.0498,1.8698,1.7543,1.7276,1.7209,1.7349,1.7636,1.644,1.5358,1.4429,1.4563,1.4767,1.4944,1.5198,1.5887,-0.9932,-1.069,-1.1761,-1.3764,-1.495,-1.5965,0.0,0.0,0.0,0.0,0.0,0.0,0.0,0.0,0.0,0.0,0.0,0.0,0.0,0.0,0.0,0.0,0.0,0.0,0.0,0.0,0.0,0.0,-1.9747,-1.9747,-1.9711,-1.9711,-1.9711,-1.969,-1.969,-1.969,-1.969,-1.9207,-1.8688,-1.8185,-1.8145,-1.7867,-1.7394,-1.7353,-1.7034,-1.6595,-1.6595,-1.6879,-1.7271,-1.6145,-1.5676,-1.5588,-1.4971,-1.4744,-1.4744,-1.4744,-1.4744,-1.4744,-1.4744,-1.4744,-1.4744,-1.4698,-1.4698,-1.4744,-1.4698,-1.4698,-1.4606,-1.4003,-1.3862,-1.3758,-1.3062,-1.3369,-1.3711,-1.31,-1.2956,-1.3365,-1.5037,-1.4564,-1.4338,-1.6046,-1.5801,-1.5954,-1.7939,-1.9148,-2.0418,-2.2049,-2.0974,-2.0008,-2.0008,-0.7503,0.7591,2.3942,2.5703,2.5349,2.4439,2.4998,2.4564,2.2655,2.2355,2.1547,1.996,2.0418,2.0396,1.9657,1.9271,1.8275,1.6727,1.6909,1.6767,1.6211,1.6798,1.7428,-0.9823,-1.0187,-1.0712,-1.2084,-1.3003,-1.3832,-1.4868,-1.5823,-1.6652,0.0,0.0,0.0,0.0,0.0,0.0,0.0,0.0,0.0,0.0,0.0,0.0,0.0,0.0,0.0,0.0,0.0,0.0,0.0,0.0,-1.969,-1.969,-1.969,-1.953,-1.9207,-1.9207,-1.9006,-1.8688,-1.8496,-1.8302,-1.8106,-1.7747,-1.7504,-1.7312,-1.6951,-1.6484,-1.5908,-1.5908,-1.6039,-1.6188,-1.5752,-1.5129,-1.4411,-1.419,-1.3884,-1.361,-1.3967,-1.3884,-1.361,-1.4014,-1.4097,-1.405,-1.3658,-1.3542,-1.3396,-1.2966,-1.3158,-1.3253,-1.219,-1.2483,-1.2918,-1.1796,-1.1697,-1.1796,-1.1548,-1.0847,-1.0637,-1.2173,-1.2801,-1.302,-1.2768,-1.4009,-1.4777,-1.3683,-1.6956,-1.8927,-1.6606,-1.5727,-1.3345,-0.7759,-0.2934,0.235,0.8549,1.5554,1.9816,1.9816,2.3424,2.4472,2.1606,2.2966,2.3253,2.1843,2.2099,2.2153,2.1873,2.1262,2.0241,1.8765,1.7953,1.786,1.8418,1.7963,1.8549,-0.9489,-0.9605,-0.9816,0.0,-1.1408,-1.2007,-1.3202,0.0,-1.5366,0.0,0.0,0.0,0.0,0.0,0.0,0.0,0.0,0.0,0.0,0.0,0.0,0.0,0.0,0.0,0.0,0.0,0.0,0.0,0.0,0.0,-1.9442,-1.9442,-1.9207,-1.865,-1.8612,-1.838,-1.7827,-1.7827,-1.7747,-1.7544,-1.7008,-1.6744,-1.6714,-1.6126,-1.5688,-1.532,-1.532,-1.532,-1.5276,-1.5084,-1.4503,-1.3779,-1.36,-1.3238,-1.2978,-1.3324,-1.3084,-1.2598,-1.3266,-1.3341,-1.3092,-1.2958,-1.2686,-1.2385,-1.1963,-1.1944,-1.1935,-1.1057,-1.1449,-1.1886,-1.0762,-1.0466,-1.0466,-1.0466,-0.9762,-0.9256,-0.9688,-1.062,-1.1189,-1.0505,-1.1771,-1.2349,-1.0444,-1.338,-1.5034,-1.1984,-0.986,-0.6482,-0.0724,0.0,0.0,0.0,0.9195,1.5611,1.6423,2.1049,2.3051,2.1092,2.3132,2.4019,2.3175,2.3271,2.3351,2.3363,2.2782,2.2017,2.111,1.9716,1.9411,2.0043,1.9398,1.9908,0.0,0.0,0.0,0.0,0.0,0.0,-1.2291,0.0,0.0,0.0,0.0,0.0,0.0,0.0,0.0,0.0,0.0,0.0,0.0,0.0,0.0,0.0,0.0,0.0,0.0,0.0,0.0,0.0,-1.963,-1.9383,-1.8873,-1.8797,-1.8569,-1.8051,-1.8011,-1.7773,-1.7244,-1.7244,-1.6967,-1.6466,-1.5864,-1.5588,-1.5543,-1.4971,-1.4709,-1.4652,-1.4652,-1.4663,-1.4606,-1.405,-1.3779,-1.3732,-1.3152,-1.2881,-1.2881,-1.2881,-1.2403,-1.1913,-1.2608,-1.2353,-1.1873,-1.2618,-1.2344,-1.1765,-1.1765,-1.1266,-1.0771,-1.0771,-1.0762,-1.061,-0.9917,-0.971,-0.971,-0.971,-0.971,-0.934,-0.8037,-0.8178,-0.8829,-0.9475,-0.9092,-0.8664,-0.8612,-0.858,-0.8527,-0.8527,-0.369,0.0,0.0,0.0,0.0112,0.0335,0.7902,1.3884,1.625,1.8792,2.0587,2.1405,2.3023,2.3982,2.4003,2.4019,2.4038,2.4115,2.3808,2.366,2.3732,2.2258,2.1379,2.1039,2.1039,2.1561,-0.8783,0.0,0.0,0.0,0.0,0.0,0.0,0.0,0.0,0.0,0.0,0.0,0.0,0.0,0.0,0.0,0.0,0.0,0.0,0.0,0.0,0.0,0.0,0.0,0.0,0.0,0.0,0.0,-1.7832,-1.7644,-1.7206,-1.6794,-1.6512,-1.6362,-1.5995,-1.5891,-1.6153,-1.5728,-1.5618,-1.582,-1.5242,-1.4971,-1.4926,-1.4789,-1.4468,-1.405,-1.405,-1.3789,-1.343,-1.3684,-1.3552,-1.3152,-1.2978,-1.2881,-1.2822,-1.2295,-1.1972,-1.1765,-1.1475,-1.1275,-1.1116,-1.1325,-1.0922,-1.0364,-1.0364,-1.0218,-0.9961,-0.9517,-0.9718,-0.9806,-0.8606,-0.7865,-0.7599,-0.8137,-0.7865,-0.7652,-0.8368,-0.754,-0.6661,-0.6645,-0.7787,-0.8044,-0.6004,-0.3865,-0.2435,-0.2435,-0.1059,0.0,0.0,0.0,0.2413,0.8646,1.1487,1.3658,1.549,1.7666,1.9413,2.0548,2.2101,2.3401,2.4319,2.4358,2.4466,2.4665,2.4591,2.446,2.4277,2.3106,2.227,2.1816,2.2276,2.3092,-0.9007,-0.8928,0.0,0.0,0.0,0.0,0.0,-0.9718,0.0,0.0,0.0,0.0,0.0,0.0,0.0,0.0,0.0,0.0,0.0,0.0,0.0,0.0,0.0,0.0,0.0,-1.7055,-1.7089,-1.687,-1.6835,-1.6662,-1.619,-1.5657,-1.5372,-1.5372,-1.4839,-1.4715,-1.5036,-1.4476,-1.4472,-1.4973,-1.4339,-1.4133,-1.4329,-1.4061,-1.3742,-1.342,-1.3092,-1.2764,-1.2452,-1.2502,-1.2677,-1.2881,-1.2881,-1.2715,-1.2403,-1.1972,-1.1466,-1.0965,-1.0864,-1.0618,-1.0415,-1.072,-1.0364,-0.9814,-0.9814,-0.9614,-0.9309,-0.891,-0.8844,-0.8666,-0.7551,-0.6912,-0.6696,-0.7128,-0.7074,-0.7074,-0.7498,-0.6843,-0.6145,-0.5982,-0.6489,-0.6421,-0.4783,-0.2009,0.0,0.0,0.0,0.0,0.0,0.2161,0.5614,1.0645,1.2215,1.3296,1.4212,1.6041,1.7633,1.8885,2.1035,2.2625,2.3494,2.4151,2.4614,2.4853,2.4897,2.4854,2.4738,2.3934,2.3462,2.3369,2.3847,2.455,-0.9511,-0.9406,0.0,0.0,0.0,0.0,-0.9282,-0.9401,-0.9729,0.0,0.0,0.0,0.0,0.0,0.0,0.0,0.0,0.0,0.0,0.0,0.0,0.0,0.0,0.0,-1.6208,-1.6243,-1.6278,-1.6208,-1.6173,-1.5877,-1.5385,-1.4891,-1.4612,-1.4574,-1.4099,-1.3875,-1.3923,-1.3466,-1.3451,-1.3902,-1.3277,-1.3205,-1.3611,-1.3132,-1.2881,-1.2725,-1.208,-1.1765,-1.1665,-1.1065,-1.1534,-1.2676,-1.2676,-1.2246,-1.1665,-1.1616,-1.0813,-0.9865,-1.0415,-1.0167,-0.9762,-1.0364,-1.0167,-0.9666,-0.9666,-0.9256,-0.8804,-0.8699,-0.8103,-0.7289,-0.6642,-0.6426,-0.6372,-0.648,-0.6804,-0.6907,-0.6357,-0.614,-0.6086,-0.5919,-0.4999,-0.4236,-0.4236,-0.1898,0.0,0.0,0.0,0.0112,0.0448,0.5062,0.8315,0.8315,1.0779,1.2569,1.2881,1.4212,1.564,1.7085,1.9875,2.1709,2.2306,2.3736,2.4618,2.4881,2.4938,2.5024,2.5144,2.4623,2.4623,2.5116,2.5494,2.5997,-1.0151,-1.0329,-1.0461,-0.9394,0.0,0.0,-0.8466,-0.8778,-0.9356,0.0,0.0,0.0,0.0,0.0,0.0,0.0,0.0,0.0,0.0,0.0,0.0,0.0,0.0,0.0,-1.4433,-1.4684,-1.4763,-1.4433,-1.4041,-1.3626,-1.3154,-1.3023,-1.2805,-1.2438,-1.2316,-1.2472,-1.2872,-1.2331,-1.2285,-1.2797,-1.2528,-1.2395,-1.254,-1.2763,-1.2559,-1.2021,-1.1864,-1.1516,-1.0965,-1.0864,-1.0965,-1.1225,-1.1225,-1.1124,-1.0914,-1.0364,-1.0012,-0.9762,-0.9309,-0.9113,-0.9008,-0.9159,-0.9113,-0.9008,-0.9008,-0.891,-0.8699,-0.8103,-0.6956,-0.5923,-0.576,-0.5332,-0.5117,-0.5869,-0.555,-0.566,-0.7771,-0.5517,-0.2726,-0.1504,-0.2006,-0.2676,-0.2676,-0.1174,0.0,0.0,0.0,0.0895,0.3289,0.4615,0.5332,0.5332,0.7906,1.049,1.2725,1.321,1.4603,1.7565,1.9161,2.0938,2.301,2.4091,2.4892,2.5338,2.5429,2.5446,2.5414,2.4568,2.4539,2.5282,2.6634,2.7755,-1.0655,-1.0697,-1.0844,-1.0451,0.0,0.0,0.0,-0.873,-0.874,-0.8981,0.0,0.0,0.0,0.0,0.0,0.0,0.0,0.0,0.0,0.0,0.0,0.0,0.0,0.0,-1.3155,-1.3579,-1.3656,-1.3216,-1.3,-1.265,-1.2174,-1.2138,-1.2029,-1.1811,-1.1542,-1.155,-1.179,-1.1259,-1.1247,-1.1684,-1.1856,-1.2012,-1.22,-1.2686,-1.251,-1.1765,-1.1466,-1.0914,-1.0261,-0.9969,-0.9814,-0.9865,-1.0517,-1.0618,-1.0261,-0.9917,-0.9562,-0.9263,-0.891,-0.854,-0.8262,-0.8262,-0.7996,-0.7723,-0.7723,-0.7723,-0.7557,-0.6794,-0.6086,-0.5433,-0.5109,-0.4732,-0.4625,-0.5113,-0.4842,-0.4897,-0.6362,-0.371,-0.0895,-0.0168,-0.0168,-0.0279,-0.0056,0.0,0.0,0.0,0.1285,0.2788,0.4294,0.4519,0.4519,0.4519,0.8292,1.1633,1.3647,1.38,1.4616,1.6648,1.8275,1.9837,2.1234,2.2648,2.3832,2.4779,2.5434,2.5707,2.5601,2.5933,2.6458,2.7152,2.7971,2.8817,0.0,0.0,0.0,0.0,0.0,-1.0781,0.0,0.0,0.0,-0.9414,0.0,0.0,0.0,0.0,0.0,0.0,0.0,0.0,0.0,0.0,0.0,0.0,0.0,0.0,0.0,-1.2539,-1.2641,-1.2378,-1.2248,-1.2036,-1.1653,-1.1664,-1.159,-1.1516,-1.1094,-1.0867,-1.0867,-1.0505,-1.0449,-1.0791,-1.1136,-1.1537,-1.188,-1.2254,-1.2073,-1.1366,-1.0864,-1.0218,-0.9562,-0.9008,-0.8804,-0.891,-1.0012,-1.0064,-0.9614,-0.9614,-0.9263,-0.8804,-0.8804,-0.8315,-0.7723,-0.7723,-0.7182,-0.6588,-0.6588,-0.648,-0.6258,-0.5651,-0.5433,-0.5164,-0.4625,-0.4405,-0.4239,-0.4239,-0.4349,-0.4349,-0.3735,-0.173,0.0,0.0,0.0672,0.1398,0.1953,0.1174,0.0448,0.0448,0.2732,0.4519,0.4519,0.4519,0.4736,0.5277,0.9877,1.3382,1.4606,1.5108,1.5544,1.5885,1.7978,1.9419,1.9884,2.1711,2.3154,2.4139,2.522,2.5734,2.5627,2.7589,2.8798,2.9267,2.9299,2.966,0.0,0.0,0.0,0.0,-1.1992,0.0,0.0,0.0,-0.9943,-0.8727,0.0,0.0,0.0,0.0,0.0,0.0,0.0,0.0,0.0,0.0,0.0,0.0,0.0,0.0,0.0,-1.1343,-1.1289,-1.1852,-1.1328,-1.1023,-1.1089,-1.1094,-1.0905,-1.0467,-1.039,-1.039,-1.039,-1.0322,-1.0303,-1.0361,-1.0311,-1.0465,-1.0786,-1.0707,-1.0426,-1.0012,-0.9969,-0.951,-0.891,-0.8857,-0.8804,-0.8804,-0.8962,-0.8956,-0.891,-0.891,-0.8857,-0.8804,-0.8804,-0.8315,-0.7723,-0.7723,-0.7182,-0.6588,-0.6588,-0.6145,-0.5597,-0.5542,-0.5058,-0.457,-0.4515,-0.3956,-0.34,-0.3239,-0.3852,-0.379,-0.1062,-0.0224,0.0,0.0,0.0112,0.0448,0.1398,0.1786,0.1952,0.1952,0.34,0.4519,0.4519,0.4519,0.5496,0.8043,1.1082,1.3382,1.4606,1.662,1.7614,1.7147,1.929,2.102,2.2074,2.3893,2.4696,2.4364,2.504,2.536,2.5351,2.856,3.0175,3.024,3.0364,3.0466,0.0,0.0,0.0,0.0,0.0,0.0,-0.9491,0.0,-0.8934,0.0,0.0,0.0,0.0,0.0,0.0,0.0,0.0,0.0,0.0,0.0,0.0,0.0,0.0,0.0,0.0,0.0,0.0,0.0,-1.0322,-1.0187,-1.0187,-1.0432,-1.0495,-1.0322,-1.0283,-1.0283,-1.0283,-1.0,-0.9843,-0.9843,-0.9709,-0.9718,-0.9847,-1.0208,-1.0083,-0.9595,-0.9731,-0.9197,-0.8156,-0.8156,-0.7883,-0.7509,-0.7509,-0.8049,-0.8804,-0.8804,-0.8533,-0.8156,-0.8156,-0.7391,-0.6357,-0.5987,-0.566,-0.5391,-0.5391,-0.4889,-0.4278,-0.4223,-0.3727,-0.3289,-0.368,-0.3231,-0.2565,-0.2235,-0.2458,-0.2233,-0.0392,0.0448,0.0672,0.0112,0.1062,0.1953,0.1898,0.1341,0.1507,0.3289,0.407,0.5117,0.6794,0.7009,0.8059,1.088,1.2215,1.3382,1.4606,1.5603,1.6633,1.7749,1.9426,2.0721,2.1407,2.2547,2.3167,2.3179,2.5116,2.6545,2.7434,2.8763,2.9583,2.988,3.0376,3.0569,-1.3025,0.0,0.0,0.0,0.0,0.0,0.0,0.0,0.0,0.0,0.0,0.0,0.0,0.0,0.0,0.0,0.0,0.0,0.0,0.0,0.0,0.0,0.0,0.0,0.0,0.0,0.0,0.0,0.0,-0.9217,-0.959,-0.9932,-1.0156,-1.0312,-1.0157,-1.0079,-1.0079,-0.9558,-0.9279,-0.9279,-0.9023,-0.8942,-0.9055,-0.9485,-0.9481,-0.9111,-0.9211,-0.8666,-0.767,-0.7509,-0.7074,-0.6588,-0.6588,-0.7235,-0.8209,-0.8209,-0.783,-0.7396,-0.7396,-0.6578,-0.5378,-0.4732,-0.4519,-0.446,-0.4236,-0.379,-0.3345,-0.3065,-0.2619,-0.2341,-0.2843,-0.2454,-0.1786,-0.1453,-0.1006,-0.0503,0.028,0.1063,0.162,0.1285,0.2565,0.3511,0.2954,0.1953,0.1953,0.4181,0.5171,0.6416,0.8533,0.9092,1.0137,1.2415,1.2811,1.3484,1.4937,1.4963,1.5954,1.8484,1.9495,2.0266,2.0803,2.1749,2.2354,2.2655,2.5313,2.7238,2.8368,2.8451,2.87,2.9101,2.9981,3.0342,0.0,0.0,0.0,-1.015,0.0,0.0,0.0,0.0,-0.8783,0.0,0.0,0.0,0.0,0.0,0.0,0.0,0.0,0.0,0.0,0.0,0.0,0.0,0.0,0.0,0.0,0.0,0.0,0.0,0.0,0.0,-0.9505,-0.9602,-0.9844,-1.0273,-0.9795,-0.9518,-0.9518,-0.8999,-0.8716,-0.8716,-0.8209,-0.8092,-0.8327,-0.8075,-0.8151,-0.839,-0.7986,-0.7723,-0.767,-0.6912,-0.6642,-0.6588,-0.6588,-0.6642,-0.6696,-0.6696,-0.6642,-0.6642,-0.6642,-0.6145,-0.5378,-0.4732,-0.4519,-0.4349,-0.3566,-0.3345,-0.3234,-0.2454,-0.2232,-0.223,-0.2232,-0.1675,-0.1118,-0.1118,0.0168,0.1398,0.1454,0.1843,0.2621,0.407,0.4405,0.446,0.4408,0.4405,0.4405,0.4463,0.6848,0.8699,0.8804,0.98,1.0941,1.2025,1.2586,1.3738,1.578,1.5601,1.6602,1.9581,1.9799,2.0194,2.1037,2.2651,2.355,2.3546,2.5644,2.6725,2.6791,2.76,2.803,2.8083,2.927,2.981,0.0,0.0,-1.1873,-1.0281,0.0,0.0,0.0,0.0,0.0,0.0,0.0,0.0,0.0,0.0,0.0,0.0,0.0,0.0,0.0,0.0,0.0,0.0,0.0,0.0,0.0,0.0,0.0,0.0,-0.6822,0.0,0.0,-0.8405,-0.8758,-0.8891,-0.8949,-0.8958,-0.8958,-0.8439,-0.8152,-0.816,-0.7572,-0.737,-0.7439,-0.7571,-0.7542,-0.7328,-0.7404,-0.6976,-0.6249,-0.5977,-0.5601,-0.5226,-0.5226,-0.5226,-0.5336,-0.6263,-0.6312,-0.5819,-0.5386,-0.5062,-0.4787,-0.457,-0.4181,-0.3735,-0.3456,-0.2676,-0.1842,-0.1563,-0.1118,-0.0838,-0.1341,-0.0951,-0.0504,-0.1006,0.0112,0.1229,0.1229,0.212,0.3065,0.3405,0.4073,0.4519,0.4519,0.4519,0.4519,0.4519,0.615,0.7723,0.8699,0.9492,1.031,1.1067,1.1706,1.2823,1.4611,1.6944,1.8756,1.9747,1.9798,1.9952,2.0245,2.1615,2.2741,2.3595,2.4752,2.555,2.5853,2.6618,2.7152,2.742,2.8196,2.8839,-1.2018,-1.1763,0.0,-0.9999,-0.952,0.0,-0.8165,0.0,0.0,0.0,0.0,0.0,0.0,0.0,0.0,0.0,0.0,0.0,0.0,0.0,0.0,0.0,0.0,0.0,0.0,0.0,-0.5565,-0.6206,-0.6003,0.0,0.0,0.0,-0.8036,-0.8198,-0.8326,-0.8398,-0.8398,-0.7863,-0.7579,-0.7572,-0.7196,-0.6894,-0.6738,-0.702,-0.6927,-0.6514,-0.6566,-0.6168,-0.5487,-0.5218,-0.4893,-0.4519,-0.4519,-0.4519,-0.4625,-0.55,-0.555,-0.5058,-0.4625,-0.4519,-0.446,-0.4181,-0.379,-0.3289,-0.2732,-0.1898,-0.1062,-0.0783,-0.0392,-0.0112,-0.056,-0.0336,-0.0112,-0.0616,0.0224,0.1118,0.1118,0.2286,0.3289,0.3183,0.3852,0.457,0.4842,0.4942,0.517,0.5515,0.6314,0.746,0.9046,0.9679,1.0366,1.131,1.167,1.2626,1.4414,1.7306,1.9044,1.9044,1.9527,1.9798,1.9798,2.0904,2.1866,2.2575,2.3462,2.4071,2.4359,2.5428,2.6047,2.6151,2.7057,2.7756]},{"header":{"parameterUnit":"m.s-1","parameterCategory":1,"la1":30.6,"la2":29.2853,"lo1":-89.7004,"lo2":-87.6739,"dy":0.0162,"dx":0.0183,"nx":112,"ny":82,"refTime":"2024-06-10T18:00:00:Z","depth":0,"parameterNumber":3,"parameterNumberName":"V-component_of_WINDS"},"data":[0.0,0.0,0.0,0.0,0.0,0.0,0.0,0.0,0.0,0.0,0.0,0.0,0.0,0.0,0.0,0.0,0.0,0.0,0.0,0.0,0.0,0.0,0.0,0.0,0.0,0.0,0.0,0.0,0.0,0.0,0.0,0.0,0.0,0.0,0.0,0.0,0.0,0.0,0.0,0.0,0.0,0.0,0.0,0.0,0.0,0.0,0.0,0.0,0.0,0.0,0.0,0.0,0.0,0.0,0.0,0.0,0.0,0.0,0.0,0.0,0.0,0.0,0.0,0.0,0.0,0.0,0.0,0.0,0.0,0.0,0.0,0.0,0.0,0.0,0.0,0.0,0.0,0.0,0.0,0.0,0.0,0.0,0.0,0.0,0.0,0.0,0.0,0.0,0.0,0.0,-1.0116,-1.1367,-1.2986,-1.3711,-1.3158,-1.4075,-1.3869,-1.1934,0.0,0.0,0.0,0.0,0.0,0.0,0.0,0.0,0.0,0.0,0.0,0.0,0.0,0.0,0.0,0.0,0.0,0.0,0.0,0.0,0.0,0.0,0.0,0.0,0.0,0.0,0.0,0.0,0.0,0.0,0.0,0.0,0.0,0.0,0.0,0.0,0.0,0.0,0.0,0.0,0.0,0.0,0.0,0.0,0.0,0.0,0.0,0.0,0.0,0.0,0.0,0.0,0.0,0.0,0.0,0.0,0.0,0.0,0.0,0.0,0.0,0.0,0.0,0.0,0.0,0.0,0.0,0.0,0.0,0.0,0.0,0.0,0.0,0.0,0.0,0.0,0.0,0.0,0.0,0.0,0.0,0.0,0.0,0.0,0.0,0.0,0.0,0.0,0.0,0.0,0.0,0.0,0.0,0.0,0.0,0.0,0.0,0.0,0.0,0.0,0.0,0.0,0.0,0.0,-1.1184,-1.385,-1.4381,-1.4514,-1.4411,-1.4606,-1.3869,-1.1934,0.0,0.0,0.0,0.0,0.0,0.0,0.0,0.0,0.0,0.0,0.0,0.0,0.0,0.0,0.0,0.0,0.0,0.0,0.0,0.0,0.0,0.0,0.0,0.0,0.0,0.0,0.0,0.0,0.0,0.0,0.0,0.0,0.0,0.0,0.0,0.0,0.0,0.0,0.0,0.0,0.0,0.0,0.0,0.0,0.0,0.0,0.0,0.0,0.0,0.0,0.0,0.0,0.0,0.0,0.0,0.0,0.0,0.0,0.0,0.0,0.0,0.0,0.0,0.0,0.0,0.0,0.0,0.0,0.0,0.0,0.0,0.0,0.0,0.0,0.0,0.0,0.0,0.0,0.0,0.0,0.0,0.0,0.0,0.0,0.0,0.0,0.0,0.0,0.0,0.0,0.0,0.0,0.0,0.0,0.0,0.0,0.0,0.0,0.0,0.0,0.0,0.0,0.0,-1.124,-1.2388,-1.491,-1.5186,-1.5186,-1.5186,-1.574,-1.518,-1.2971,-1.1937,0.0,0.0,0.0,0.0,0.0,0.0,0.0,0.0,0.0,0.0,0.0,0.0,0.0,0.0,0.0,0.0,0.0,0.0,0.0,0.0,0.0,0.0,0.0,0.0,0.0,0.0,0.0,0.0,0.0,0.0,0.0,0.0,0.0,0.0,0.0,0.0,0.0,0.0,0.0,0.0,0.0,0.0,0.0,0.0,0.0,0.0,0.0,0.0,0.0,0.0,0.0,0.0,0.0,0.0,0.0,0.0,0.0,0.0,0.0,0.0,0.0,0.0,0.0,0.0,0.0,0.0,0.0,0.0,0.0,0.0,0.0,0.0,0.0,0.0,0.0,0.0,0.0,0.0,0.0,0.0,0.0,0.0,0.0,0.0,0.0,0.0,0.0,0.0,0.0,0.0,0.0,0.0,0.0,0.0,0.0,0.0,0.0,0.0,0.0,0.0,0.0,0.0,-1.3134,-1.3891,-1.5813,-1.6089,-1.6176,-1.6176,-1.6708,-1.6108,-1.4033,-1.27,0.0,0.0,0.0,0.0,0.0,0.0,0.0,0.0,0.0,0.0,0.0,0.0,0.0,0.0,0.0,0.0,0.0,0.0,0.0,0.0,0.0,0.0,0.0,0.0,0.0,0.0,0.0,0.0,0.0,0.0,0.0,0.0,0.0,0.0,0.0,0.0,0.0,0.0,0.0,0.0,0.0,0.0,0.0,0.0,0.0,0.0,0.0,0.0,0.0,0.0,0.0,0.0,0.0,0.0,0.0,0.0,0.0,0.0,0.0,0.0,0.0,0.0,0.0,0.0,0.0,0.0,0.0,0.0,0.0,0.0,0.0,0.0,0.0,0.0,0.0,0.0,0.0,0.0,0.0,0.0,0.0,0.0,0.0,0.0,0.0,0.0,0.0,0.0,0.0,0.0,0.0,0.0,0.0,0.0,0.0,0.0,0.0,0.0,0.0,0.0,0.0,0.0,-1.4214,-1.5903,-1.7057,-1.7612,-1.7933,-1.7933,-1.6845,-1.5708,-1.452,-1.2157,0.0,0.0,0.0,0.0,0.0,0.0,0.0,0.0,0.0,0.0,0.0,0.0,0.0,0.0,0.0,0.0,0.0,0.0,0.0,0.0,0.0,0.0,0.0,0.0,0.0,0.0,0.0,0.0,0.0,0.0,0.0,0.0,0.0,0.0,0.0,0.0,0.0,0.0,0.0,0.0,0.0,0.0,0.0,0.0,0.0,0.0,0.0,0.0,0.0,0.0,0.0,0.0,0.0,0.0,0.0,0.0,0.0,0.0,0.0,0.0,0.0,0.0,0.0,0.0,0.0,0.0,0.0,0.0,0.0,0.0,0.0,0.0,0.0,0.0,0.0,0.0,0.0,0.0,0.0,0.0,0.0,0.0,0.0,0.0,0.0,0.0,0.0,0.0,0.0,0.0,0.0,0.0,0.0,0.0,0.0,0.0,0.0,0.0,0.0,0.0,0.0,0.0,-1.4782,-1.6172,0.0,-1.7987,-1.8106,-1.8106,-1.7572,-1.6346,-1.4317,0.0,0.0,0.0,0.0,0.0,0.0,0.0,0.0,0.0,0.0,0.0,0.0,0.0,0.0,0.0,0.0,0.0,0.0,0.0,0.0,0.0,0.0,0.0,0.0,0.0,0.0,0.0,0.0,0.0,0.0,0.0,0.0,0.0,0.0,0.0,0.0,0.0,0.0,0.0,0.0,0.0,0.0,0.0,0.0,0.0,0.0,0.0,0.0,0.0,0.0,0.0,0.0,0.0,0.0,0.0,0.0,0.0,0.0,0.0,0.0,0.0,0.0,0.0,0.0,0.0,0.0,0.0,0.0,0.0,0.0,0.0,0.0,0.0,0.0,0.0,0.0,0.0,0.0,0.0,0.0,0.0,0.0,0.0,0.0,0.0,0.0,0.0,0.0,0.0,0.0,0.0,0.0,0.0,0.0,0.0,0.0,0.0,0.0,0.0,0.0,0.0,0.0,-1.4159,-1.5389,-1.6662,0.0,-1.8698,-1.8797,-1.8797,-1.8253,-1.6868,-1.4469,0.0,0.0,0.0,0.0,0.0,0.0,0.0,0.0,0.0,0.0,0.0,0.0,0.0,0.0,0.0,0.0,0.0,0.0,0.0,0.0,0.0,0.0,0.0,0.0,0.0,0.0,0.0,0.0,0.0,0.0,0.0,0.0,0.0,0.0,0.0,0.0,0.0,0.0,0.0,0.0,0.0,0.0,0.0,0.0,0.0,0.0,0.0,0.0,0.0,0.0,0.0,0.0,0.0,0.0,0.0,0.0,0.0,0.0,0.0,0.0,0.0,0.0,0.0,0.0,0.0,0.0,0.0,0.0,0.0,0.0,0.0,0.0,0.0,0.0,0.0,0.0,0.0,0.0,0.0,0.0,0.0,0.0,0.0,0.0,0.0,0.0,0.0,0.0,0.0,0.0,0.0,0.0,0.0,0.0,0.0,0.0,0.0,0.0,0.0,0.0,0.0,0.0,-1.4276,-1.6018,-1.7758,-1.945,-2.0024,-2.0314,-2.0314,-1.8849,-1.7072,0.0,0.0,0.0,0.0,0.0,0.0,0.0,0.0,0.0,0.0,0.0,0.0,0.0,0.0,0.0,0.0,0.0,0.0,0.0,0.0,0.0,0.0,0.0,0.0,0.0,0.0,0.0,0.0,0.0,0.0,0.0,0.0,0.0,0.0,0.0,0.0,0.0,0.0,0.0,0.0,0.0,0.0,0.0,0.0,0.0,0.0,0.0,0.0,0.0,0.0,0.0,0.0,0.0,0.0,0.0,0.0,0.0,0.0,0.0,0.0,0.0,0.0,0.0,0.0,0.0,0.0,0.0,0.0,0.0,0.0,0.0,0.0,0.0,0.0,0.0,0.0,0.0,0.0,0.0,0.0,0.0,0.0,0.0,0.0,0.0,0.0,0.0,0.0,0.0,0.0,0.0,0.0,0.0,0.0,0.0,0.0,0.0,0.0,0.0,0.0,0.0,0.0,0.0,-1.5802,-1.7461,-1.8952,-2.0426,-2.0715,-2.0797,-2.0797,-1.9443,-1.7497,-1.494,0.0,0.0,0.0,0.0,0.0,0.0,0.0,0.0,0.0,0.0,0.0,0.0,0.0,0.0,0.0,0.0,0.0,0.0,0.0,0.0,0.0,0.0,0.0,0.0,0.0,0.0,0.0,0.0,0.0,0.0,0.0,0.0,0.0,0.0,0.0,0.0,0.0,0.0,0.0,0.0,0.0,0.0,0.0,0.0,0.0,0.0,0.0,0.0,0.0,0.0,0.0,0.0,0.0,0.0,0.0,0.0,0.0,0.0,0.0,0.0,0.0,0.0,0.0,0.0,0.0,0.0,0.0,0.0,0.0,0.0,0.0,0.0,0.0,0.0,0.0,0.0,0.0,0.0,0.0,0.0,0.0,0.0,0.0,0.0,0.0,0.0,0.0,0.0,0.0,0.0,0.0,0.0,0.0,0.0,0.0,0.0,0.0,0.0,0.0,0.0,0.0,0.0,-1.6463,-1.8031,-1.9511,-2.1067,-2.1244,-2.1244,-2.1244,-2.0078,-1.8153,-1.5434,0.0,0.0,0.0,0.0,0.0,0.0,0.0,0.0,0.0,0.0,0.0,0.0,0.0,0.0,0.0,0.0,0.0,0.0,0.0,0.0,0.0,0.0,0.0,0.0,0.0,0.0,0.0,0.0,0.0,0.0,0.0,0.0,0.0,0.0,0.0,0.0,0.0,0.0,0.0,0.0,0.0,0.0,0.0,0.0,0.0,0.0,0.0,0.0,0.0,0.0,0.0,0.0,0.0,0.0,0.0,0.0,0.0,0.0,0.0,0.0,0.0,0.0,0.0,0.0,0.0,0.0,0.0,0.0,0.0,0.0,0.0,0.0,0.0,0.0,0.0,0.0,0.0,0.0,0.0,0.0,0.0,0.0,0.0,0.0,0.0,0.0,0.0,0.0,0.0,0.0,0.0,0.0,0.0,0.0,0.0,0.0,0.0,0.0,0.0,0.0,0.0,0.0,-1.6563,-1.8189,-1.9767,-2.148,-2.1658,-2.1658,-2.1658,-2.0669,-1.8975,-1.645,0.0,0.0,0.0,0.0,0.0,0.0,0.0,0.0,0.0,0.0,0.0,0.0,0.0,0.0,0.0,0.0,0.0,0.0,0.0,0.0,0.0,0.0,0.0,0.0,0.0,0.0,0.0,0.0,0.0,0.0,0.0,0.0,0.0,0.0,0.0,0.0,0.0,0.0,0.0,0.0,0.0,0.0,0.0,0.0,0.0,0.0,0.0,0.0,0.0,0.0,0.0,0.0,0.0,0.0,0.0,0.0,0.0,0.0,0.0,0.0,-1.0001,0.0,0.0,0.0,0.0,0.0,0.0,0.0,0.0,0.0,0.0,0.0,0.0,0.0,0.0,0.0,0.0,0.0,0.0,0.0,0.0,0.0,0.0,0.0,0.0,0.0,0.0,0.0,0.0,0.0,0.0,0.0,0.0,0.0,0.0,0.0,0.0,0.0,0.0,0.0,0.0,0.0,-1.7288,-1.942,-2.1072,-2.2051,-2.2135,-2.2135,-2.2135,-2.1028,-1.9567,-1.786,-1.5763,0.0,0.0,0.0,0.0,0.0,0.0,0.0,0.0,0.0,0.0,0.0,0.0,0.0,0.0,0.0,0.0,0.0,0.0,0.0,0.0,0.0,0.0,0.0,0.0,0.0,0.0,0.0,0.0,0.0,0.0,0.0,0.0,0.0,0.0,0.0,0.0,0.0,0.0,0.0,0.0,0.0,0.0,0.0,0.0,0.0,0.0,0.0,0.0,0.0,0.0,0.0,0.0,0.0,0.0,0.0,0.0,0.0,0.0,0.0,0.0,-1.0999,0.0,0.0,0.0,0.0,0.0,0.0,0.0,0.0,0.0,0.0,0.0,0.0,0.0,0.0,0.0,0.0,0.0,0.0,0.0,0.0,0.0,0.0,0.0,0.0,0.0,0.0,0.0,0.0,0.0,0.0,0.0,0.0,0.0,0.0,0.0,0.0,0.0,0.0,0.0,0.0,-1.818,-2.0093,-2.1528,-2.2405,-2.25,-2.2554,-2.2738,-2.144,-2.0158,-1.9044,-1.6466,0.0,0.0,0.0,0.0,0.0,0.0,0.0,0.0,0.0,0.0,0.0,0.0,0.0,0.0,0.0,0.0,0.0,0.0,0.0,0.0,0.0,0.0,0.0,0.0,0.0,0.0,0.0,0.0,0.0,0.0,0.0,0.0,0.0,0.0,0.0,0.0,0.0,0.0,0.0,0.0,0.0,0.0,0.0,0.0,0.0,0.0,0.0,0.0,0.0,0.0,0.0,0.0,0.0,-1.7365,-1.8111,-1.9737,-1.9221,-1.8977,-1.8771,-1.5339,-1.4034,-1.416,0.0,0.0,0.0,0.0,0.0,0.0,0.0,0.0,0.0,0.0,0.0,0.0,0.0,0.0,0.0,0.0,0.0,0.0,0.0,0.0,0.0,0.0,0.0,0.0,0.0,-1.9946,-1.9633,0.0,0.0,0.0,0.0,0.0,0.0,0.0,0.0,0.0,0.0,0.0,0.0,-1.9052,-2.0663,-2.1867,-2.2702,-2.2797,-2.2898,-2.3165,-2.1817,-2.0705,-2.0085,-1.7237,-1.5252,0.0,0.0,0.0,0.0,0.0,0.0,0.0,0.0,0.0,0.0,0.0,0.0,0.0,0.0,0.0,0.0,0.0,0.0,0.0,0.0,0.0,0.0,0.0,0.0,0.0,0.0,0.0,0.0,0.0,0.0,0.0,0.0,0.9982,0.938,0.0,0.0,0.0,0.0,0.0,0.0,0.0,0.0,0.0,0.0,0.0,0.0,0.0,-1.6158,-1.7317,-1.7742,-1.8196,-1.8689,-1.9172,-1.9859,-2.0727,-2.1154,-2.1436,-2.1557,-2.0844,0.0,-1.6509,-1.5957,0.0,0.0,0.0,0.0,0.0,0.0,0.0,0.0,0.0,0.0,0.0,0.0,0.0,0.0,0.0,0.0,0.0,0.0,0.0,0.0,0.0,0.0,-2.2772,-2.2154,-2.2623,-2.2854,0.0,-1.9021,-1.6784,-1.6658,-1.5675,0.0,0.0,0.0,0.0,0.0,0.0,0.0,-1.9613,-2.1617,-2.2988,-2.3117,-2.3141,-2.3141,-2.3189,-2.2007,-2.1197,-2.1126,-1.8785,-1.7164,-1.6543,-1.4717,0.0,0.0,0.0,0.0,0.0,0.0,0.0,0.0,0.0,0.0,0.0,0.0,0.0,0.0,0.0,0.0,0.0,0.0,0.0,0.0,0.0,0.0,0.0,0.0,0.0,0.0,0.0,0.0,0.0,0.7662,0.884,0.8582,0.3699,-0.169,0.0,0.0,0.0,0.0,0.0,0.0,0.0,0.0,0.0,-1.6234,-1.6486,-1.7362,-1.9018,-1.9967,-2.0589,-2.0942,-2.1953,-2.2694,-2.3169,-2.3533,-2.3706,-2.3674,-2.3698,-2.2854,-2.1297,-1.9488,-1.8539,-1.8102,0.0,0.0,0.0,0.0,-1.7134,-1.7425,-1.7901,-1.8177,0.0,0.0,0.0,0.0,0.0,0.0,0.0,0.0,0.0,0.0,0.0,0.0,0.0,-2.3429,-2.3562,-2.3663,-2.348,-2.1885,-2.0185,0.0,-1.8771,-1.7984,-1.6215,0.0,0.0,0.0,0.0,-1.9935,-2.1153,-2.2416,-2.3259,-2.3459,-2.3477,-2.3566,-2.3753,-2.2424,-2.1589,-2.1589,-1.931,-1.7859,-1.7587,-1.5506,-1.4016,0.0,0.0,0.0,0.0,0.0,0.0,0.0,0.0,0.0,0.0,0.0,0.0,0.0,0.0,0.0,0.0,0.0,0.0,0.0,0.0,0.0,0.0,0.0,0.0,0.0,0.0,0.0,0.0,0.6528,0.7612,0.7135,0.4047,0.0297,0.0,0.0,0.0,0.0,0.0,0.0,-1.2771,-1.2997,-1.4387,-1.7423,-1.7739,-1.8602,-2.0127,-2.149,-2.2204,-2.2287,-2.3541,-2.4251,-2.4452,-2.4739,-2.4819,-2.4695,-2.4961,-2.4996,-2.4666,-2.2348,-2.1319,-2.1143,-2.0394,-2.0138,-2.0225,-2.0272,-2.0336,-2.053,-2.1318,-2.1538,-2.1511,-2.159,0.0,-2.0408,-1.9654,0.0,0.0,0.0,0.0,-2.1345,-2.2189,-2.285,-2.3456,-2.4061,-2.4016,-2.3896,-2.4151,-2.3816,-2.3027,0.0,-2.146,-2.0877,-1.858,0.0,0.0,0.0,0.0,-2.1259,-2.2473,-2.312,-2.3544,-2.3795,-2.3816,-2.3917,-2.417,-2.2721,-2.1803,-2.1803,-1.9675,-1.8408,-1.8408,-1.6298,-1.4989,-1.4764,0.0,0.0,0.0,0.0,0.0,0.0,0.0,0.0,0.0,0.0,0.0,0.0,0.0,0.0,0.0,0.0,0.0,0.0,0.0,0.0,0.0,0.0,0.0,0.0,0.0,0.0,0.0,0.0,0.0,0.5124,0.5323,0.0,0.0,0.0,0.0,-0.7977,-0.9658,-1.1802,-1.4681,-1.5084,-1.6265,-1.8563,-1.9436,-1.9988,-2.0283,-2.1628,-2.2073,-2.1668,-2.2676,-2.3165,-2.321,-2.3784,-2.4055,-2.406,-2.4593,-2.4774,-2.4643,-2.3863,-2.3385,-2.3101,-2.2481,-2.2098,-2.1878,-2.1872,-2.2327,-2.2882,-2.27,-2.2629,-2.274,-2.3565,-2.2887,-2.1875,-2.2773,-2.1784,0.0,0.0,-2.2795,-2.307,-2.3878,-2.4116,-2.4153,-2.419,-2.419,-2.417,-2.4208,-2.417,-2.4037,0.0,-2.2953,-2.2391,-2.2247,0.0,-2.1602,-2.1602,-2.2318,-2.2868,-2.296,-2.3656,-2.4151,-2.417,-2.417,-2.417,-2.419,-2.2721,-2.1803,-2.1803,-2.0205,-1.9234,-1.9234,-1.7674,-1.6355,-1.5478,-1.3079,0.0,0.0,0.0,0.0,0.0,0.0,0.0,0.0,0.0,0.0,0.0,0.0,0.0,0.0,0.0,0.0,0.0,0.0,0.0,0.0,0.0,0.0,0.0,0.0,0.0,0.0,0.0,0.0,0.2463,0.2402,0.0,-0.2121,-0.3457,-0.5571,-0.8984,-0.9059,-1.0201,-1.3048,-1.3267,-1.4163,-1.5998,-1.7061,-1.8021,-1.8801,-2.027,-2.1038,-2.11,-2.1766,-2.2334,-2.2797,-2.3129,-2.3465,-2.3764,-2.4081,-2.4236,-2.4264,-2.436,-2.4495,-2.4632,-2.4419,-2.4306,-2.4221,-2.3904,-2.3969,-2.4125,-2.3637,-2.3605,-2.3861,-2.4353,-2.4161,-2.3802,-2.4159,-2.3791,-2.3363,-2.3832,-2.4066,-2.4188,-2.4335,-2.4495,-2.4543,-2.4409,-2.4393,-2.4357,-2.4228,-2.419,-2.417,-2.4036,-2.3797,-2.3432,-2.2902,-2.3125,-2.3162,-2.2648,-2.3254,-2.3768,-2.3768,-2.4025,-2.419,-2.419,-2.419,-2.419,-2.419,-2.2721,-2.1803,-2.1803,-1.973,-1.8537,-1.8537,-1.6977,-1.5973,-1.5642,-1.3776,-1.2373,0.0,0.0,0.0,0.0,0.0,0.0,0.0,0.0,0.0,0.0,0.0,0.0,0.0,0.0,0.0,0.0,0.0,0.0,0.0,0.0,0.0,0.0,0.0,0.0,0.0,0.0,0.2719,0.1149,0.0945,-0.0138,-0.2831,-0.3765,-0.5344,-0.8151,-0.8522,-0.9644,-1.2155,-1.2771,-1.3755,-1.5401,-1.6342,-1.7195,-1.8037,-1.9525,-2.032,-2.0391,-2.1037,-2.1602,-2.2067,-2.22,-2.2424,-2.273,-2.3063,-2.3229,-2.3304,-2.398,-2.4475,-2.4866,-2.5254,-2.5405,-2.5389,-2.5079,-2.4974,-2.4949,-2.4569,-2.4544,-2.4723,-2.4955,-2.494,-2.4837,-2.4885,-2.4839,-2.4762,-2.4654,-2.47,-2.4775,-2.4639,-2.47,-2.4775,-2.4623,-2.4591,-2.4561,-2.4339,-2.4357,-2.4357,-2.4228,-2.419,-2.4025,-2.3511,-2.3859,-2.4025,-2.3492,-2.3859,-2.419,-2.419,-2.419,-2.419,-2.419,-2.419,-2.419,-2.419,-2.2721,-2.182,-2.1869,-1.9743,-1.8548,-1.8587,-1.6999,-1.6096,-1.6096,-1.4272,-1.3041,-1.2499,0.0,0.0,0.0,0.0,0.0,0.0,0.0,0.0,0.0,0.0,0.0,0.0,0.0,0.0,0.0,0.0,0.0,0.0,0.0,0.0,0.0,0.0,0.0,0.2078,0.286,0.2858,0.1297,0.1282,0.0731,-0.1005,-0.315,-0.4732,-0.5464,-0.8088,-1.0473,-1.2348,-1.3744,-1.5269,-1.6988,-1.7463,-1.7807,-1.8052,-1.9424,-1.9947,-1.9621,-2.0501,-2.0959,-2.0959,-2.0959,-2.1007,-2.1039,-2.1553,-2.1792,-2.1858,-2.2792,-2.3381,-2.3784,-2.4923,-2.5349,-2.5292,-2.5292,-2.5347,-2.5414,-2.5464,-2.537,-2.5245,-2.5428,-2.5229,-2.494,-2.5069,-2.4977,-2.4822,-2.4847,-2.4837,-2.4818,-2.4856,-2.4837,-2.4818,-2.4804,-2.4804,-2.476,-2.4543,-2.4654,-2.4685,-2.4284,-2.4209,-2.4209,-2.419,-2.4227,-2.4209,-2.4209,-2.4209,0.0,-2.4209,-2.4209,-2.4209,-2.419,-2.419,-2.419,-2.419,-2.2721,-2.1852,-2.1993,-2.028,-1.9343,-1.9545,-1.7844,-1.689,-1.6853,-1.4573,-1.3353,-1.3335,0.0,0.0,0.0,0.0,0.0,0.0,0.0,0.0,0.0,0.0,0.0,0.0,0.0,0.0,0.0,0.0,0.0,0.0,0.0,0.0,0.0,0.0,0.2504,0.2373,0.2288,0.1937,0.1064,0.0158,-0.1021,-0.2552,-0.3726,-0.5321,-0.7639,-0.8508,-0.9636,-1.118,-1.1644,-1.228,-1.3267,-1.4225,-1.5413,-1.6783,-1.7598,-1.8589,-1.966,-1.9543,-1.9834,-2.0483,-2.0483,-2.0682,-2.0991,-2.1163,-2.1376,-2.1703,-2.2349,-2.2851,-2.3299,-2.4283,-2.4811,-2.5042,-2.5166,-2.5299,-2.5403,-2.543,-2.5386,-2.5352,-2.5347,-2.5352,-2.5335,-2.5321,-2.5287,-2.5346,-2.583,-2.557,-2.5271,-2.5774,-2.5538,-2.5126,-2.4981,-2.4956,-2.4898,-2.4741,-2.476,-2.4775,-2.4654,-2.4639,-2.4526,-2.4266,-2.4321,-2.4428,-2.4428,-2.4545,0.0,-2.4445,-2.4428,-2.4357,-2.4209,-2.419,-2.419,-2.419,-2.2721,-2.1852,-2.1993,-1.9745,-1.8513,-1.8715,-1.7549,-1.6633,-1.6041,-1.538,-1.4738,0.0,0.0,0.0,0.0,0.0,0.0,0.0,0.0,0.0,0.0,0.0,0.0,0.0,0.0,0.0,0.0,0.0,0.0,0.0,0.0,0.0,0.0,0.2746,0.2571,0.1971,0.162,0.12,0.0594,-0.0717,-0.2006,-0.3219,-0.3993,-0.5144,-0.6817,-0.777,-0.8613,-0.9393,-1.0289,-1.1258,-1.219,-1.2907,-1.4049,-1.5612,-1.6456,-1.7356,-1.8338,-1.8482,-1.8864,-1.939,-1.9621,-1.9849,0.0,-2.0364,-2.0599,-2.083,-2.1324,-2.1754,0.0,0.0,0.0,0.0,0.0,-2.5678,-2.5874,-2.6243,-2.6437,-2.6518,-2.6498,-2.6525,-2.6576,-2.654,-2.6539,-2.6617,-2.6988,-2.6804,-2.6476,-2.6496,-2.6214,-2.5764,-2.5278,-2.516,-2.5077,-2.4917,-2.4949,-2.4981,-2.4832,-2.4842,0.0,-2.4512,-2.4561,-2.4591,-2.4512,-2.467,-2.476,-2.4639,-2.4623,-2.4575,-2.4461,-2.4375,-2.4357,-2.4444,-2.3122,0.0,0.0,0.0,-1.9008,-1.8507,-1.7863,0.0,0.0,0.0,0.0,0.0,0.0,0.0,0.0,-1.6463,-1.6094,0.0,0.0,0.0,0.0,0.0,0.0,0.0,0.0,0.0,0.0,0.0,0.0,0.0,0.0,0.0,0.0,0.29,0.2535,0.1279,0.0927,0.0595,-0.0055,-0.1336,-0.2508,-0.3289,-0.407,-0.4577,-0.4761,-0.648,-0.761,-0.7806,0.0,0.0,0.0,0.0,-1.3243,-1.4687,-1.564,-1.6194,-1.6409,-1.7328,-1.784,-1.7906,-1.8391,-1.8622,-1.8727,-1.9281,-1.9588,-1.9711,-2.0124,-2.0534,-2.1116,-2.2957,-2.3897,-2.4366,-2.5524,-2.6089,-2.6427,-2.7282,0.0,0.0,-2.8008,-2.8017,-2.8049,-2.8049,-2.7998,-2.7969,-2.8061,-2.7951,-2.7653,-2.6949,-2.6679,-2.6371,-2.5592,-2.5341,-2.5253,-2.5077,-2.5173,-2.5222,-2.491,-2.4956,-2.4986,-2.4842,-2.4814,-2.4756,-2.4591,-2.4731,-2.4861,-2.4832,-2.4814,-2.4818,-2.4804,0.0,0.0,-2.479,-2.3733,-2.2933,-2.2665,-2.1601,-2.0407,-1.9076,-1.8819,-1.8335,-1.7524,-1.7429,-1.7674,-1.8272,-1.9169,-1.9963,-2.0594,-1.8449,-1.7825,0.0,0.0,0.0,0.0,0.0,0.0,0.0,0.0,0.0,0.0,0.0,0.0,0.0,0.0,0.0,0.2911,0.2588,0.2049,0.1228,0.0556,-0.0111,-0.0781,-0.1673,-0.2508,-0.3234,-0.4015,-0.5064,-0.6501,-0.6956,-0.783,-0.9194,-0.9432,-1.0149,-1.1565,-1.1319,-1.2299,-1.4597,-1.4424,-1.4982,-1.6321,0.0,0.0,-1.6645,-1.677,-1.7085,-1.7545,-1.8101,-1.8806,-1.9636,-2.0093,-2.0863,-2.1826,-2.2537,-2.3173,-2.3771,-2.4574,-2.5207,-2.5783,-2.6555,-2.7075,-2.7452,-2.74,-2.7561,-2.7769,-2.7721,-2.7362,0.0,-2.7827,-2.7017,-2.6043,-2.6583,-2.6232,-2.5687,-2.5456,-2.539,-2.536,-2.5253,-2.5274,-2.5274,-2.5222,-2.5214,-2.5173,-2.4986,-2.4962,-2.4949,-2.4911,-2.5065,-2.513,-2.4974,-2.4962,-2.493,-2.4818,-2.476,-2.476,-2.4804,-2.394,-2.3445,-2.3545,-2.2723,-2.2057,-2.1601,-2.0934,-2.0205,-1.9386,-1.9993,-1.9957,-1.9318,-2.0778,-2.1504,-2.1528,-2.107,-2.0941,0.0,0.0,0.0,0.0,0.0,0.0,0.0,0.0,0.0,0.0,0.0,0.3333,0.0,0.0,0.3054,0.2634,0.2019,0.1396,0.0671,0.0224,-0.028,-0.1006,-0.173,-0.2508,-0.3289,-0.407,-0.4912,-0.5821,-0.623,-0.6837,-0.7822,-0.8479,-0.9249,-1.0294,-1.0478,-1.131,-1.2929,-1.3152,-1.3742,-1.4541,-1.4925,-1.5217,-1.5504,-1.5997,-1.6372,-1.6673,-1.7437,-1.81,-1.8687,-1.9577,-2.0442,-2.1249,-2.2116,-2.2865,-2.3601,-2.4813,-2.5504,-2.6004,-2.7053,-2.7627,-2.7979,-2.811,-2.8252,-2.843,-2.864,-2.8222,-2.7765,-2.8332,-2.7581,-2.6629,-2.6716,-2.6426,-2.5987,-2.555,-2.5413,-2.5394,-2.5361,-2.5341,-2.5341,-2.5341,-2.5322,-2.5283,-2.5201,-2.5171,-2.513,-2.5022,-2.5163,-2.5264,-2.5163,-2.5152,-2.5118,-2.5068,-2.4962,-2.493,-2.5037,-2.4286,-2.3809,-2.3797,-2.311,-2.2661,-2.2541,-2.2095,-2.1662,-2.1255,-2.1555,-2.145,-2.0952,-2.2154,-2.273,-2.2663,-2.2982,-2.2882,0.0,0.0,0.0,0.0,0.0,0.0,0.0,0.0,0.3306,0.3353,0.3569,0.3713,0.3673,0.3258,0.2705,0.2111,0.1507,0.0838,0.0112,-0.0112,-0.0448,-0.1006,-0.173,-0.2565,-0.3511,-0.415,-0.4681,-0.4951,-0.5568,-0.6079,-0.6389,-0.756,-0.8599,-0.9467,-0.9827,-1.0492,-1.1358,-1.2081,-1.2414,-1.2499,-1.3637,-1.4176,-1.4283,-1.518,-1.5715,-1.5972,-1.7003,-1.7493,-1.7669,-1.8785,-1.9503,-2.009,-2.1178,-2.2095,-2.3052,-2.4861,-2.5687,-2.6079,-2.7295,-2.7914,-2.8215,-2.8594,-2.8747,-2.8839,-2.9175,-2.878,-2.8232,-2.8298,-2.7783,-2.7094,-2.6605,-2.6437,-2.6248,-2.5638,-2.5444,-2.541,-2.5403,-2.5408,-2.5428,-2.5409,-2.537,-2.535,-2.5399,-2.537,-2.5253,-2.5088,-2.5203,-2.5303,-2.5303,-2.5303,-2.5303,-2.5303,-2.5152,-2.5111,-2.5293,-2.4716,-2.4255,-2.4091,-2.3583,-2.3293,-2.3293,-2.3035,-2.2889,-2.2889,-2.2723,-2.2633,-2.2596,-2.3398,-2.3769,-2.3766,-2.432,-2.4091,0.3962,0.3713,0.3671,0.4599,0.4168,0.3833,0.0,0.0,0.3797,0.3366,0.3379,0.3237,0.2534,0.2323,0.2055,0.1339,0.1174,0.0838,0.0112,-0.056,-0.1006,-0.1118,-0.173,-0.2788,-0.4236,-0.4585,-0.5071,-0.5938,-0.6231,-0.6782,-0.7747,-0.7636,-0.8254,-0.97,-0.9359,-0.9971,-1.1662,-1.1256,-1.1175,-1.145,-1.1917,-1.2354,-1.2796,-1.3457,-1.4297,-1.5286,-1.6402,-1.7147,-1.7622,-1.7763,-1.8204,-1.8801,-1.8945,-1.9816,-2.1194,-2.3437,-2.4498,-2.4895,-2.5762,-2.6286,-2.6642,-2.7178,-2.7441,-2.7558,-2.7441,-2.7159,-2.6765,-2.6085,-2.5532,-2.5163,-2.5264,-2.534,-2.5379,-2.5407,-2.5443,-2.5464,-2.5418,-2.5459,-2.5466,-2.5409,-2.5437,-2.546,-2.5408,-2.539,-2.536,-2.5283,-2.5293,-2.5303,-2.5303,-2.5303,-2.5303,-2.5303,-2.5274,-2.5274,-2.5303,-2.5207,-2.5168,-2.5129,-2.5072,-2.5014,-2.5014,-2.4322,-2.3938,-2.3938,-2.3909,-2.3821,-2.3641,-2.4441,-2.4778,-2.4653,-2.4718,-2.4598,0.393,0.3787,0.3784,0.4345,0.4225,0.4065,0.461,0.4075,0.3472,0.3366,0.301,0.2621,0.2286,0.1842,0.1452,0.0,0.0727,0.0336,0.0056,-0.028,-0.0615,-0.1062,-0.1397,-0.2176,-0.3735,-0.4294,-0.4829,-0.5374,-0.5517,-0.5797,-0.6453,-0.6841,-0.73,-0.7985,-0.8589,-0.9225,-0.9985,-1.0349,-1.0592,-1.0732,-1.1046,-1.1422,-1.1807,-1.2343,-1.3268,-1.4619,-1.5581,-1.6094,-1.6385,-1.7185,-1.7716,-1.8019,-1.8806,-1.9459,-2.0161,-2.1883,-2.2903,-2.3498,-2.4516,-2.4958,-2.5211,-2.6065,-2.6601,-2.6909,-2.7045,-2.6915,-2.6548,-2.5881,-2.5336,-2.4918,-2.4676,-2.4866,-2.5118,-2.5201,-2.5337,-2.5435,-2.5403,-2.5453,-2.5498,-2.5467,-2.5483,-2.5506,-2.5505,-2.5487,-2.5449,-2.5428,-2.5341,-2.5303,-2.5303,-2.5303,-2.5303,-2.5303,-2.5303,-2.5303,-2.5303,-2.5303,-2.5303,-2.5303,-2.5303,-2.5303,-2.5303,-2.4986,-2.4793,-2.4793,-2.4793,-2.4764,-2.4664,-2.5009,-2.516,-2.5091,-2.4968,-2.4858,0.382,0.3761,0.3839,0.4033,0.4113,0.4207,0.4244,0.3714,0.3143,0.3106,0.2454,0.1842,0.1619,0.1174,0.0783,0.0783,0.0336,0.0,0.0,-0.0168,-0.0504,-0.1062,-0.1284,-0.1842,-0.2954,-0.3766,-0.4343,-0.4591,-0.4832,-0.5091,-0.5415,-0.6009,-0.6593,-0.7046,-0.7986,-0.8707,-0.9278,-0.9856,-1.0169,-1.0248,-1.0608,-1.0937,-1.1343,-1.1922,-1.278,-1.3906,-1.4746,-1.4932,-1.4855,-1.6331,-1.6804,-1.6738,-1.7886,-1.8472,-1.8775,-1.9724,-2.0721,-2.1829,-2.2864,-2.3325,-2.3679,-2.4798,-2.5509,-2.5994,-2.6366,-2.6398,-2.616,-2.5486,-2.5167,-2.4894,-2.4357,-2.4538,-2.4905,-2.5037,-2.5206,-2.533,-2.5387,-2.5446,-2.5496,-2.5473,-2.5503,-2.5541,-2.5575,-2.5551,-2.5537,-2.5524,-2.5427,-2.5348,-2.5332,-2.5303,-2.5303,-2.5303,-2.5303,-2.5303,-2.5303,-2.5303,-2.5303,-2.5303,-2.5303,-2.5303,-2.5303,-2.5303,-2.5303,-2.5303,-2.5303,-2.5303,-2.5303,-2.5303,-2.5303,-2.5303,-2.5152,-2.5088,0.3667,0.3687,0.3863,0.4113,0.419,0.4231,0.4426,0.3898,0.3174,0.2397,0.1675,0.0895,0.0224,0.0056,0.0056,0.0056,0.0,0.0,0.0,-0.0615,-0.1062,-0.1118,-0.173,-0.2174,0.0,-0.3101,-0.3679,-0.3801,-0.4603,-0.5192,-0.5418,-0.5428,-0.621,-0.7897,-0.7681,-0.8487,-1.0541,-1.002,-0.9872,-1.0087,-1.0523,-1.0935,-1.1316,-1.2442,-1.2984,-1.307,-1.3914,-1.3786,-1.3191,-1.4805,-1.4982,-1.4382,-1.5216,-1.5968,-1.6595,-1.6641,-1.789,-1.9687,-2.0437,-2.1145,-2.1881,-2.3142,-2.3971,-2.4531,-2.4789,-2.508,-2.5135,-2.4229,-2.436,-2.4707,-2.415,-2.4246,-2.4588,-2.4937,-2.5056,-2.5149,-2.5361,-2.5447,-2.5487,-2.5426,-2.5502,-2.5579,-2.5507,-2.5566,-2.5595,-2.5601,-2.5536,-2.5473,-2.5418,-2.5341,-2.5303,-2.5303,-2.5303,-2.5303,-2.5303,-2.5303,-2.5303,-2.5303,-2.5303,-2.5303,-2.5303,-2.5303,-2.5303,-2.5303,-2.5303,-2.5303,-2.5303,-2.5303,-2.5303,-2.5303,-2.5284,-2.5284,0.3982,0.4009,0.4141,0.4341,0.4392,0.4402,0.4508,0.3511,0.2508,0.2232,0.1207,0.0273,0.0056,0.0,0.0,0.0,0.0,0.0,0.0,-0.0228,-0.0344,-0.0393,-0.0571,0.0,0.0,0.0,0.0,-0.2938,-0.3722,-0.433,-0.4475,-0.509,-0.569,-0.6276,-0.6729,-0.756,-0.8865,-0.8477,-0.8847,-1.0114,-1.0246,-1.0366,-1.053,-1.1684,-1.2205,-1.2266,-1.3061,-1.3243,-1.307,-1.3606,-1.3674,-1.3425,-1.3726,-1.3957,-1.4186,-1.4186,-1.4594,-1.5595,-1.8289,-1.9444,-1.9838,-2.1165,-2.2224,-2.3182,-2.3759,-2.4788,-2.5512,-2.416,-2.4327,-2.4699,-2.3723,-2.383,-2.4245,-2.4601,-2.4866,-2.5061,-2.5118,-2.529,-2.5418,-2.5406,-2.5459,-2.5532,-2.5564,-2.5595,-2.5615,-2.5653,-2.5579,-2.5498,-2.5476,-2.5409,-2.537,-2.537,-2.5322,-2.5303,-2.5303,-2.5303,-2.5303,-2.5303,-2.5303,-2.5303,-2.5303,-2.5303,-2.5303,-2.5303,-2.5303,-2.5303,-2.5303,-2.5303,-2.5303,-2.5303,-2.5303,-2.5303,0.4143,0.4197,0.4231,0.4426,0.4519,0.4408,0.4181,0.3121,0.2112,0.1867,0.0863,0.0,0.0,0.0,0.0,0.0,0.0,0.0,0.0,0.0,0.0,0.0,0.0,0.0,0.0,0.0,0.0,-0.2023,-0.2855,-0.3507,-0.4005,-0.4553,-0.5219,-0.5815,-0.6396,-0.7111,-0.7962,-0.7756,-0.8378,-0.9835,-0.9835,-0.9959,-1.0281,-1.1016,-1.1344,-1.1406,-1.2205,-1.2397,-1.2212,-1.2765,-1.2826,-1.2573,-1.2887,-1.3009,-1.3009,-1.3009,-1.3009,-1.3399,-1.6371,-1.7461,-1.7769,-1.9183,-2.0324,-2.136,-2.2527,-2.3733,-2.4544,-2.3721,-2.3997,-2.4228,-2.3111,-2.3147,-2.3635,-2.4192,-2.4498,-2.47,-2.4955,-2.5138,-2.5271,-2.536,-2.5428,-2.549,-2.5511,-2.5576,-2.5603,-2.5651,-2.5606,-2.5563,-2.5537,-2.5483,-2.5443,-2.5438,-2.539,-2.5341,-2.5341,-2.5303,-2.5303,-2.5303,-2.5303,-2.5303,-2.5303,-2.5303,-2.5303,-2.5303,-2.5303,-2.5303,-2.5303,-2.5303,-2.5303,-2.5303,-2.5303,-2.5303,0.4197,0.42,0.4237,0.4429,0.446,0.4239,0.3569,0.2728,0.1929,0.1226,0.0528,0.0,0.0,0.0,0.0,0.0,0.0,0.0,0.0,0.0,0.0,0.0,0.0,0.0,0.0,0.0,0.0,-0.1173,0.0,-0.2862,-0.3808,-0.3949,-0.4806,-0.6523,-0.6588,-0.7046,-0.7897,-0.7962,-0.842,-0.9139,-0.9204,-0.9658,-1.0498,-1.0498,-1.0498,-1.0491,-1.1274,-1.1156,-1.0618,-1.2081,-1.232,-1.1764,-1.2443,-1.2757,-1.2826,-1.2826,-1.2757,-1.2984,-1.4545,-1.5243,-1.5722,-1.7277,-1.8239,-1.9092,-2.0994,-2.1903,-2.2396,-2.2827,-2.3215,-2.326,-2.2336,-2.2346,-2.2807,-2.3735,-2.3988,-2.4172,-2.4801,-2.4967,-2.5065,-2.5253,-2.5341,-2.5409,-2.5409,-2.5517,-2.5585,-2.5586,-2.5644,-2.5664,-2.5605,-2.5556,-2.551,-2.5513,-2.5457,-2.5399,-2.5409,-2.5341,-2.5303,-2.5303,-2.5303,-2.5303,-2.5303,-2.5303,-2.5303,-2.5303,-2.5303,-2.5303,-2.5303,-2.5303,-2.5303,-2.5303,-2.5303,-2.5303,0.4197,0.4328,0.4416,0.4508,0.407,0.3566,0.3345,0.2296,0.1331,0.1132,0.049,0.0,0.0,0.0,0.0,0.0,0.0,0.0,0.0,0.0,0.0,0.0,0.0,0.0,0.0,0.0,0.0,0.0,-0.1155,-0.1693,-0.2006,-0.3278,-0.4212,-0.4677,-0.5348,-0.6141,-0.7046,-0.7697,-0.7767,-0.7372,-0.8027,-0.842,-0.8672,-0.8672,-0.8672,-0.8672,-0.8854,-0.886,-0.8672,-0.9105,-0.9558,-0.9894,-0.9424,-0.9679,-1.0212,-1.0212,-0.9812,-0.9597,-1.1905,-1.3017,-1.3648,-1.5395,-1.6267,-1.6933,-1.8819,-2.0186,-2.1036,-2.1024,-2.1438,-2.1917,-2.207,-2.2163,-2.2443,-2.3206,-2.371,-2.4044,-2.4225,-2.4657,-2.5022,-2.5077,-2.5241,-2.5409,-2.5409,-2.547,-2.5531,-2.5524,-2.5576,-2.5644,-2.5664,-2.5623,-2.5576,-2.5562,-2.5517,-2.5478,-2.5467,-2.5409,-2.537,-2.537,-2.5322,-2.5303,-2.5303,-2.5303,-2.5303,-2.5303,-2.5303,-2.5303,-2.5303,-2.5303,-2.5303,-2.5303,-2.5303,-2.5303,0.4341,0.4402,0.4519,0.4519,0.4181,0.3663,0.2952,0.2177,0.138,0.0728,0.0274,0.0,0.0,0.0,0.0,0.0,0.0,0.0,0.0,0.0,0.0,0.0,0.0,0.0,0.0,0.0,0.0,0.0,-0.046,-0.0926,-0.1272,-0.2277,-0.3211,-0.3949,-0.4486,-0.5216,-0.6141,-0.6597,-0.6789,-0.6719,-0.7177,-0.7632,-0.8027,-0.8027,-0.8027,-0.8027,0.0,-0.8027,-0.8027,-0.8027,-0.8285,-0.8678,-0.8221,-0.8285,-0.8748,-0.8748,-0.842,-0.8205,-0.9531,-1.01,-1.0667,-1.3232,-1.4035,-1.4474,-1.6642,-1.782,-1.8526,-1.9106,-1.9762,-2.0317,-2.0538,-2.1097,-2.1795,-2.2539,-2.3094,-2.3484,-2.3717,-2.4188,-2.4657,-2.4943,-2.5182,-2.537,-2.537,-2.5409,-2.5456,-2.5464,-2.554,-2.56,-2.5644,-2.5644,-2.5644,-2.5644,-2.5576,-2.5538,-2.5546,-2.5464,-2.5406,-2.539,-2.5341,-2.5303,-2.5303,-2.5303,-2.5303,-2.5303,-2.5303,-2.5303,-2.5303,-2.5303,-2.5303,-2.5303,-2.5303,-2.5303,0.4519,0.4519,0.4519,0.4519,0.4408,0.3978,0.2507,0.2108,0.1663,0.0272,0.0,0.0,0.0,0.0,0.0,0.0,0.0,0.0,0.0,0.0,0.0,0.0,0.0,0.0,0.0,0.0,0.0,0.0,0.0,-0.0337,-0.1073,-0.1207,-0.2075,-0.3749,-0.3949,-0.4417,-0.5226,-0.5359,-0.5749,-0.6523,-0.6523,-0.6915,-0.7637,-0.7637,-0.7637,-0.7637,0.0,0.0,-0.7637,-0.7637,-0.7702,-0.7827,-0.7702,-0.7702,-0.7827,-0.7797,-0.7723,-0.7624,-0.7653,-0.7431,-0.7629,-1.0967,-1.1849,-1.2028,-1.4468,-1.5275,-1.5626,-1.7051,-1.7989,-1.8535,-1.8513,-1.9562,-2.0879,-2.1645,-2.2245,-2.2745,-2.3209,-2.3676,-2.419,-2.4847,-2.513,-2.5264,-2.5264,-2.5331,-2.539,-2.539,-2.5486,-2.5584,-2.5597,-2.5644,-2.5703,-2.5703,-2.5644,-2.5605,-2.5605,-2.5496,-2.5434,-2.5438,-2.537,-2.5303,-2.5303,-2.5303,-2.5303,-2.5303,-2.5303,-2.5303,-2.5303,-2.5303,-2.5303,-2.5303,-2.5303,-2.5303,0.4519,0.4519,0.4519,0.4519,0.407,0.3369,0.2401,0.1714,0.0,0.0173,0.0,0.0,0.0,0.0,0.0,0.0,0.0,0.0,0.0,0.0,0.0,0.0,0.0,0.0,0.0,0.0,0.0,0.0,0.0,-0.0067,-0.0202,-0.094,-0.1808,-0.2878,-0.3613,-0.4082,-0.4217,-0.5024,-0.5495,-0.562,-0.562,-0.5686,-0.5818,-0.5818,-0.5818,-0.5818,-0.5818,0.0,-0.5818,-0.5818,-0.6272,-0.685,-0.6141,-0.6268,-0.6898,-0.674,-0.6244,-0.5776,-0.7067,-0.6915,-0.6534,-0.9349,-1.0045,-1.0228,-1.2444,-1.3414,-1.3982,-1.4889,-1.5635,-1.6391,-1.7622,-1.8493,-1.9284,-2.0293,-2.1374,-2.2218,-2.2319,-2.3209,-2.4173,-2.4737,-2.4956,-2.5046,-2.5046,-2.5203,-2.5322,-2.5322,-2.539,-2.5451,-2.5503,-2.5615,-2.5703,-2.5703,-2.5684,-2.5684,-2.5684,-2.5603,-2.557,-2.5572,-2.5447,-2.539,-2.539,-2.5322,-2.5303,-2.5303,-2.5303,-2.5303,-2.5303,-2.5303,-2.5303,-2.5303,-2.5303,-2.5303,0.4519,0.4519,0.4519,0.4519,0.4236,0.367,0.2446,0.0,0.0,0.0241,0.0,0.0,0.0,0.0,0.0,0.0,0.0,0.0,0.0,0.0,0.0,0.0,0.0,0.0,0.0,0.0,0.0,0.0,0.0,0.0,0.0,-0.0806,-0.1474,-0.1941,-0.2878,-0.3345,-0.3345,-0.3749,-0.4015,-0.4015,-0.4015,-0.4015,-0.4015,-0.4015,-0.4015,-0.4015,-0.4015,0.0,-0.4686,-0.4686,-0.5216,-0.6009,-0.5557,-0.5567,-0.5864,-0.5788,-0.5395,-0.5119,-0.5795,-0.5677,-0.5485,-0.7033,-0.8114,-0.9049,-1.0681,-1.1423,-1.2044,-1.32,-1.4011,-1.4777,-1.5868,-1.737,-1.8745,-1.9248,-2.0639,-2.1886,-2.2068,-2.2976,-2.3874,-2.4296,-2.4724,-2.501,-2.501,-2.5163,-2.5303,-2.5303,-2.537,-2.5408,-2.5441,-2.5567,-2.5664,-2.5703,-2.5703,-2.5703,-2.5703,-2.5644,-2.5598,-2.56,-2.5499,-2.5437,-2.539,-2.537,-2.5341,-2.5303,-2.5303,-2.5303,-2.5303,-2.5303,-2.5303,-2.5303,-2.5303,-2.5303,0.4519,0.4519,0.4519,0.4519,0.4494,0.4037,0.2532,0.2195,0.1746,0.03,0.0,0.0,0.0,0.0,0.0,0.0,0.0,0.0,0.0,0.0,0.0,0.0,0.0,0.0,0.0,0.0,0.0,0.0,0.0,0.0,0.0,-0.0672,-0.1006,-0.1006,-0.1942,-0.241,-0.241,-0.2611,-0.2678,-0.2678,-0.2678,-0.2678,-0.2676,-0.2727,-0.272,-0.2718,-0.2703,0.0,0.0,-0.3713,-0.4127,-0.4818,-0.4791,-0.4711,-0.4607,-0.4552,-0.4593,-0.4606,-0.4458,-0.4525,-0.4734,-0.5156,-0.6358,-0.7835,-0.9099,-0.9716,-1.0256,-1.1623,-1.262,-1.3377,-1.4025,-1.5984,-1.7907,-1.8469,-2.0061,-2.1595,-2.2012,-2.275,-2.3448,-2.3852,-2.4393,-2.4815,-2.4937,-2.5118,-2.5253,-2.5284,-2.5341,-2.539,-2.5409,-2.5488,-2.5595,-2.5664,-2.5684,-2.5703,-2.5703,-2.5644,-2.5625,-2.5625,-2.5564,-2.5503,-2.5449,-2.5427,-2.539,-2.5322,-2.5303,-2.5303,-2.5303,-2.5303,-2.5303,-2.5303,-2.5303,-2.5303,0.4519,0.4519,0.4519,0.4519,0.4365,0.3871,0.2516,0.0,0.1639,0.026,0.0,0.0,0.0,0.0,0.0,0.0,0.0,0.0,0.0,0.0,0.0,0.0,0.0,0.0,0.0,0.0,0.0,0.0,0.0,0.0,0.0,-0.0067,-0.0135,-0.0135,-0.094,-0.1407,-0.1407,-0.2277,-0.2678,-0.2678,-0.2678,-0.2678,-0.2674,-0.2671,-0.2704,-0.27,-0.2695,0.0,0.0,-0.2832,-0.2875,-0.2937,-0.2927,-0.2955,-0.2929,-0.2777,-0.3128,-0.3693,-0.3513,-0.3919,-0.4536,-0.4574,-0.5124,-0.6096,-0.7829,-0.8597,-0.9095,-1.0217,-1.1197,-1.2141,-1.2802,-1.3968,-1.5603,-1.8023,-1.9871,-2.1259,-2.1955,-2.2434,-2.2954,-2.3592,-2.3928,-2.4243,-2.4723,-2.4943,-2.5088,-2.5274,-2.5303,-2.5322,-2.539,-2.5408,-2.5467,-2.5604,-2.5664,-2.5703,-2.5703,-2.5684,-2.5684,-2.5684,-2.5625,-2.5584,-2.5583,-2.546,-2.5409,-2.539,-2.5322,-2.5303,-2.5303,-2.5303,-2.5303,-2.5303,-2.5303,-2.5303,0.4494,0.4519,0.4519,0.4519,0.4133,0.3465,0.2439,0.1795,0.1174,0.0214,0.0,0.0,0.0,0.0,0.0,0.0,0.0,0.0,0.0,0.0,0.0,0.0,0.0,0.0,0.0,0.0,0.0,0.0,0.0,0.0,0.0,0.0,0.0,0.0,-0.0337,-0.0538,-0.0538,-0.0858,-0.1048,-0.1047,-0.1094,-0.1084,-0.1083,-0.1071,-0.0814,-0.0437,-0.0866,0.0,0.0,-0.0997,-0.1254,-0.139,-0.1877,-0.1971,-0.1935,-0.2364,-0.2605,-0.2725,-0.2689,-0.2843,-0.3176,-0.3622,-0.4009,-0.4508,-0.6124,-0.729,-0.8256,-0.9104,-0.9941,-1.0864,-1.1904,-1.3381,-1.5213,-1.7676,-1.8914,-1.989,-2.1163,-2.1927,-2.2556,-2.3259,-2.3728,-2.4137,-2.454,-2.4818,-2.5022,-2.5099,-2.5224,-2.5303,-2.5341,-2.539,-2.5444,-2.5525,-2.5603,-2.5664,-2.5703,-2.5668,-2.5671,-2.5703,-2.5644,-2.5605,-2.5605,-2.554,-2.549,-2.539,-2.537,-2.5341,-2.5303,-2.5303,-2.5303,-2.5303,-2.5303,-2.5303,0.4358,0.4429,0.4519,0.4519,0.3883,0.31,0.2381,0.1584,0.0833,0.0139,0.0,0.0,0.0,0.0,0.0,0.0,0.0,0.0,0.0,0.0,0.0,0.0,0.0,0.0,0.0,0.0,0.0,0.0,0.0,0.0,0.0,0.0649,0.046,0.0,0.0,0.0,0.0,0.0,0.0,0.0,0.0,0.0,0.0,0.0244,0.0608,0.1092,0.0,0.0,0.0,0.0484,0.0243,0.0305,-0.0242,-0.0416,-0.0349,-0.0925,-0.1307,-0.156,-0.156,-0.1839,-0.2343,-0.3065,-0.3345,-0.3619,-0.4831,-0.6086,-0.7224,-0.8165,-0.9221,-1.0364,-1.1516,-1.3192,-1.5058,-1.6866,-1.7938,-1.8943,-2.0286,-2.1303,-2.2124,-2.2762,-2.328,-2.3773,-2.4264,-2.4545,-2.4774,-2.4967,-2.5111,-2.5224,-2.5284,-2.5341,-2.5409,-2.5466,-2.5532,-2.5602,-2.5683,-2.5667,-2.5646,-2.5665,-2.5629,-2.5607,-2.5605,-2.5572,-2.5537,-2.5421,-2.5408,-2.537,-2.5303,-2.5303,-2.5303,-2.5303,-2.5303,-2.5303,0.4157,0.4355,0.4519,0.4519,0.3816,0.2957,0.2323,0.1547,0.0724,0.0137,0.0,0.0,0.0,0.0,0.0,0.0,0.0,0.0,0.0,0.0,0.0,0.0,0.0,0.0,0.0,0.0,0.0,0.0,0.0,0.0,0.0,0.2151,0.1477,0.0062,0.0,0.0,0.0,0.0,0.0,0.0,0.0,0.0,0.0,0.0775,0.1116,0.0,0.0,0.0,0.0,0.1409,0.1495,0.2143,0.2136,0.2169,0.2159,0.2146,0.1226,0.0,0.0,-0.1002,-0.2343,-0.3121,-0.3345,-0.3456,-0.4239,-0.5003,-0.581,-0.7283,-0.9221,-1.0965,-1.1616,-1.3192,-1.4756,-1.536,-1.7115,-1.8774,-1.9468,-2.0668,-2.1715,-2.204,-2.2424,-2.2992,-2.3853,-2.4007,-2.4242,-2.4898,-2.501,-2.5077,-2.5274,-2.5303,-2.5322,-2.539,-2.5453,-2.5558,-2.5683,-2.5703,-2.5671,-2.5601,-2.5592,-2.5596,-2.5605,-2.5544,-2.5506,-2.5508,-2.5429,-2.537,-2.5303,-2.5303,-2.5303,-2.5303,-2.5303,-2.5303,0.2783,0.3115,0.3334,0.3005,0.2546,0.2061,0.1574,0.1092,0.0622,0.0102,0.0269,0.037,0.0067,0.0,0.0,0.0,0.0427,0.074,0.0749,0.0,0.0,0.1518,0.1805,0.0,0.0,0.0,0.0,0.0,0.0,0.0,0.0,0.2187,0.1966,0.1537,0.149,0.149,0.1476,0.1506,0.1488,0.1488,0.1515,0.1498,0.1498,0.1766,0.0,0.0,0.0,0.0,0.0,0.3001,0.3135,0.3735,0.3182,0.3001,0.2943,0.2406,0.1895,0.1504,0.1504,0.0892,-0.0056,-0.0835,-0.1393,-0.2065,-0.3345,-0.4556,-0.5814,-0.7283,-0.8488,-0.9614,-1.0805,-1.1877,-1.3155,-1.5037,-1.6009,-1.706,-1.9163,-1.9924,-2.0603,-2.1864,-2.2207,-2.2539,-2.3338,-2.3751,-2.4063,-2.4293,-2.4622,-2.4896,-2.4936,-2.5049,-2.5113,-2.5197,-2.5339,-2.5498,-2.5624,-2.5625,-2.5612,-2.5601,-2.5563,-2.5541,-2.5531,-2.5512,-2.5485,-2.5429,-2.5408,-2.537,-2.5303,-2.5303,-2.5303,-2.5303,-2.5303,-2.5303,0.2442,0.2608,0.2626,0.2471,0.2117,0.1735,0.1421,0.1131,0.086,0.0543,0.0737,0.0839,0.0536,0.0503,0.048,0.0477,0.0955,0.1307,0.0,0.0,0.0,0.2601,0.0,0.0,0.0,0.0,0.0,0.0,0.0,0.0,0.0,0.3049,0.308,0.308,0.2518,0.2221,0.2194,0.2209,0.2187,0.2185,0.2198,0.2174,0.223,0.2508,0.0,0.0,0.0,0.0,0.0,0.4058,0.4391,0.5226,0.4446,0.4168,0.4113,0.3342,0.2899,0.2619,0.2621,0.2176,0.1395,0.0667,-0.0278,-0.1281,-0.2225,-0.3935,-0.5706,-0.6632,-0.7741,-0.8888,-0.9769,-1.0897,-1.2229,-1.4036,-1.5004,-1.6077,-1.8254,-1.9178,-1.9978,-2.1162,-2.1559,-2.191,-2.266,-2.3059,-2.3448,-2.3931,-2.4279,-2.4567,-2.4756,-2.4917,-2.5027,-2.5067,-2.5264,-2.5448,-2.5559,-2.5597,-2.5583,-2.5565,-2.5523,-2.5486,-2.5466,-2.5453,-2.5441,-2.5409,-2.5409,-2.537,-2.5303,-2.5303,-2.5303,-2.5303,-2.5303,-2.5303,0.0,0.2702,0.2268,0.2651,0.2273,0.1777,0.1744,0.1516,0.0,0.1316,0.1335,0.1335,0.135,0.1316,0.132,0.1341,0.1535,0.0,0.0,0.208,0.0,0.0,0.0,0.0,0.0,0.0,0.0,0.0,0.0,0.0,0.0,0.4625,0.457,0.4625,0.327,0.2472,0.2343,0.2343,0.2343,0.2343,0.2343,0.2343,0.2397,0.3121,0.0,0.0,0.0,0.0,0.0,0.4761,0.5311,0.6534,0.5873,0.5597,0.5487,0.4897,0.4122,0.3453,0.3508,0.301,0.2173,0.1444,0.0166,-0.0998,-0.0998,-0.3042,-0.5378,-0.5429,-0.6924,-0.8574,-0.8678,-1.0171,-1.1855,-1.2628,-1.4093,-1.5656,-1.6876,-1.8359,-1.9606,-2.0128,-2.0616,-2.1197,-2.1927,-2.2079,-2.2514,-2.3755,-2.3969,-2.4173,-2.4697,-2.4891,-2.4986,-2.4986,-2.5231,-2.5428,-2.5486,-2.5566,-2.558,-2.5511,-2.5492,-2.5466,-2.5409,-2.5409,-2.539,-2.539,-2.539,-2.537,-2.5303,-2.5303,-2.5303,-2.5303,-2.5303,-2.5303,0.2218,0.0,0.1682,0.1417,0.1511,0.1569,0.0,0.1401,0.1496,0.1319,0.1519,0.1698,0.1697,0.1608,0.1614,0.1816,0.0,0.0,0.278,0.0,0.0,0.0,0.0,0.0,0.0,0.0,0.0,0.0,0.0,0.0,0.0,0.5546,0.5546,0.6095,0.5749,0.503,0.3959,0.3959,0.3959,0.3959,0.3959,0.3959,0.3959,0.4181,0.0,0.0,0.0,0.0,0.5483,0.532,0.576,0.6588,0.6421,0.6367,0.6312,0.615,0.5655,0.4992,0.4992,0.4168,0.301,0.2171,0.0945,-0.0278,-0.0278,-0.1943,-0.4003,-0.4488,-0.5851,-0.732,-0.8423,-0.9467,-1.0704,-1.2376,-1.3137,-1.4,-1.6127,-1.722,-1.8152,-1.9483,-2.0162,-2.0732,-2.1565,-2.1943,-2.239,-2.327,-2.3617,-2.3903,-2.4303,-2.4654,-2.4842,-2.4842,-2.5126,-2.537,-2.5486,-2.5566,-2.5585,-2.5581,-2.5525,-2.5466,-2.5409,-2.5341,-2.5322,-2.5322,-2.5322,-2.5322,-2.5303,-2.5303,-2.5303,-2.5303,-2.5303,-2.5303,0.193,0.1744,0.146,0.1417,0.1649,0.1822,0.1648,0.1873,0.2077,0.1951,0.209,0.2222,0.2297,0.2255,0.2292,0.0,0.3013,0.0,0.0,0.0,0.0,0.0,0.0,0.0,0.0,0.0,0.0,0.0,0.0,0.0,0.0,0.6204,0.6199,0.6588,0.6588,0.6209,0.5445,0.5445,0.5445,0.5445,0.5445,0.5445,0.5445,0.5445,0.5445,0.0,0.0,0.0,0.6519,0.6519,0.6956,0.7557,0.7235,0.7128,0.7074,0.675,0.6367,0.5982,0.5982,0.5265,0.4223,0.3508,0.2449,0.1501,0.1501,-0.0056,-0.2112,-0.3498,-0.4707,-0.5855,-0.6924,-0.8258,-0.957,-1.0655,-1.1603,-1.2811,-1.4733,-1.5782,-1.6868,-1.8536,-1.9302,-1.9939,-2.0862,-2.1319,-2.184,-2.2591,-2.3124,-2.3588,-2.3917,-2.4458,-2.4804,-2.4804,-2.5103,-2.5341,-2.5447,-2.5517,-2.5562,-2.5607,-2.554,-2.5468,-2.539,-2.5341,-2.5303,-2.5303,-2.5303,-2.5303,-2.5303,-2.5303,-2.5253,-2.5163,-2.5163,-2.513,0.1861,0.169,0.1597,0.1915,0.213,0.2262,0.2262,0.2444,0.2625,0.2706,0.2712,0.274,0.294,0.2995,0.0,0.0,0.0,0.0,0.417,0.0,0.0,0.0,0.0,0.0,0.0,0.0,0.0,0.0,0.0,0.0,0.0,0.6804,0.6804,0.6912,0.6912,0.6912,0.6912,0.6696,0.6588,0.6588,0.6588,0.6588,0.6588,0.6588,0.6588,0.0,0.0,0.0,0.7723,0.7723,0.8156,0.8752,0.8103,0.7883,0.7777,0.7182,0.6858,0.675,0.6642,0.6091,0.5433,0.4842,0.4067,0.3289,0.3289,0.1947,-0.0111,-0.2225,-0.3495,-0.4426,-0.5148,-0.6758,-0.8298,-0.8626,-0.9987,-1.1626,-1.3027,-1.4338,-1.5721,-1.729,-1.8232,-1.9089,-2.0024,-2.0516,-2.1086,-2.1984,-2.2686,-2.3259,-2.3649,-2.4352,-2.4804,-2.4804,-2.5103,-2.5322,-2.5409,-2.5471,-2.554,-2.5604,-2.5532,-2.546,-2.5399,-2.5322,-2.5303,-2.5303,-2.5303,-2.5303,-2.5303,-2.5303,-2.5203,-2.501,-2.501,-2.4943,0.207,0.2298,0.2395,0.2071,0.223,0.2458,0.2458,0.2348,0.2348,0.2628,0.2712,0.2805,0.3165,0.3388,0.3575,0.0,0.0,0.4212,0.0,0.0,0.0,0.0,0.0,0.0,0.0,0.0,0.0,0.0,0.0,0.0,0.0,0.7883,0.783,0.8427,0.848,0.848,0.848,0.7235,0.6588,0.6588,0.6588,0.6588,0.6588,0.6588,0.6588,0.0,0.0,0.702,0.7723,0.7723,0.8156,0.8804,0.8699,0.8646,0.8593,0.848,0.8049,0.745,0.6804,0.6091,0.5487,0.5378,0.4446,0.34,0.34,0.2674,0.1504,-0.0056,-0.1938,-0.3649,-0.4371,-0.5287,-0.6464,-0.8246,-0.8933,-0.9688,-1.1576,-1.3403,-1.4888,-1.5635,-1.7113,-1.8559,-1.9534,-1.9763,-2.0322,-2.1864,-2.2426,-2.2951,-2.361,-2.4352,-2.4804,-2.4804,-2.5103,-2.5341,-2.5466,-2.5485,-2.5556,-2.5691,-2.5571,-2.5441,-2.5322,-2.5303,-2.5303,-2.5303,-2.5303,-2.5303,-2.5303,-2.5303,-2.5203,-2.501,-2.501,-2.4943,0.1954,0.2269,0.2599,0.2693,0.2819,0.3067,0.356,0.3517,0.3464,0.3728,0.3781,0.3846,0.4136,0.0,0.4528,0.5186,0.0,0.0,0.0,0.0,0.0,0.0,0.0,0.0,0.0,0.0,0.0,0.0,0.0,0.0,0.0,0.0,0.8427,0.8804,0.8804,0.8804,0.8804,0.8508,0.8131,0.7777,0.7777,0.7777,0.7777,0.7777,0.7777,0.7777,0.0,0.799,0.8321,0.8321,0.8685,0.9361,0.9361,0.9562,0.9814,0.9458,0.889,0.8209,0.7456,0.6961,0.6632,0.6199,0.5374,0.4553,0.4553,0.3996,0.3164,0.2112,0.0222,-0.1774,-0.2941,-0.4039,-0.5179,-0.6147,-0.6972,-0.8047,-0.9731,-1.1012,-1.2349,-1.4089,-1.5647,-1.7086,-1.8498,-1.9214,-2.0047,-2.1303,-2.1978,-2.2522,-2.3093,-2.397,-2.4526,-2.4526,-2.4998,-2.5341,-2.5447,-2.5487,-2.5531,-2.5589,-2.5531,-2.5448,-2.5313,-2.5303,-2.5303,-2.5303,-2.5303,-2.5303,-2.5303,-2.5203,-2.5053,-2.4891,-2.478,-2.4651,0.1869,0.2191,0.2652,0.3224,0.3365,0.3615,0.4626,0.4688,0.4609,0.4871,0.4965,0.5044,0.0,0.5204,0.0,0.6319,0.6526,0.0,0.0,0.0,0.0,0.0,0.0,0.0,0.0,0.0,0.0,0.0,0.0,0.0,0.0,0.0,0.8804,0.8804,0.8804,0.8804,0.8804,0.9316,0.9361,0.9061,0.9211,0.9263,0.9263,0.9263,0.9263,0.9263,0.9263,0.9263,0.9263,0.9263,0.9562,1.0012,1.0012,1.0364,1.0762,1.0218,0.9614,0.8949,0.856,0.8184,0.7818,0.7272,0.6617,0.5964,0.5814,0.537,0.4758,0.4106,0.2658,0.083,-0.1167,-0.2496,-0.3484,-0.4036,-0.514,-0.6455,-0.7659,-0.8703,-1.0073,-1.2455,-1.3906,-1.5381,-1.7451,-1.8474,-1.9468,-2.0634,-2.1486,-2.2107,-2.2521,-2.3476,-2.415,-2.429,-2.4809,-2.5205,-2.5406,-2.5505,-2.5531,-2.5507,-2.5503,-2.5447,-2.5303,-2.5264,-2.5253,-2.5303,-2.5253,-2.5253,-2.5303,-2.5099,-2.4924,-2.479,-2.4591,-2.4393,0.21,0.2327,0.2676,0.338,0.3579,0.3856,0.4983,0.5068,0.4992,0.5519,0.5791,0.5906,0.0,0.6131,0.6334,0.6577,0.0,0.0,0.0,0.0,0.0,0.0,0.0,0.0,0.0,0.0,0.0,0.0,0.0,0.0,0.0,0.0,0.0,0.8804,0.8804,0.8804,0.8804,0.8857,0.9159,0.971,1.0364,1.0661,1.0661,1.0661,1.0661,1.0661,1.0661,1.0661,1.0661,1.0661,1.0661,1.072,1.072,1.0762,1.0813,1.0771,1.0312,0.9814,1.0364,0.9725,0.8633,0.8574,0.8035,0.7346,0.6681,0.6475,0.6303,0.5562,0.5225,0.4287,0.0776,-0.0222,-0.0832,-0.2877,-0.3981,-0.4751,-0.5554,-0.7261,-0.911,-1.0615,-1.1916,-1.3736,-1.6741,-1.7329,-1.806,-2.0043,-2.1022,-2.1691,-2.2079,-2.2959,-2.3742,-2.4238,-2.4512,-2.4881,-2.5432,-2.5608,-2.5624,-2.5516,-2.5503,-2.5447,-2.5303,-2.5111,-2.5111,-2.5303,-2.5111,-2.5111,-2.5303,-2.5099,-2.4924,-2.479,-2.4591,-2.4393,0.2416,0.2735,0.3203,0.4122,0.4557,0.5018,0.5902,0.6188,0.6378,0.683,0.7018,0.7036,0.0,0.0,0.7927,0.7978,0.0,0.0,0.0,0.0,0.0,0.0,0.0,0.0,0.0,0.0,0.0,0.0,0.0,0.0,0.0,0.0,0.0,1.0064,1.0064,1.0064,1.0064,1.0466,1.0813,1.1065,1.0466,1.0415,1.0813,1.0813,1.0813,1.0813,1.0813,1.0813,1.0813,1.0813,1.1065,1.1466,1.194,1.1832,1.1416,1.1416,1.1015,1.0466,1.0712,1.045,1.0033,1.0033,0.9496,0.8802,0.81,0.7894,0.7682,0.6504,0.6504,0.6108,0.287,0.1712,0.0938,-0.083,-0.1828,-0.2819,-0.447,-0.5429,-0.6531,-0.8397,-1.0205,-1.2042,-1.3945,-1.5318,-1.6853,-1.895,-1.9745,-2.0527,-2.1635,-2.2906,-2.3764,-2.3971,-2.4686,-2.5255,-2.5473,-2.5613,-2.5638,-2.5507,-2.5503,-2.5447,-2.5303,-2.5099,-2.5034,-2.5111,-2.4956,-2.4956,-2.5111,-2.4836,-2.4727,-2.479,-2.4461,-2.4266,0.276,0.3143,0.373,0.4797,0.5516,0.624,0.7218,0.7517,0.7758,0.8514,0.8705,0.8705,0.8705,0.0,0.0,0.0,0.0,0.0,0.0,0.0,0.0,0.0,0.0,0.0,0.0,0.0,0.0,0.0,0.0,0.0,0.0,0.0,0.0,0.0,1.0813,1.0813,1.0813,1.1266,1.1616,1.1765,1.0864,1.0771,1.1484,1.1484,1.1484,1.1484,1.1484,1.1484,1.1484,1.1484,1.1873,1.2453,1.2754,1.2696,1.2444,1.2444,1.2003,1.1449,1.1648,1.1598,1.1449,1.1449,1.0931,1.025,0.979,0.9496,0.9148,0.8212,0.8277,0.81,0.5645,0.3954,0.2587,0.1329,0.0277,-0.0886,-0.2654,-0.3207,-0.4078,-0.646,-0.8059,-0.969,-1.1805,-1.3474,-1.5358,-1.7749,-1.8672,-1.9576,-2.1022,-2.2418,-2.3428,-2.3916,-2.4828,-2.5432,-2.5498,-2.5611,-2.5637,-2.5517,-2.5503,-2.5447,-2.5303,-2.5099,-2.501,-2.501,-2.4883,-2.4842,-2.4943,-2.4651,-2.4559,-2.47,-2.4357,-2.419,0.3104,0.3451,0.4126,0.5387,0.6356,0.7425,0.8962,0.8925,0.895,1.0491,1.0813,1.0813,1.0813,1.0813,0.0,0.0,0.0,0.0,0.0,0.0,0.0,0.0,0.0,0.0,0.0,0.0,0.0,0.0,0.0,0.0,0.0,0.0,0.0,0.0,1.0813,1.0813,1.0813,1.0813,1.1166,1.1814,1.1814,1.2187,1.2881,1.2881,1.2881,1.2881,1.2881,1.2881,1.2881,1.2929,1.3238,1.3732,1.3152,1.3286,1.3815,1.3815,1.3369,1.2918,1.3569,1.3369,1.2822,1.2822,1.2385,1.1805,1.176,1.1282,1.0813,1.0813,1.0813,1.0501,0.9096,0.6577,0.4258,0.3484,0.2213,0.0943,0.0167,-0.0555,-0.1932,-0.4819,-0.5362,-0.6697,-1.0753,-1.1987,-1.3496,-1.6512,-1.789,-1.9009,-2.0181,-2.1362,-2.2666,-2.415,-2.4835,-2.5269,-2.5479,-2.5611,-2.5637,-2.5517,-2.5503,-2.5447,-2.5303,-2.5099,-2.501,-2.501,-2.485,-2.479,-2.4804,-2.461,-2.4495,-2.4495,-2.4284,-2.419,0.3669,0.4414,0.5387,0.648,0.7685,0.9021,1.0435,1.0288,1.0033,1.0647,1.0813,1.0813,1.0813,1.0813,0.0,0.0,0.0,0.0,0.0,0.0,0.0,0.0,0.0,0.0,0.0,0.0,0.0,0.0,0.0,0.0,0.0,0.0,0.0,0.0,1.2264,1.2264,1.2264,1.2264,1.2363,1.2559,1.3006,1.3122,1.2881,1.2881,1.2881,1.2881,1.2881,1.2881,1.292,1.3372,1.3647,1.3815,1.4061,1.4294,1.4422,1.4422,1.4318,1.4168,1.4365,1.4318,1.4122,1.4122,1.3982,1.3726,1.327,1.2696,1.2083,1.1571,1.114,1.0712,1.0297,0.8808,0.6844,0.4634,0.3759,0.2929,0.1164,0.0167,-0.0721,-0.2096,-0.3618,-0.5329,-0.7576,-0.8952,-1.1125,-1.5195,-1.6322,-1.7927,-2.135,-2.2085,-2.2829,-2.4168,-2.467,-2.5018,-2.5265,-2.5533,-2.5637,-2.5517,-2.5503,-2.5447,-2.5303,-2.5012,-2.4869,-2.4869,-2.4543,-2.4444,-2.4575,-2.4393,-2.4357,-2.4495,-2.4284,-2.419,0.4907,0.5661,0.6568,0.7857,0.897,1.0092,1.1649,1.1682,1.1456,1.1589,1.1633,1.1633,1.1633,1.1633,0.0,0.0,0.0,0.0,0.0,0.0,0.0,0.0,0.0,0.0,0.0,0.0,0.0,0.0,0.0,0.0,0.0,0.0,0.0,0.0,1.2881,1.2881,1.2881,1.2881,1.3017,1.3238,1.3647,1.3732,1.361,1.361,1.361,1.361,1.361,1.361,1.3658,1.4014,1.4318,1.4549,1.4652,1.4835,1.505,1.505,1.505,1.505,1.505,1.505,1.505,1.505,1.488,1.4652,1.4505,1.4043,1.3443,1.3032,1.2648,1.2269,1.2024,1.1338,0.989,0.6823,0.5878,0.5062,0.2872,0.2263,0.1762,0.0441,-0.1319,-0.2954,-0.4173,-0.5774,-0.8375,-1.2649,-1.4896,-1.7358,-2.0918,-2.1378,-2.2057,-2.3785,-2.4395,-2.4793,-2.5021,-2.5455,-2.5609,-2.5396,-2.539,-2.531,-2.5192,-2.4981,-2.4855,-2.4804,-2.4478,-2.4339,-2.4375,-2.4134,-2.4057,-2.4174,-2.4057,-2.3996,0.6307,0.6901,0.7637,0.9351,1.0132,1.0963,1.256,1.2881,1.2881,1.2881,0.0,1.2881,1.2881,1.2881,0.0,0.0,0.0,0.0,0.0,0.0,0.0,0.0,0.0,0.0,0.0,0.0,0.0,0.0,0.0,0.0,0.0,0.0,0.0,1.3065,1.3065,1.3065,1.3065,1.3065,1.3334,0.0,1.3956,1.4236,1.4789,1.4744,1.4698,1.4698,1.4698,1.4698,1.4698,1.4744,1.5096,1.5543,1.5062,1.5197,1.5676,1.5764,1.572,1.5676,1.5764,1.5752,1.5752,1.5752,1.5365,1.505,1.5576,1.532,1.4835,1.4789,1.4789,1.4641,1.3939,1.3752,1.2944,0.9877,0.8534,0.7418,0.5329,0.5313,0.5073,0.3011,0.1433,0.0165,-0.0815,-0.2607,-0.5316,-0.9392,-1.3414,-1.6823,-1.9,-1.9644,-2.0815,-2.3231,-2.4021,-2.4522,-2.4819,-2.533,-2.5498,-2.5226,-2.5152,-2.5088,-2.4993,-2.4943,-2.4853,-2.4756,-2.4543,-2.4338,-2.4151,-2.3837,-2.3692,-2.3692,-2.3671,-2.3649,0.5756,0.7066,0.8592,0.9842,1.1259,1.2434,1.2812,1.2881,1.2881,1.2881,1.2881,1.2881,1.2881,0.0,0.0,0.0,0.0,0.0,0.0,0.0,0.0,0.0,0.0,0.0,0.0,0.0,0.0,0.0,0.0,0.0,1.36,0.0,0.0,1.4294,1.4294,1.4294,1.4294,1.4294,1.4387,0.0,1.5005,1.5264,1.541,1.4926,1.4698,1.4698,1.4698,1.4698,1.4744,1.5231,1.5499,1.5632,1.5964,1.6194,1.6367,1.6769,1.6685,1.6367,1.6811,1.6925,1.6925,1.6925,1.6841,1.6786,1.6883,1.6519,1.5959,1.5531,1.5374,1.5217,1.463,1.41,1.3496,1.2801,1.1643,1.0342,0.8834,0.8126,0.7385,0.5863,0.4846,0.3312,0.0271,-0.0597,-0.2511,-0.7097,-1.1205,-1.4139,-1.5118,-1.846,-2.1432,-2.3219,-2.3545,-2.4046,-2.5084,-2.5127,-2.5116,-2.5177,-2.4802,-2.4659,-2.4847,-2.4447,-2.4276,-2.4409,-2.4044,-2.384,-2.3816,-2.3753,-2.3692,-2.3692,-2.3414,-2.3323,0.6194,0.7466,0.8894,1.0504,1.1914,1.2881,1.2881,1.2881,1.2881,1.2881,1.2881,1.2881,0.0,0.0,0.0,0.0,0.0,0.0,0.0,0.0,0.0,0.0,0.0,0.0,0.0,0.0,0.0,0.0,0.0,1.3152,1.3779,1.3815,1.4097,1.4698,1.4698,1.4698,1.4698,1.4698,1.4835,1.5141,1.5454,1.5764,1.6008,1.57,1.5567,1.5567,1.5567,1.5567,1.5611,1.6201,1.6403,1.6489,1.705,1.7118,1.6951,1.7504,1.7353,1.6951,1.7504,1.7666,1.7666,1.7666,1.7666,1.7666,1.7666,1.745,1.7177,1.6886,1.6777,1.668,1.6396,1.6059,1.5731,1.5492,1.396,1.2215,1.0846,1.0276,0.9718,0.87,0.7622,0.6315,0.4439,0.1812,-0.0845,-0.3329,-0.785,-1.1947,-1.4726,-1.7229,-1.9657,-2.1991,-2.3129,-2.3944,-2.4611,-2.4728,-2.4643,-2.4357,-2.4277,-2.4241,-2.4172,-2.3814,-2.3794,-2.4153,-2.3707,-2.3544,-2.3692,-2.3392,-2.3282,-2.3437,-2.3117,-2.2972,0.6656,0.7783,0.9107,1.1106,1.225,1.2966,1.3045,1.3162,1.32,1.32,1.3065,1.2929,0.0,0.0,0.0,0.0,0.0,0.0,0.0,0.0,0.0,0.0,0.0,0.0,0.0,0.0,0.0,0.0,0.0,1.3467,1.4097,1.4097,1.4365,1.4971,1.5017,1.5017,1.5017,1.5017,1.5242,1.5776,1.5776,1.6083,1.6637,1.6637,1.6595,1.6522,1.671,1.671,1.668,1.7229,1.7422,1.7463,1.7947,1.7827,1.7504,1.8027,1.7907,1.7504,1.8066,1.8263,1.8263,1.8263,1.8263,1.8263,1.8263,1.8263,1.8263,1.821,1.8288,1.8327,1.8235,1.8235,1.8118,1.7639,1.6034,1.4144,1.2606,1.2397,1.232,1.1607,1.0188,0.8998,0.8813,0.4403,0.0886,0.0774,-0.3755,-0.8655,-1.2923,-1.3495,-1.5613,-2.1228,-2.3284,-2.4277,-2.4277,-2.4607,-2.4382,-2.347,-2.3431,-2.3378,-2.3205,-2.2845,-2.2917,-2.3521,-2.3257,-2.3236,-2.3522,-2.2905,-2.278,-2.3093,-2.2703,-2.2512,0.5684,0.7583,0.9795,1.1253,1.2351,1.3194,1.359,0.0,1.4479,0.0,1.361,0.0,0.0,0.0,0.0,0.0,0.0,0.0,0.0,0.0,0.0,0.0,0.0,0.0,0.0,0.0,0.0,0.0,1.4479,1.4744,1.532,1.5353,1.5644,1.625,1.625,1.625,1.625,1.625,1.6293,1.638,1.638,1.6667,1.7188,1.7188,1.6951,1.6552,1.7463,1.7626,1.7229,1.7787,1.7987,1.7987,1.8066,1.8066,1.8066,1.8612,1.8458,1.8066,1.8612,1.8779,1.8779,1.8779,1.8779,1.8779,1.8779,1.8779,1.8788,1.8731,1.9045,1.9302,1.8844,1.8717,1.8679,1.8603,1.8369,1.7571,1.5525,1.546,1.5509,1.4672,1.283,1.1027,0.9635,0.6832,0.4536,0.3806,0.0927,-0.1379,-0.2069,-0.2175,-0.8059,-2.3435,-2.5305,-2.5469,-2.5469,-2.5524,-2.4952,-2.3498,-2.181,-2.1242,-2.2002,-2.0926,-2.0762,-2.1658,-2.2392,-2.2797,-2.2848,-2.2398,-2.2371,-2.2746,-2.2074,-2.1744,0.6109,0.7654,0.9298,1.0863,1.1809,1.2584,1.3628,1.4071,1.4328,1.4642,0.0,0.0,0.0,0.0,0.0,0.0,0.0,0.0,0.0,0.0,0.0,0.0,0.0,0.0,0.0,0.0,0.0,0.0,1.4698,1.4971,1.5588,1.5588,1.5864,1.6466,1.6522,1.6522,1.6522,1.6522,1.6522,1.6522,1.6795,1.7076,1.7312,1.7907,1.7907,1.7435,1.7907,1.7987,1.7787,1.8341,1.8712,1.8948,1.9244,1.9287,1.9294,1.957,1.9519,1.933,1.9585,1.9671,1.9743,1.9974,1.9919,1.9743,1.9989,1.9884,1.9728,1.9978,2.0028,2.0008,2.0012,2.0032,1.9893,1.9345,1.9632,1.9782,1.884,1.7852,1.7061,1.6673,1.5356,1.4179,1.3884,1.0547,0.8195,0.8996,0.3908,0.0,0.0,0.0,-0.2893,-1.0481,-1.1298,-1.5204,-2.4889,-2.2537,-2.0257,-1.9564,-1.9617,-1.9927,-2.0432,-1.9752,-1.9501,-1.9713,-2.0983,-2.1723,-2.1933,-2.1836,-2.1749,-2.1558,-2.1348,-2.1263,0.6342,0.7314,0.8297,1.0054,1.1036,1.1951,0.0,0.0,1.4313,0.0,0.0,0.0,0.0,0.0,0.0,0.0,0.0,0.0,0.0,0.0,0.0,0.0,0.0,0.0,0.0,0.0,0.0,0.0,1.5152,1.5332,1.582,1.582,1.6051,1.6479,1.6522,1.6522,1.6522,1.6637,1.6752,1.6909,1.7312,1.7585,1.7747,1.8535,1.8765,1.8496,1.8496,1.8419,1.8327,1.8977,1.9456,1.9834,2.0299,2.0452,2.0405,2.0467,2.0452,2.0405,2.0467,2.0483,2.055,2.0894,2.0748,2.055,2.0894,2.0764,2.0583,2.1023,2.091,2.0732,2.118,2.1228,2.0991,2.0325,2.0718,2.1194,2.0875,1.971,1.8578,1.8262,1.7644,1.7183,1.7196,1.4016,1.1805,1.2783,0.7936,0.4207,0.4207,0.5557,0.4861,0.044,0.0,-0.5207,-1.8085,-1.4958,-1.3514,-1.6304,-1.7436,-1.8166,-1.8527,-1.8134,-1.781,-1.7636,-1.8912,-1.9924,-2.0607,-2.0799,-2.0703,-2.0382,-2.0728,-2.0798,0.5648,0.6172,0.6894,0.8601,1.0179,1.1653,0.0,0.0,0.0,0.0,0.0,0.0,0.0,0.0,0.0,0.0,0.0,0.0,0.0,0.0,0.0,0.0,0.0,0.0,0.0,0.0,0.0,0.0,1.6423,1.6423,1.6466,1.6466,1.6466,1.6522,1.6522,1.6522,1.6522,1.6993,1.7504,1.8027,1.8066,1.8341,1.8817,1.8855,1.9169,1.9603,1.9603,1.9332,1.893,1.9849,2.0246,2.0314,2.0797,2.0959,2.0959,2.0959,2.0959,2.0959,2.0959,2.0959,2.0959,2.0991,2.0991,2.0959,2.0991,2.0991,2.1055,2.146,2.1552,2.1595,2.1955,2.1816,2.1625,2.191,2.1995,2.1703,2.0508,2.0703,2.0765,1.9552,1.9775,1.9526,1.7552,1.6645,1.5386,1.3248,1.4482,1.5632,1.5632,2.0756,1.8102,0.1727,0.0,-0.0387,-0.1281,-0.1037,-0.5333,-1.5863,-1.5508,-1.5299,-1.6163,-1.5386,-1.5024,-1.5289,-1.5956,-1.7116,-1.8659,-1.8862,-1.9119,-1.9491,-2.0197,-2.0226,0.5643,0.5911,0.6405,0.8036,0.9147,1.0235,1.1773,1.2985,1.3973,0.0,0.0,0.0,0.0,0.0,0.0,0.0,0.0,0.0,0.0,0.0,0.0,0.0,0.0,0.0,0.0,0.0,0.0,0.0,0.0,1.6522,1.6522,1.6522,1.668,1.6993,1.6993,1.7188,1.7504,1.7706,1.7907,1.8106,1.8458,1.8688,1.8893,1.9244,1.9645,2.0089,2.0089,1.9984,1.9814,2.0162,2.0634,2.1165,2.1337,2.1584,2.1781,2.1507,2.1584,2.1781,2.1477,2.1399,2.143,2.1751,2.1777,2.1753,2.2012,2.1898,2.184,2.2451,2.2289,2.204,2.266,2.2712,2.266,2.2788,2.313,2.3206,2.2304,2.195,2.1776,2.1675,2.0965,2.0527,2.097,1.8504,1.7042,1.8688,1.9684,2.0747,2.2219,2.4335,2.3339,1.7147,1.419,1.2624,1.2624,0.4872,-0.139,-0.4691,-0.5144,-0.8234,-1.4873,-1.3542,-1.2919,-1.3536,-1.3807,-1.4706,-1.6312,-1.7566,-1.7938,-1.7478,-1.852,-1.9041,0.5479,0.5629,0.6074,0.0,0.8289,0.9089,1.0883,0.0,1.2893,0.0,0.0,0.0,0.0,0.0,0.0,0.0,0.0,0.0,0.0,0.0,0.0,0.0,0.0,0.0,0.0,0.0,0.0,0.0,0.0,0.0,1.6752,1.6752,1.6993,1.7544,1.7585,1.7827,1.838,1.838,1.8458,1.865,1.914,1.9346,1.9398,1.9914,2.0261,2.0516,2.0516,2.0516,2.055,2.0667,2.1102,2.1628,2.1764,2.2032,2.2254,2.1957,2.2101,2.2381,2.1969,2.1878,2.2005,2.222,2.2309,2.2344,2.2617,2.2583,2.2565,2.3052,2.2838,2.2591,2.3212,2.3369,2.3369,2.3369,2.3714,2.3958,2.3681,2.317,2.2814,2.3051,2.2255,2.1939,2.3186,2.1002,1.995,2.2539,2.3228,2.3983,2.5517,2.5703,2.5703,2.5703,2.2616,2.0345,1.9747,1.0957,0.4847,0.3293,0.1212,-0.2949,-0.9481,-0.9758,-1.0458,-1.184,-1.1859,-1.233,-1.3319,-1.5404,-1.6216,-1.5872,-1.7012,-1.8083,0.0,0.0,0.0,0.0,0.0,0.0,1.0177,0.0,0.0,0.0,0.0,0.0,0.0,0.0,0.0,0.0,0.0,0.0,0.0,0.0,0.0,0.0,0.0,0.0,0.0,0.0,0.0,0.0,1.6471,1.6701,1.7218,1.73,1.7545,1.8051,1.809,1.8324,1.8902,1.8902,1.9177,1.9711,2.0124,2.0314,2.0348,2.0797,2.1007,2.1023,2.1023,2.1039,2.1055,2.143,2.1628,2.1658,2.2106,2.231,2.231,2.231,2.249,2.2643,2.2398,2.2517,2.2686,2.2415,2.25,2.2721,2.2721,2.2972,2.323,2.323,2.3212,2.3282,2.3649,2.3735,2.3735,2.3735,2.3735,2.3862,2.4373,2.4264,2.3931,2.3599,2.3686,2.3804,2.3823,2.4063,2.4247,2.4247,2.5062,2.5703,2.5703,2.5703,2.5664,2.5603,2.3615,2.1584,1.9889,1.7678,1.3626,0.7058,0.2725,0.0314,0.0157,-0.3912,-0.7349,-0.9866,-1.0044,-1.0043,-0.9769,-1.2338,-1.395,-1.4663,-1.5926,-1.7382,0.533,0.0,0.0,0.0,0.0,0.0,0.0,0.0,0.0,0.0,0.0,0.0,0.0,0.0,0.0,0.0,0.0,0.0,0.0,0.0,0.0,0.0,0.0,0.0,0.0,0.0,0.0,0.0,1.5776,1.5956,1.6399,1.6794,1.7098,1.7242,1.7609,1.812,1.8747,1.908,1.9546,2.0158,2.0599,2.0797,2.0829,2.0926,2.115,2.143,2.143,2.1645,2.1915,2.1688,2.1794,2.2106,2.2254,2.231,2.2321,2.2527,2.2634,2.2721,2.289,2.2989,2.3045,2.2965,2.3159,2.3414,2.3414,2.35,2.361,2.3855,2.3753,2.3674,2.4136,2.4388,2.4472,2.4319,2.4388,2.4456,2.4303,2.447,2.4643,2.4586,2.4146,2.4041,2.4771,2.5114,2.5293,2.5293,2.5525,2.5703,2.5703,2.5703,2.506,2.3436,2.2666,2.1751,2.0462,1.9363,1.7024,1.2965,1.0601,0.7491,0.3364,0.0904,-0.1122,-0.281,-0.6993,-0.9145,-0.9077,-1.0713,-1.2155,-1.3369,-1.5381,-1.6395,0.5961,0.6079,0.0,0.0,0.0,0.0,0.0,0.841,0.0,0.0,0.0,0.0,0.0,0.0,0.0,0.0,0.0,0.0,0.0,0.0,0.0,0.0,0.0,0.0,0.0,1.5559,1.5522,1.5731,1.5768,1.5951,1.6403,1.6938,1.7223,1.7223,1.7685,1.8091,1.8485,1.8951,1.9468,2.0142,2.0574,2.0953,2.1244,2.1446,2.1675,2.1899,2.2005,2.222,2.2463,2.2324,2.2292,2.231,2.231,2.236,2.249,2.2634,2.2873,2.3117,2.3165,2.33,2.3392,2.3253,2.3414,2.3692,2.3692,2.3795,2.3937,2.4151,2.4134,2.4136,2.4508,2.4716,2.4775,2.4654,2.467,2.467,2.4524,2.4674,2.4877,2.4917,2.4648,2.4606,2.5194,2.5526,2.5703,2.5703,2.5703,2.5703,2.5703,2.5338,2.4562,2.3223,2.2615,2.202,2.137,2.0531,1.9075,1.6708,1.4255,1.1219,0.752,0.5742,0.3514,0.0705,-0.3167,-0.5738,-0.6977,-0.8534,-0.9959,-1.1209,-1.3015,-1.3961,0.6847,0.7056,0.0,0.0,0.0,0.0,0.8284,0.8502,0.8954,0.0,0.0,0.0,0.0,0.0,0.0,0.0,0.0,0.0,0.0,0.0,0.0,0.0,0.0,0.0,1.5997,1.5962,1.5927,1.5997,1.6033,1.6299,1.679,1.7282,1.7569,1.7601,1.7884,1.8083,1.8145,1.8535,1.9122,1.9855,2.0348,2.0928,2.1573,2.2073,2.231,2.2377,2.2599,2.2721,2.2772,2.3069,2.2883,2.2405,2.2405,2.2554,2.2772,2.2797,2.3189,2.3671,2.3392,2.3522,2.3714,2.3414,2.3522,2.3774,2.3774,2.3958,2.419,2.4228,2.4393,2.4607,2.479,2.4847,2.4861,2.4832,2.4746,2.4697,2.4804,2.4858,2.4872,2.4892,2.5133,2.5312,2.5312,2.5535,2.5703,2.5703,2.5703,2.5683,2.566,2.4881,2.4321,2.4321,2.3248,2.2443,2.231,2.137,2.02,1.8809,1.5389,1.2979,1.1923,1.0014,0.6827,0.2231,0.0435,-0.164,-0.3926,-0.6196,-0.7705,-0.8465,-0.9723,-1.0835,0.7754,0.8034,0.8247,0.7641,0.0,0.0,0.7556,0.7939,0.861,0.0,0.0,0.0,0.0,0.0,0.0,0.0,0.0,0.0,0.0,0.0,0.0,0.0,0.0,0.0,1.5276,1.5008,1.4957,1.5276,1.5663,1.6025,1.639,1.6519,1.6688,1.6964,1.7029,1.7325,1.788,1.8281,1.8827,1.9519,2.0544,2.1147,2.1288,2.1995,2.2426,2.2608,2.2669,2.2848,2.3117,2.3165,2.3117,2.3014,2.3014,2.3063,2.3141,2.3414,2.3588,2.3714,2.3937,2.4054,2.4094,2.4016,2.4054,2.4094,2.4094,2.4151,2.4228,2.4393,2.4663,2.4911,2.4949,2.5084,2.5149,2.4924,2.5037,2.5012,2.4459,2.4884,2.5401,2.5503,2.5488,2.5465,2.5465,2.5598,2.5703,2.5703,2.5703,2.5629,2.5413,2.5206,2.5084,2.5084,2.4334,2.3422,2.2377,2.2094,2.1247,1.9508,1.7712,1.5994,1.4518,1.1555,0.8754,0.6317,-0.0222,-0.2674,-0.0887,-0.4831,-0.6289,-0.5432,-0.7449,-0.8751,0.8629,0.8701,0.886,0.8692,0.0,0.0,0.0,0.8504,0.8855,0.9758,0.0,0.0,0.0,0.0,0.0,0.0,0.0,0.0,0.0,0.0,0.0,0.0,0.0,0.0,1.4935,1.5081,1.53,1.5681,1.5911,1.6191,1.6528,1.6554,1.6633,1.6789,1.6952,1.7205,1.7562,1.793,1.8443,1.916,2.0127,2.0805,2.1237,2.1972,2.2453,2.2721,2.2873,2.3141,2.3459,2.3628,2.3692,2.3671,2.3346,2.33,2.3459,2.3649,2.3816,2.3976,2.4151,2.4284,2.4339,2.4339,2.4428,2.4495,2.4495,2.4495,2.4526,2.4708,2.4872,2.5022,2.5111,2.5224,2.5264,2.513,2.5203,2.5192,2.4823,2.5197,2.5629,2.5683,2.5624,2.5545,2.5508,2.5605,2.5703,2.5703,2.5593,2.5453,2.5322,2.5303,2.5303,2.5303,2.4081,2.2832,2.1735,2.1661,2.1167,2.0017,1.8925,1.7783,1.6664,1.3879,1.0673,0.7047,0.2393,0.0898,0.2691,0.0453,-0.156,-0.3394,-0.4555,-0.5797,0.0,0.0,0.0,0.0,0.0,1.0231,0.0,0.0,0.0,1.1121,0.0,0.0,0.0,0.0,0.0,0.0,0.0,0.0,0.0,0.0,0.0,0.0,0.0,0.0,0.0,1.5279,1.575,1.6351,1.6107,1.6192,1.6876,1.6892,1.6942,1.6993,1.7248,1.7392,1.7392,1.7658,1.8099,1.8691,1.9484,2.0289,2.1105,2.1881,2.247,2.2923,2.3165,2.35,2.3816,2.4094,2.419,2.4151,2.3588,2.3566,2.3795,2.3795,2.3976,2.419,2.419,2.4321,2.4495,2.4495,2.4639,2.4804,2.4804,2.4832,2.4869,2.4974,2.5022,2.5099,2.5264,2.5303,2.5331,2.5331,2.5313,2.5313,2.5371,2.5547,2.5703,2.5703,2.5655,2.5606,2.5531,2.5598,2.566,2.566,2.5459,2.5303,2.5303,2.5303,2.5243,2.5096,2.3412,2.1945,2.1055,2.1083,2.1007,2.0702,1.9792,1.9,1.8542,1.5774,1.2117,0.7553,0.5534,0.4769,0.5214,0.5363,0.3281,-0.0766,-0.1471,-0.2725,0.0,0.0,0.0,0.0,1.1281,0.0,0.0,0.0,1.0757,1.0218,0.0,0.0,0.0,0.0,0.0,0.0,0.0,0.0,0.0,0.0,0.0,0.0,0.0,0.0,0.0,1.4782,1.5117,1.6616,1.538,1.5312,1.7158,1.7248,1.7368,1.7681,1.7726,1.7726,1.7726,1.7789,1.7845,1.7946,1.8893,1.9786,2.061,2.1593,2.2615,2.3588,2.3628,2.3837,2.4151,2.417,2.419,2.419,2.4132,2.4113,2.4151,2.4151,2.417,2.419,2.419,2.4321,2.4495,2.4495,2.4639,2.4804,2.4804,2.4877,2.4986,2.4998,2.5141,2.5274,2.5284,2.5337,2.5398,2.5459,2.5393,2.5363,2.5603,2.5683,2.5703,2.5703,2.5683,2.568,2.5606,2.5543,2.5511,2.5511,2.5398,2.5303,2.5303,2.5303,2.5049,2.4392,2.3105,2.1945,2.1055,2.1368,2.1751,2.2046,2.0868,2.021,2.0316,1.5814,1.2448,1.0531,0.6534,0.4529,0.4584,0.5165,0.5117,0.4452,0.1259,-0.0399,0.0,0.0,0.0,0.0,0.0,0.0,1.0587,0.0,1.0886,0.0,0.0,0.0,0.0,0.0,0.0,0.0,0.0,0.0,0.0,0.0,0.0,0.0,0.0,0.0,0.0,0.0,0.0,0.0,1.5159,1.5391,1.687,1.7361,1.7641,1.7789,1.7811,1.7811,1.7811,1.7949,1.8035,1.8035,1.9056,1.9707,2.0079,2.1401,2.2384,2.3022,2.3494,2.3959,2.4375,2.4375,2.4444,2.4561,2.4561,2.441,2.419,2.419,2.4266,2.4375,2.4375,2.4556,2.4804,2.4936,2.5012,2.5091,2.5091,2.5154,2.5226,2.5235,2.5313,2.5413,2.5379,2.5401,2.5477,2.5547,2.5526,2.5527,2.5661,2.568,2.5655,2.5683,2.5603,2.5531,2.5535,2.559,2.5561,2.5413,2.5339,2.5149,2.4708,2.4648,2.4263,2.32,2.2615,2.1945,2.1055,2.1182,2.1481,2.1918,2.0741,2.0098,2.0314,1.892,1.6221,1.2195,1.1248,0.9925,0.8061,0.8248,0.7996,0.7312,0.4472,0.2406,1.3488,0.0,0.0,0.0,0.0,0.0,0.0,0.0,0.0,0.0,0.0,0.0,0.0,0.0,0.0,0.0,0.0,0.0,0.0,0.0,0.0,0.0,0.0,0.0,0.0,0.0,0.0,0.0,0.0,1.4968,1.661,1.7202,1.7591,1.7772,1.7861,1.7905,1.7905,1.8166,1.831,1.831,1.9131,1.9621,1.987,2.1304,2.2201,2.2692,2.3535,2.4136,2.4512,2.4561,2.467,2.4804,2.4804,2.4623,2.4357,2.4357,2.4461,2.4575,2.4575,2.4766,2.5034,2.5224,2.5303,2.5293,2.5312,2.5363,2.5406,2.5421,2.5451,2.5479,2.5447,2.5488,2.5543,2.5584,2.5605,2.56,2.5662,2.5622,2.5574,2.5593,2.5477,2.5383,2.5434,2.5531,2.5531,2.5321,2.5138,2.4809,2.4266,2.4979,2.4932,2.335,2.2643,2.2111,2.1633,2.2183,2.2471,2.2224,2.1369,2.0803,2.0712,2.1003,1.9177,1.4853,1.521,1.4255,1.1896,1.1279,1.0517,0.9666,0.706,0.4942,0.0,0.0,0.0,1.259,0.0,0.0,0.0,0.0,1.2543,0.0,0.0,0.0,0.0,0.0,0.0,0.0,0.0,0.0,0.0,0.0,0.0,0.0,0.0,0.0,0.0,0.0,0.0,0.0,0.0,0.0,1.6546,1.6716,1.705,1.7794,1.804,1.8187,1.8187,1.845,1.8585,1.8585,1.8878,1.9416,2.0228,2.1314,2.2245,2.3052,2.404,2.4495,2.4512,2.4716,2.479,2.4804,2.4804,2.479,2.4775,2.4775,2.479,2.479,2.479,2.4877,2.5034,2.5224,2.5303,2.5313,2.5376,2.5406,2.542,2.5488,2.5508,2.5489,2.5508,2.5551,2.5601,2.5601,2.5605,2.5606,2.5603,2.5559,2.5471,2.5339,2.5303,2.5293,2.5322,2.5303,2.5303,2.5313,2.4693,2.4228,2.419,2.6924,2.7955,2.5641,2.3547,2.2528,2.3068,2.5212,2.5688,2.3649,2.3492,2.3128,2.2363,2.0756,1.9761,1.9583,1.6813,1.5352,1.5235,1.3091,1.2043,1.192,0.8601,0.7019,0.0,0.0,1.5973,1.4282,0.0,0.0,0.0,0.0,0.0,0.0,0.0,0.0,0.0,0.0,0.0,0.0,0.0,0.0,0.0,0.0,0.0,0.0,0.0,0.0,0.0,0.0,0.0,0.0,1.2697,0.0,0.0,1.6585,1.7282,1.7544,1.8148,1.8469,1.8469,1.8734,1.8861,1.8878,1.9101,1.9326,1.9634,2.0523,2.1447,2.2386,2.3305,2.4129,2.4831,2.4898,2.5005,2.5126,2.5126,2.5126,2.5103,2.4888,2.4855,2.4956,2.5072,2.516,2.5214,2.5274,2.5321,2.5371,2.5391,2.5465,2.5539,2.5558,2.5601,2.5611,2.559,2.5627,2.5659,2.5605,2.5605,2.5595,2.5595,2.5517,2.5421,2.5437,2.5359,2.5303,2.5303,2.5303,2.5303,2.5303,2.4896,2.4495,2.4228,2.608,2.6859,2.5452,2.4819,2.4372,2.4078,2.4425,2.4333,2.3638,2.3595,2.3465,2.3187,2.1805,2.0657,1.9798,1.8232,1.6991,1.6233,1.4907,1.3909,1.3374,1.1751,1.0071,1.6617,1.6799,0.0,1.5397,1.473,0.0,1.339,0.0,0.0,0.0,0.0,0.0,0.0,0.0,0.0,0.0,0.0,0.0,0.0,0.0,0.0,0.0,0.0,0.0,0.0,0.0,1.0357,1.1985,1.224,0.0,0.0,0.0,1.7135,1.7382,1.827,1.8752,1.8752,1.8983,1.9119,1.9101,1.9246,1.9335,1.9431,2.0243,2.1161,2.2168,2.3088,2.4066,2.501,2.5088,2.5173,2.5303,2.5303,2.5303,2.5264,2.5068,2.5037,2.5141,2.5264,2.5303,2.5293,2.5321,2.5363,2.5413,2.5459,2.5535,2.5603,2.5633,2.5661,2.5683,2.5658,2.5662,2.5683,2.5657,2.5624,2.5601,2.5601,2.5484,2.5413,2.5466,2.5393,2.5274,2.5203,2.5423,2.5696,2.5944,2.5801,2.5595,2.5369,2.6594,2.7004,2.5857,2.6211,2.6176,2.5348,2.4601,2.4158,2.4158,2.3794,2.3595,2.3595,2.2515,2.1582,2.0868,1.9774,1.8806,1.8107,1.6751,1.5883,1.5558,1.4387,1.2943]}]]